[[{"header":{"parameterUnit":"m.s-1","parameterCategory":1,"la1":30.6,"la2":28.766,"lo1":-90.7593,"lo2":-88.6598,"dy":0.0162,"dx":0.0183,"nx":116,"ny":114,"refTime":"2023-05-07T12:00:00:Z","depth":0,"parameterNumber":2,"parameterNumberName":"U-component_of_WINDS"},"data":[0.0,0.0,0.0,0.0,0.0,0.0,0.0,0.0,0.0,0.0,0.0,0.0,0.0,0.0,0.0,0.0,0.0,0.0,0.0,0.0,0.0,0.0,0.0,0.0,0.0,0.0,0.0,0.0,0.0,0.0,0.0,0.0,0.0,0.0,0.0,0.0,0.0,0.0,0.0,0.0,0.0,0.0,0.0,0.0,0.0,0.0,0.0,0.0,0.0,0.0,0.0,0.0,0.0,0.0,0.0,0.0,0.0,0.0,0.0,0.0,0.0,0.0,0.0,0.0,0.0,0.0,0.0,0.0,0.0,0.0,0.0,0.0,0.0,0.0,0.0,0.0,0.0,0.0,0.0,0.0,0.0,0.0,0.0,0.0,0.0,0.0,0.0,0.0,0.0,0.0,0.0,0.0,0.0,0.0,0.0,0.0,0.0,0.0,0.0,0.0,0.0,0.0,0.0,0.0,0.0,0.0,0.0,0.0,0.0,0.0,0.0,0.0,0.0,0.0,0.0,0.0,0.0,0.0,0.0,0.0,0.0,0.0,0.0,0.0,0.0,0.0,0.0,0.0,0.0,0.0,0.0,0.0,0.0,0.0,0.0,0.0,0.0,0.0,0.0,0.0,0.0,0.0,0.0,0.0,0.0,0.0,0.0,0.0,0.0,0.0,0.0,0.0,0.0,0.0,0.0,0.0,0.0,0.0,0.0,0.0,0.0,0.0,0.0,0.0,0.0,0.0,0.0,0.0,0.0,0.0,0.0,0.0,0.0,0.0,0.0,0.0,0.0,0.0,0.0,0.0,0.0,0.0,0.0,0.0,0.0,0.0,0.0,0.0,0.0,0.0,0.0,0.0,0.0,0.0,0.0,0.0,0.0,0.0,0.0,0.0,0.0,0.0,0.0,0.0,0.0,0.0,0.0,0.0,0.0,0.0,0.0,0.0,0.0,0.0,0.0,0.0,0.0,0.0,0.0,0.0,0.0,0.0,0.0,0.0,0.0,0.0,0.0,0.0,0.0,0.0,0.0,0.0,0.0,0.0,0.0,0.0,0.0,0.0,0.0,0.0,0.0,0.0,0.0,0.0,0.0,0.0,0.0,0.0,0.0,0.0,0.0,0.0,0.0,0.0,0.0,0.0,0.0,0.0,0.0,0.0,0.0,0.0,0.0,0.0,0.0,0.0,0.0,0.0,0.0,0.0,0.0,0.0,0.0,0.0,0.0,0.0,0.0,0.0,0.0,0.0,0.0,0.0,0.0,0.0,0.0,0.0,0.0,0.0,0.0,0.0,0.0,0.0,0.0,0.0,0.0,0.0,0.0,0.0,0.0,0.0,0.0,0.0,0.0,0.0,0.0,0.0,0.0,0.0,0.0,0.0,0.0,0.0,0.0,0.0,0.0,0.0,0.0,0.0,0.0,0.0,0.0,0.0,0.0,0.0,0.0,0.0,0.0,0.0,0.0,0.0,0.0,0.0,0.0,0.0,0.0,0.0,0.0,0.0,0.0,0.0,0.0,0.0,0.0,0.0,0.0,0.0,0.0,0.0,0.0,0.0,0.0,0.0,0.0,0.0,0.0,0.0,0.0,0.0,0.0,0.0,0.0,0.0,0.0,0.0,0.0,0.0,0.0,0.0,0.0,0.0,0.0,0.0,0.0,0.0,0.0,0.0,0.0,0.0,0.0,0.0,0.0,0.0,0.0,0.0,0.0,0.0,0.0,0.0,0.0,0.0,0.0,0.0,0.0,0.0,0.0,0.0,0.0,0.0,0.0,0.0,0.0,0.0,0.0,0.0,0.0,0.0,0.0,0.0,0.0,0.0,0.0,0.0,0.0,0.0,0.0,0.0,0.0,0.0,0.0,0.0,0.0,0.0,0.0,0.0,0.0,0.0,0.0,0.0,0.0,0.0,0.0,0.0,0.0,0.0,0.0,0.0,0.0,0.0,0.0,0.0,0.0,0.0,0.0,0.0,0.0,0.0,0.0,0.0,0.0,0.0,0.0,0.0,0.0,0.0,0.0,0.0,0.0,0.0,0.0,0.0,0.0,0.0,0.0,0.0,0.0,0.0,0.0,0.0,0.0,0.0,0.0,0.0,0.0,0.0,0.0,0.0,0.0,0.0,0.0,0.0,0.0,0.0,0.0,0.0,0.0,0.0,0.0,0.0,0.0,0.0,0.0,0.0,0.0,0.0,0.0,0.0,0.0,0.0,0.0,0.0,0.0,0.0,0.0,0.0,0.0,0.0,0.0,0.0,0.0,0.0,0.0,0.0,0.0,0.0,0.0,0.0,0.0,0.0,0.0,0.0,0.0,0.0,0.0,0.0,0.0,0.0,0.0,0.0,0.0,0.0,0.0,0.0,0.0,0.0,0.0,0.0,0.0,0.0,0.0,0.0,0.0,0.0,0.0,0.0,0.0,0.0,0.0,0.0,0.0,0.0,0.0,0.0,0.0,0.0,0.0,0.0,0.0,0.0,0.0,0.0,0.0,0.0,0.0,0.0,0.0,0.0,0.0,0.0,0.0,0.0,0.0,0.0,0.0,0.0,0.0,0.0,0.0,0.0,0.0,0.0,0.0,0.0,0.0,0.0,0.0,0.0,0.0,0.0,0.0,0.0,0.0,0.0,0.0,0.0,0.0,0.0,0.0,0.0,0.0,0.0,0.0,0.0,0.0,0.0,0.0,0.0,0.0,0.0,0.0,0.0,0.0,0.0,0.0,0.0,0.0,0.0,0.0,0.0,0.0,0.0,0.0,0.0,0.0,0.0,0.0,0.0,0.0,0.0,0.0,0.0,0.0,0.0,0.0,0.0,0.0,0.0,0.0,0.0,0.0,0.0,0.0,0.0,0.0,0.0,0.0,0.0,0.0,0.0,0.0,0.0,0.0,0.0,0.0,0.0,0.0,0.0,0.0,0.0,0.0,0.0,0.0,0.0,0.0,0.0,0.0,0.0,0.0,0.0,0.0,0.0,0.0,0.0,0.0,0.0,0.0,0.0,0.0,0.0,0.0,0.0,0.0,0.0,0.0,0.0,0.0,0.0,0.0,0.0,0.0,0.0,0.0,0.0,0.0,0.0,0.0,0.0,0.0,0.0,0.0,0.0,0.0,0.0,0.0,0.0,0.0,0.0,0.0,0.0,0.0,0.0,0.0,0.0,0.0,0.0,0.0,0.0,0.0,0.0,0.0,0.0,0.0,0.0,0.0,0.0,0.0,0.0,0.0,0.0,0.0,0.0,0.0,0.0,0.0,0.0,0.0,0.0,0.0,0.0,0.0,0.0,0.0,0.0,0.0,0.0,0.0,0.0,0.0,0.0,0.0,0.0,0.0,0.0,0.0,0.0,0.0,0.0,0.0,0.0,0.0,0.0,0.0,0.0,0.0,0.0,0.0,0.0,0.0,0.0,0.0,0.0,0.0,0.0,0.0,0.0,0.0,0.0,0.0,0.0,0.0,0.0,0.0,0.0,0.0,0.0,0.0,0.0,0.0,0.0,0.0,0.0,0.0,0.0,0.0,0.0,0.0,0.0,0.0,0.0,0.0,0.0,0.0,0.0,0.0,0.0,0.0,0.0,0.0,0.0,0.0,0.0,0.0,0.0,0.0,0.0,0.0,0.0,0.0,0.0,0.0,0.0,0.0,0.0,0.0,0.0,0.0,0.0,0.0,0.0,0.0,0.0,0.0,0.0,0.0,0.0,0.0,0.0,0.0,0.0,0.0,0.0,0.0,0.0,0.0,0.0,0.0,0.0,0.0,0.0,0.0,0.0,0.0,0.0,0.0,0.0,0.0,0.0,0.0,0.0,0.0,0.0,0.0,0.0,0.0,0.0,0.0,0.0,0.0,0.0,0.0,0.0,0.0,0.0,0.0,0.0,0.0,0.0,0.0,0.0,0.0,0.0,0.0,0.0,0.0,0.0,0.0,0.0,0.0,0.0,0.0,0.0,0.0,0.0,0.0,0.0,0.0,0.0,0.0,0.0,0.0,0.0,0.0,0.0,0.0,0.0,0.0,0.0,0.0,0.0,0.0,0.0,0.0,0.0,0.0,0.0,0.0,0.0,0.0,0.0,0.0,0.0,0.0,0.0,0.0,0.0,0.0,0.0,0.0,0.0,0.0,0.0,0.0,0.0,0.0,0.0,0.0,0.0,0.0,0.0,0.0,0.0,0.0,0.0,0.0,0.0,0.0,0.0,0.0,0.0,0.0,0.0,0.0,0.0,0.0,0.0,0.0,0.0,0.0,0.0,0.0,0.0,0.0,0.0,0.0,0.0,0.0,0.0,0.0,0.0,0.0,0.0,0.0,0.0,0.0,0.0,0.0,0.0,0.0,0.0,0.0,0.0,0.0,0.0,0.0,0.0,0.0,0.0,0.0,0.0,0.0,0.0,0.0,0.0,0.0,0.0,0.0,0.0,0.0,0.0,0.0,0.0,0.0,0.0,0.0,0.0,0.0,0.0,0.0,0.0,0.0,0.0,0.0,0.0,0.0,0.0,0.0,0.0,0.0,0.0,0.0,0.0,0.0,0.0,0.0,0.0,0.0,0.0,0.0,0.0,0.0,0.0,0.0,0.0,0.0,0.0,0.0,0.0,0.0,0.0,0.0,0.0,0.0,0.0,0.0,0.0,0.0,0.0,0.0,0.0,0.0,0.0,0.0,0.0,0.0,0.0,0.0,0.0,0.0,0.0,0.0,0.0,0.0,0.0,0.0,0.0,0.0,0.0,0.0,0.0,0.0,0.0,0.0,0.0,0.0,0.0,0.0,0.0,0.0,0.0,0.0,0.0,0.0,0.0,0.0,0.0,0.0,0.0,0.0,0.0,0.0,0.0,0.0,0.0,0.0,0.0,0.0,0.0,0.0,0.0,0.0,0.0,0.0,0.0,0.0,0.0,0.0,0.0,0.0,0.0,0.0,0.0,0.0,0.0,0.0,0.0,0.0,0.0,0.0,0.0,0.0,0.0,0.0,0.0,0.0,0.0,0.0,0.0,0.0,0.0,0.0,0.0,0.0,0.0,0.0,0.0,0.0,0.0,0.0,0.0,0.0,0.0,0.0,0.0,0.0,0.0,0.0,0.0,0.0,0.0,0.0,0.0,0.0,0.0,0.0,0.0,0.0,0.0,0.0,0.0,0.0,0.0,0.0,0.0,0.0,0.0,0.0,0.0,0.0,0.0,0.0,0.0,0.0,0.0,0.0,0.0,0.0,0.0,0.0,0.0,0.0,0.0,0.0,0.0,0.0,0.0,0.0,0.0,0.0,0.0,0.0,0.0,0.0,0.0,0.0,0.0,0.0,0.0,0.0,0.0,0.0,0.0,0.0,0.0,0.0,0.0,0.0,0.0,0.0,0.0,0.0,0.0,0.0,0.0,0.0,0.0,0.0,0.0,0.0,0.0,0.0,0.0,0.0,0.0,0.0,0.0,0.0,0.0,0.0,0.0,0.0,0.0,0.0,0.0,0.0,0.0,0.0,0.0,0.0,0.0,0.0,0.0,0.0,0.0,0.0,0.0,0.0,0.0,0.0,0.0,0.0,0.0,0.0,0.0,0.0,0.0,0.0,0.0,0.0,0.0,0.0,0.0,0.0,0.0,0.0,0.0,0.0,0.0,0.0,0.0,0.0,0.0,0.0,0.0,0.0,0.0,0.0,0.0,0.0,0.0,0.0,0.0,0.0,0.0,0.0,0.0,0.0,0.0,0.0,0.0,0.0,0.0,0.0,0.0,0.0,0.0,0.0,0.0,0.0,0.0,0.0,0.0,0.0,0.0,0.0,0.0,0.0,0.0,0.0,0.0,0.0,0.0,0.0,0.0,0.0,0.0,0.0,0.0,0.0,0.0,0.0,0.0,0.0,0.0,0.0,0.0,0.0,0.0,0.0,0.0,0.0,0.0,0.0,0.0,0.0,0.0,0.0,0.0,0.0,0.0,0.0,0.0,0.0,0.0,0.0,0.0,0.0,0.0,0.0,0.0,0.0,0.0,0.0,0.0,0.0,0.0,0.0,0.0,0.0,0.0,0.0,0.0,0.0,0.0,0.0,0.0,0.0,0.0,0.0,0.0,0.0,0.0,0.0,0.0,0.0,0.0,0.0,0.0,0.0,0.0,0.0,0.0,-0.4947,0.0,0.0,0.0,0.0,0.0,0.0,0.0,0.0,0.0,0.0,0.0,0.0,0.0,0.0,0.0,0.0,0.0,0.0,0.0,0.0,0.0,0.0,0.0,0.0,0.0,0.0,0.0,0.0,0.0,0.0,0.0,0.0,0.0,0.0,0.0,0.0,0.0,0.0,0.0,-0.5097,-0.5097,-0.5136,-0.6345,-0.7174,-0.7661,0.0,0.0,0.0,0.0,0.0,0.0,0.0,0.0,0.0,0.0,0.0,0.0,0.0,0.0,0.0,0.0,0.0,0.0,0.0,0.0,0.0,0.0,0.0,0.0,0.0,0.0,0.0,0.0,0.0,0.0,0.0,0.0,0.0,0.0,0.0,0.0,0.0,0.0,0.0,0.0,0.0,0.0,0.0,0.0,0.0,0.0,0.0,0.0,0.0,0.0,0.0,0.0,0.0,0.0,0.0,0.0,0.0,0.0,0.0,0.0,0.0,0.0,0.0,0.0,0.0,0.0,0.0,0.0,0.0,0.0,0.0,-0.4241,0.0,0.0,0.0,0.0,0.0,0.0,0.0,0.0,0.0,0.0,0.0,0.0,0.0,0.0,0.0,0.0,0.0,0.0,0.0,0.0,0.0,0.0,0.0,-0.0885,-0.0773,-0.0488,-0.0449,-0.1523,0.0,0.0,0.0,0.0,0.0,0.0,0.0,-0.4943,-0.5097,-0.5097,-0.5097,-0.5328,-0.5809,-0.8268,-0.9002,-0.8316,-0.956,0.0,0.0,0.0,0.0,0.0,0.0,0.0,0.0,0.0,0.0,0.0,0.0,0.0,0.0,0.0,0.0,0.0,0.0,0.0,0.0,0.0,0.0,0.0,0.0,0.0,0.0,0.0,0.0,0.0,0.0,0.0,0.0,0.0,0.0,0.0,0.0,0.0,0.0,0.0,0.0,0.0,0.0,0.0,0.0,0.0,0.0,0.0,0.0,0.0,0.0,0.0,0.0,0.0,0.0,0.0,0.0,0.0,0.0,0.0,0.0,0.0,0.0,0.0,-0.2236,-0.2171,-0.1834,-0.2772,-0.3538,-0.4092,-0.3873,-0.3525,-0.3203,0.0,0.0,0.0,0.0,0.0,0.0,0.0,0.0,0.0,0.0,0.0,0.0,0.0,0.0,0.0,0.0,0.0,0.0,0.0,0.0,0.0,0.0,-0.4424,-0.3844,-0.2382,-0.2266,-0.1797,-0.0742,0.0,0.0,0.0,0.0,0.0,-0.2871,-0.4329,-0.5097,-0.5097,-0.5097,-0.623,-0.8441,-1.0479,-1.1233,-1.0891,-1.0348,-1.0521,-1.1175,0.0,0.0,0.0,0.0,0.0,0.0,0.0,0.0,0.0,0.0,0.0,0.0,0.0,0.0,0.0,0.0,0.0,0.0,0.0,0.0,0.0,0.0,0.0,0.0,0.0,0.0,0.0,0.0,0.0,0.0,0.0,0.0,0.0,0.0,0.0,0.0,0.0,0.0,0.0,0.0,0.0,-0.4921,-0.5572,0.0,0.0,0.0,0.0,0.0,0.0,0.0,0.0,0.0,0.0,0.0,0.0,0.0,0.0,-0.2695,-0.2981,-0.2918,-0.2508,-0.3974,-0.3658,-0.1809,-0.1958,-0.3086,-0.4942,-0.4905,0.0,-0.2066,-0.2677,0.0,0.0,0.0,0.0,0.0,0.0,0.0,0.0,0.0,0.0,0.0,0.0,0.0,0.0,0.0,0.0,0.0,0.0,0.0,0.0,0.0,-0.5097,-0.481,-0.4073,-0.4902,-0.4727,-0.2988,-0.2461,0.0,0.0,0.0,-0.4751,-0.3985,-0.4714,-0.5713,-0.696,-0.7595,-0.9133,-1.1498,-1.2041,-1.2238,-1.2103,-1.1738,-1.1502,-1.1329,-1.0464,0.0,0.0,0.0,0.0,0.0,0.0,0.0,0.0,0.0,0.0,0.0,0.0,0.0,0.0,0.0,0.0,0.0,0.0,0.0,0.0,0.0,0.0,0.0,0.0,0.0,0.0,0.0,0.0,0.0,0.0,0.0,0.0,0.0,0.0,0.0,0.0,0.0,0.0,0.0,-0.6561,-0.6001,-0.6105,-0.6243,-0.6324,0.0,0.0,0.0,0.0,0.0,0.0,0.0,0.0,0.0,-0.5854,-0.375,-0.2598,-0.2598,-0.3532,-0.4008,-0.4018,-0.4757,-0.4583,-0.3658,-0.3658,-0.4186,-0.5108,-0.5108,-0.4555,-0.3571,-0.2559,-0.259,-0.3423,0.0,0.0,0.0,0.0,-0.4794,-0.3248,0.0,0.0,0.0,0.0,0.0,0.0,0.0,0.0,0.0,0.0,0.0,0.0,-0.4987,-0.5478,-0.566,-0.5451,-0.6616,-0.6854,-0.5645,-0.2891,-0.2068,-0.3759,-0.4645,-0.5108,-0.5105,-0.5294,-0.6424,-0.8537,-0.9575,-1.1421,-1.392,-1.3501,-1.3539,-1.397,-1.3712,-1.2905,-1.168,-1.081,-1.0306,-1.0152,0.0,0.0,0.0,0.0,0.0,0.0,0.0,0.0,0.0,0.0,0.0,0.0,0.0,0.0,0.0,0.0,0.0,0.0,0.0,0.0,0.0,0.0,0.0,0.0,0.0,0.0,0.0,0.0,0.0,0.0,0.0,0.0,0.0,0.0,0.0,0.0,0.0,-0.624,-0.6728,-0.638,-0.5936,-0.5846,0.0,0.0,0.0,0.0,0.0,0.0,-0.5071,-0.512,-0.5204,-0.5328,-0.3887,-0.3153,-0.3242,-0.4485,-0.5108,-0.5108,-0.5309,-0.5404,-0.5404,-0.5404,-0.53,-0.5108,-0.5309,-0.53,-0.4934,-0.2868,-0.2007,-0.2206,-0.4246,-0.537,-0.5781,-0.5482,-0.3853,-0.184,0.0,0.0,0.0,0.0,0.0,0.0,0.0,0.0,0.0,0.0,0.0,-0.1466,-0.4658,-0.6483,-0.7171,-0.641,-0.6421,-0.6565,-0.6797,-0.5566,-0.4902,-0.5011,-0.5073,-0.5096,-0.5108,-0.5839,-0.7098,-0.8879,-0.969,-1.1825,-1.5112,-1.4952,-1.5795,-1.7407,-1.6441,-1.4768,-1.2584,-1.1699,-1.0867,-1.0094,-1.0152,0.0,0.0,0.0,0.0,0.0,0.0,0.0,0.0,0.0,0.0,0.0,0.0,0.0,0.0,0.0,0.0,0.0,0.0,0.0,0.0,0.0,0.0,0.0,0.0,0.0,0.0,0.0,0.0,0.0,0.0,0.0,0.0,0.0,0.0,0.0,0.0,0.0,0.0,-0.5676,-0.529,0.0,0.0,0.0,0.0,-0.597,-0.5889,-0.5673,-0.5303,-0.5462,-0.5516,-0.54,-0.4815,-0.4659,-0.4971,-0.5069,-0.5108,-0.5108,-0.587,-0.6242,-0.6242,-0.6242,-0.5815,-0.5146,-0.5907,-0.5797,-0.4962,-0.3254,-0.2558,-0.2578,-0.2716,-0.3128,-0.3535,-0.2443,-0.1936,-0.1963,0.0,0.0,0.0,0.0,0.0,0.0,0.0,0.0,-0.3494,-0.4647,-0.3844,-0.3898,-0.588,-0.6504,-0.6884,-0.7219,-0.7235,-0.7052,-0.6601,-0.6346,-0.5874,-0.5124,-0.5097,-0.5344,-0.586,-0.7254,-0.8806,-1.0502,-1.1882,-1.3747,-1.6042,-1.5984,-1.6543,-1.7565,-1.7191,-1.6208,-1.4744,-1.3537,-1.2541,-1.1718,-1.1156,-1.0752,0.0,0.0,0.0,0.0,0.0,0.0,0.0,0.0,0.0,0.0,0.0,0.0,0.0,0.0,0.0,0.0,0.0,0.0,0.0,0.0,0.0,0.0,0.0,0.0,0.0,0.0,0.0,0.0,0.0,0.0,0.0,0.0,0.0,0.0,0.0,0.0,0.0,-0.5956,-0.6096,0.0,0.0,-0.6035,-0.5821,-0.5668,-0.5571,-0.5486,-0.5439,-0.5541,-0.5568,-0.5468,-0.5697,-0.5902,-0.607,-0.6063,-0.6063,-0.6081,-0.636,-0.6483,-0.6483,-0.6483,-0.6343,-0.6034,-0.5686,-0.5366,-0.5059,-0.4456,-0.357,-0.2656,-0.3215,-0.3222,-0.3001,-0.3677,-0.392,-0.3985,0.0,0.0,0.0,0.0,0.0,0.0,0.0,0.0,-0.4793,-0.4793,-0.4831,-0.5296,-0.6407,-0.6467,-0.6773,-0.7621,-0.7428,-0.7013,-0.6445,-0.6287,-0.589,-0.5141,-0.5356,-0.5888,-0.6715,-0.8421,-1.0267,-1.2233,-1.3651,-1.5362,-1.733,-1.727,-1.7665,-1.8417,-1.8354,-1.7976,-1.7263,-1.6063,-1.4393,-1.2488,-1.1635,-1.1306,-1.1211,0.0,0.0,0.0,0.0,0.0,0.0,0.0,0.0,0.0,0.0,0.0,0.0,0.0,0.0,0.0,0.0,0.0,0.0,0.0,0.0,0.0,0.0,0.0,0.0,0.0,0.0,0.0,0.0,0.0,0.0,0.0,0.0,0.0,0.0,0.0,-0.6267,-0.6442,-0.6407,-0.638,-0.6429,-0.6022,-0.5697,-0.5524,-0.5647,-0.5783,-0.5857,-0.591,-0.5923,-0.5885,-0.6299,-0.6512,-0.65,-0.6564,-0.6599,-0.6599,-0.653,-0.65,-0.65,-0.65,-0.65,-0.6465,-0.5797,-0.5442,-0.5377,-0.5319,-0.4564,-0.3477,-0.3784,-0.3598,-0.3252,-0.3989,-0.4621,-0.5108,0.0,0.0,0.0,0.0,0.0,0.0,0.0,-0.2762,-0.4738,-0.4789,-0.4793,-0.5149,-0.6102,-0.6489,-0.6952,-0.7639,-0.6917,-0.6406,-0.6406,-0.5585,-0.511,-0.5139,-0.5915,-0.6773,-0.77,-0.9367,-1.1459,-1.3978,-1.4843,-1.6561,-1.9011,-1.879,-1.9248,-2.0184,-2.006,-2.0001,-1.9944,-1.9126,-1.6345,-1.24,-1.1528,-1.1213,-1.1079,0.0,0.0,0.0,0.0,0.0,0.0,0.0,0.0,0.0,0.0,0.0,0.0,0.0,0.0,0.0,0.0,0.0,0.0,0.0,0.0,0.0,0.0,0.0,0.0,0.0,0.0,0.0,0.0,0.0,0.0,0.0,0.0,0.0,-0.6935,-0.6229,-0.6163,-0.7074,-0.6092,-0.5554,-0.6072,-0.5766,-0.5547,-0.5547,-0.6198,-0.6599,-0.6599,-0.6599,-0.6599,-0.6599,-0.6599,-0.65,-0.6313,-0.6483,-0.6599,-0.6582,-0.6395,-0.6295,-0.6295,-0.6295,-0.6295,-0.6295,-0.6295,-0.6153,-0.59,-0.576,-0.548,-0.5049,-0.4244,-0.4088,-0.4186,-0.3076,-0.3707,-0.5088,0.0,0.0,0.0,0.0,0.0,0.0,0.0,-0.3238,-0.3476,-0.4647,-0.4793,-0.5149,-0.6102,-0.6289,-0.6713,-0.7619,-0.7085,-0.6613,-0.6406,-0.5583,-0.5352,-0.595,-0.6783,-0.8216,-1.0314,-1.1998,-1.3824,-1.5792,-1.6619,-1.7683,-1.8992,-1.8935,-1.9317,-2.005,-2.0012,-1.995,-1.9802,-1.8941,-1.7836,-1.6418,-1.3877,-1.2853,-1.2632,0.0,0.0,0.0,0.0,0.0,0.0,0.0,0.0,0.0,0.0,0.0,0.0,0.0,0.0,0.0,0.0,0.0,0.0,0.0,0.0,0.0,0.0,0.0,0.0,0.0,0.0,0.0,0.0,0.0,0.0,0.0,0.0,-0.7154,-0.6982,-0.6528,-0.6336,-0.6589,-0.6522,-0.6518,-0.6661,-0.6571,-0.6449,-0.6315,-0.6625,-0.6757,-0.6616,-0.6599,-0.6599,-0.6599,-0.6599,-0.6582,-0.653,-0.643,-0.6378,-0.6378,-0.6313,-0.6295,-0.6295,-0.6295,-0.6295,-0.6295,-0.6295,-0.6307,-0.6302,-0.5881,-0.5686,-0.5619,-0.5001,-0.4816,-0.4835,-0.4534,-0.461,-0.4902,0.0,0.0,0.0,0.0,0.0,0.0,0.0,-0.3147,-0.375,-0.4683,-0.4793,-0.5149,-0.6102,-0.59,-0.6144,-0.7219,-0.6561,-0.5819,-0.5176,-0.5114,-0.5522,-0.6468,-0.7917,-0.9709,-1.1891,-1.3945,-1.583,-1.7549,-1.803,-1.8684,-1.9542,-1.9523,-1.9715,-2.0068,-2.0078,-2.0011,-1.9817,-1.8985,-1.852,-1.8216,-1.6371,-1.5376,-1.4746,-1.2269,-1.2071,-1.2961,-1.1743,-1.1898,-1.2604,-1.2271,0.0,0.0,0.0,0.0,0.0,0.0,0.0,0.0,0.0,0.0,0.0,0.0,0.0,0.0,0.0,0.0,0.0,0.0,0.0,0.0,0.0,0.0,0.0,0.0,-0.7646,-0.7392,-0.7379,-0.693,-0.6629,-0.6728,-0.6983,-0.7123,-0.7026,-0.6993,-0.6944,-0.6858,-0.6891,-0.6858,-0.6774,-0.6774,-0.6774,-0.6774,-0.6569,-0.6465,-0.6465,-0.636,-0.6295,-0.6295,-0.6295,-0.6295,-0.6295,-0.6295,-0.6295,0.0,-0.6295,-0.6343,-0.639,-0.6081,-0.6009,0.0,0.0,0.0,0.0,0.0,-0.4902,-0.4812,0.0,0.0,0.0,0.0,0.0,0.0,0.0,-0.268,-0.4588,-0.4763,-0.4793,-0.5134,-0.5963,-0.5414,-0.544,-0.6518,-0.5691,-0.4679,-0.3652,-0.4666,-0.5821,-0.6981,-0.9253,-1.1273,-1.2964,-1.5386,-1.7363,-1.8857,-1.8953,-1.9388,-2.0158,-2.0084,-2.0115,-2.0211,-2.0192,-2.0075,-1.9859,-1.923,-1.8792,-1.8553,-1.8825,-1.82,-1.6888,-1.4757,-1.4766,-1.5721,-1.4085,-1.3489,-1.3379,-1.2649,0.0,0.0,0.0,0.0,0.0,0.0,0.0,0.0,0.0,0.0,0.0,0.0,0.0,0.0,0.0,0.0,0.0,0.0,0.0,0.0,0.0,0.0,0.0,0.0,-0.7843,-0.8125,-0.8196,-0.7596,-0.7179,-0.7262,-0.7408,-0.7422,-0.7235,-0.7171,-0.7155,-0.7187,-0.7042,-0.696,-0.6993,0.0,0.0,0.0,0.0,-0.6453,-0.6453,-0.6453,-0.6453,-0.6453,-0.6401,-0.6348,-0.6295,-0.6295,-0.6295,-0.6295,-0.6295,-0.6295,-0.6295,-0.6295,-0.6295,-0.6242,-0.5704,-0.5281,-0.497,-0.4852,-0.4793,-0.4793,0.0,0.0,0.0,0.0,0.0,0.0,0.0,-0.2393,-0.3313,-0.4547,-0.4816,-0.494,-0.5134,-0.5062,-0.511,-0.5411,-0.522,-0.5015,-0.4781,-0.5897,-0.7124,-0.8441,-1.0935,-1.3075,-1.4766,-1.6604,-1.7676,-1.7953,-1.8657,-1.91,-1.9242,-1.9234,-1.9619,-2.0285,-2.0219,-1.983,-1.9238,-1.9717,-1.9438,-1.8783,-2.0326,-1.9469,-1.7213,-1.6801,-1.645,-1.6007,-1.5041,-1.4638,-1.4566,-1.4415,-1.3879,-1.3193,-1.2557,-1.2296,0.0,0.0,0.0,0.0,0.0,0.0,0.0,0.0,0.0,0.0,0.0,0.0,0.0,0.0,0.0,0.0,0.0,0.0,0.0,-0.9071,-0.8677,-0.8623,-0.9906,-0.9265,-0.8439,-0.7753,-0.7575,-0.7453,-0.7376,-0.7345,-0.7282,-0.7123,-0.7235,-0.7219,-0.7009,-0.7155,0.0,-0.7469,-0.7407,-0.7346,-0.7346,-0.7346,-0.7346,-0.7346,0.0,0.0,-0.6295,-0.6295,-0.6295,-0.6295,-0.6295,-0.6295,-0.6295,-0.6295,-0.6295,-0.6278,-0.6171,-0.5593,-0.4832,-0.4812,-0.4793,-0.4793,0.0,0.0,0.0,0.0,0.0,0.0,0.0,-0.344,-0.3794,-0.4598,-0.4793,-0.4856,-0.489,-0.4179,-0.4077,-0.5016,-0.5102,-0.5092,-0.5096,-0.6758,-0.8553,-1.0371,-1.2376,-1.4026,-1.5263,-1.7374,-1.821,-1.7702,-1.8561,-1.9004,-1.8992,-1.8549,-1.8819,-1.9677,-2.0073,-2.0027,-1.97,-2.0507,-2.0551,-2.022,-2.1594,-2.105,-1.9449,-1.9859,-1.9438,-1.8495,-1.7255,-1.6242,-1.5373,-1.453,-1.3679,-1.2929,-1.2525,-1.2083,-1.1689,0.0,0.0,0.0,0.0,0.0,0.0,0.0,0.0,0.0,0.0,0.0,0.0,0.0,0.0,-0.796,0.0,0.0,-0.8438,-0.9058,-0.9343,-0.9756,-1.0447,-0.9796,-0.9094,-0.8649,-0.8094,-0.7739,-0.7709,-0.768,-0.7576,-0.7407,-0.7392,-0.7392,-0.7345,-0.7345,-0.7422,-0.7605,-0.7605,-0.7605,-0.7605,-0.7605,-0.753,-0.7392,-0.7329,-0.7109,-0.6731,-0.6436,-0.6436,-0.6642,-0.6401,-0.6436,-0.6642,-0.6401,-0.6295,-0.6295,-0.6295,-0.5998,-0.5499,-0.5088,-0.4882,-0.4793,0.0,0.0,0.0,0.0,0.0,0.0,0.0,-0.4351,-0.4609,-0.4675,-0.4753,-0.482,-0.487,-0.3709,-0.3504,-0.4968,-0.5102,-0.5164,-0.5349,-0.7597,-0.9902,-1.2064,-1.356,-1.4808,-1.5784,-1.798,-1.8662,-1.774,-1.8436,-1.8846,-1.9001,-1.8113,-1.8337,-1.9511,-2.0062,-2.0389,-2.06,-2.1408,-2.1658,-2.16,-2.2793,-2.2774,-2.2073,-2.2671,-2.2176,-2.0963,-1.9275,-1.7492,-1.5727,-1.4369,-1.3263,-1.2452,-1.2426,-1.2043,-1.1652,-1.1951,-1.1037,0.0,0.0,0.0,0.0,0.0,0.0,0.0,0.0,0.0,-0.9224,-0.8408,-0.8672,-0.8916,-0.8408,-0.9201,-0.9785,-0.9304,-1.0236,-1.0975,-1.0833,-1.0142,-0.9615,-0.9516,-0.8597,-0.8014,-0.8041,-0.7912,-0.7811,-0.7739,-0.7545,-0.7499,-0.7679,-0.753,-0.7484,-0.7605,-0.7605,-0.7605,-0.7605,-0.7605,-0.7484,-0.7282,-0.7499,-0.7484,-0.7266,-0.6731,-0.6714,-0.7091,-0.654,-0.6522,-0.6828,-0.6453,-0.6295,-0.6295,-0.6295,-0.6295,-0.6224,-0.5574,-0.5243,-0.5069,0.0,0.0,0.0,0.0,0.0,0.0,0.0,0.0,-0.4538,-0.4597,-0.4714,-0.4798,-0.4805,-0.48,-0.4872,-0.5076,-0.5101,-0.5436,-0.6199,-0.8682,-1.0895,-1.2634,-1.4336,-1.5992,-1.7577,-1.8644,-1.8768,-1.7888,-1.7931,-1.8338,-1.9063,-1.814,-1.8965,-2.1196,-2.0581,-2.0696,-2.1427,-2.2293,-2.2216,-2.1716,-2.4082,-2.4524,-2.3821,-2.3899,-2.291,-2.124,-1.9558,-1.738,-1.5261,-1.5075,-1.3967,-1.265,-1.2528,-1.2875,-1.3036,-1.1569,-1.0967,-1.0783,-1.0875,-1.0802,-1.0676,-1.048,-1.0114,-0.9875,0.0,0.0,-0.9267,-0.9093,-0.8985,-0.91,-0.967,-0.9742,-1.0206,-1.163,-1.1825,-1.1811,-1.1908,-1.1137,-1.0373,-0.9894,-0.8754,-0.8055,-0.816,-0.784,-0.7709,-0.7869,-0.7695,-0.7589,-0.762,-0.7589,-0.7589,-0.7605,-0.7605,-0.7605,-0.7605,-0.7605,-0.7589,-0.7545,-0.7589,-0.7589,-0.7545,-0.7298,-0.7314,-0.7484,-0.6664,-0.6331,-0.6366,-0.6313,-0.6295,-0.6295,-0.6295,-0.6295,-0.6278,-0.6207,-0.6153,-0.6034,0.0,0.0,0.0,0.0,0.0,0.0,0.0,0.0,0.0,-0.4599,-0.4167,-0.4134,-0.4831,-0.5027,-0.5091,-0.51,-0.5108,-0.5462,-0.6344,-0.9725,-1.1827,-1.2086,-1.4703,-1.6484,-1.7194,-1.8516,-1.8761,-1.7903,-1.8347,-1.873,-1.9074,-1.8146,-1.8549,-2.0069,-2.0716,-2.1196,-2.162,-2.3466,-2.4043,-2.3803,-2.4861,-2.4812,-2.3995,-2.2966,-2.1216,-1.9196,-1.8491,-1.6926,0.0,-1.3483,-1.2854,-1.2599,-1.204,-1.202,-1.2057,-1.133,-1.1004,-1.0994,-1.1378,-1.1448,-1.1527,0.0,-1.2542,-1.2964,-1.281,-1.2841,-1.2591,-1.1482,-1.1145,-1.0835,-1.014,-1.0273,-1.0614,0.0,-1.1585,-1.1924,-1.1521,-1.1111,-1.0468,-0.9396,-0.8682,-0.8309,-0.8361,-0.8189,-0.8053,-0.8025,-0.7941,-0.7855,-0.7768,-0.7855,-0.7797,-0.762,-0.7709,-0.7724,-0.7605,-0.7605,-0.7605,-0.7605,-0.7605,-0.7605,-0.7605,-0.7514,-0.7514,-0.7575,-0.7221,-0.6781,-0.6295,-0.6295,-0.6295,-0.6295,-0.6295,-0.6295,-0.6295,-0.6295,-0.6295,-0.6242,0.0,0.0,0.0,0.0,0.0,0.0,0.0,0.0,0.0,0.0,-0.3764,-0.3635,-0.4857,-0.5039,-0.5076,-0.5088,-0.5091,-0.5505,-0.6453,-0.9297,-1.1309,-1.208,-1.4373,-1.6068,-1.7011,-1.8453,-1.8899,-1.8266,-1.8838,-1.9249,-1.9459,-1.8545,-1.8699,-1.98,-2.1017,-2.1685,-2.2026,-2.3879,-2.4662,-2.4681,-2.4681,-2.418,-2.3253,-2.149,-1.9406,-1.7362,-1.7093,-1.5618,-1.3555,-1.1945,-1.1661,-1.1868,-1.1211,-1.1103,-1.12,-1.1181,-1.1233,-1.1378,-1.1834,-1.2245,0.0,-1.3598,-1.4823,-1.5737,-1.5488,-1.5618,-1.542,-1.4064,-1.3341,-1.2501,-1.1015,-1.098,-1.1005,-1.051,-1.129,-1.1673,-1.0888,-1.0558,-1.0025,-0.8921,-0.8319,-0.8127,-0.851,-0.8399,-0.8296,-0.8218,-0.8149,-0.8066,-0.7999,-0.8053,-0.7982,-0.7739,-0.7884,-0.787,-0.7679,-0.768,-0.765,-0.7605,-0.7605,-0.7605,-0.7605,-0.7605,-0.7605,-0.7605,-0.7605,-0.7237,-0.6647,-0.6453,-0.636,-0.6295,-0.6295,-0.6295,-0.6295,-0.6295,-0.6295,-0.6295,0.0,0.0,0.0,0.0,0.0,0.0,0.0,0.0,0.0,0.0,0.0,0.0,0.0,-0.4995,-0.5034,-0.5095,-0.5097,-0.5578,-0.6715,-0.6657,-0.8645,-1.3243,-1.3108,-1.4476,-1.7789,-1.873,-1.9189,-1.9169,-1.9197,-1.9632,-2.0447,-1.9559,-2.0037,-2.1623,-2.1675,-2.2157,-2.2955,-2.3047,-2.3062,-2.3072,-2.3072,-2.2542,-2.158,-1.9852,-1.8114,-1.651,-1.5601,-1.3113,-1.0363,-1.1137,-1.0867,-1.0159,-1.0063,-1.0578,-1.1187,-1.1124,-1.1644,-1.2236,-1.2114,0.0,-1.4616,-1.5417,-1.623,-1.7055,-1.7807,-1.7253,-1.6558,-1.6489,-1.507,-1.3602,-1.2767,-1.1947,-1.1414,-1.1451,-1.1378,-1.1084,-1.0328,-0.9502,-0.8919,-0.8806,-0.7527,-0.7195,0.0,-0.8345,-0.8211,-0.8483,-0.8253,-0.8133,-0.8191,-0.8133,-0.8088,-0.8075,-0.8088,-0.8037,-0.7899,-0.7898,-0.7782,-0.7605,-0.7605,-0.7605,-0.7605,-0.7605,-0.7605,-0.7605,-0.7605,-0.7575,-0.7514,-0.6858,-0.6465,-0.6295,-0.6295,-0.6295,-0.6295,-0.6295,-0.6295,-0.6295,0.0,0.0,0.0,0.0,0.0,0.0,0.0,0.0,0.0,0.0,0.0,0.0,0.0,0.0,0.0,0.0,-0.5068,-0.527,-0.5655,-0.6957,-0.8466,-1.0105,-1.2373,-1.4053,-1.5028,-1.7204,-1.8055,-1.7474,-1.8047,-1.8199,-1.7924,-1.8743,-1.9134,-1.9184,-2.0927,-2.1865,-2.2187,-2.2756,-2.3004,-2.2902,-2.1745,-2.075,-1.9735,-1.7454,-1.5158,-1.3116,0.0,-1.2016,-1.0895,-1.0022,-0.9935,-0.9967,-0.8776,-0.9323,-1.0597,-1.1547,-1.2015,-1.2678,-1.4724,0.0,-1.6542,-1.8427,-1.9528,-2.0225,-2.0482,-2.0285,-1.9381,-1.7077,-1.5688,-1.4119,-1.1641,-1.0931,-1.0579,-1.0112,-1.0349,-1.0313,-0.9576,-0.9572,-0.9234,-0.8197,-0.8059,0.0,0.0,0.0,0.0,-0.8534,-0.8488,-0.8605,-0.9032,-0.8669,-0.8565,-0.8886,-0.8503,-0.8229,-0.8096,-0.8109,-0.8053,-0.7924,-0.7883,-0.7841,-0.7797,-0.7753,-0.7679,-0.7605,-0.7605,-0.7605,-0.7589,-0.736,-0.7221,-0.7109,-0.6527,-0.6295,-0.6295,-0.6295,-0.6295,-0.6295,0.0,0.0,0.0,0.0,0.0,0.0,0.0,0.0,0.0,0.0,0.0,0.0,0.0,0.0,0.0,0.0,0.0,-0.5068,-0.5097,-0.6422,-0.7586,-0.8426,-1.0853,-1.2374,-1.28,-1.5239,-1.6077,-1.5209,-1.6107,-1.6094,-1.5273,-1.6664,-1.7017,-1.6585,-1.8893,-1.9734,-1.9497,-2.0341,-2.0789,-2.0767,-1.9224,-1.8033,-1.698,-1.511,-1.3172,0.0,-1.1128,-1.1048,-1.0909,-1.0098,-1.0195,-1.0462,-0.9347,-0.989,-1.1013,-1.1274,-1.2404,-1.4101,-1.638,-1.7582,-1.8735,-2.0947,-2.2075,-2.2575,-2.2281,-2.1767,-2.0358,-1.6984,-1.541,-1.3721,-1.0703,-0.9912,-0.9555,-0.909,-0.9054,-0.9029,-0.8839,-0.887,-0.875,-0.8285,-0.819,0.0,0.0,0.0,0.0,-0.8658,-0.8956,-0.9241,-0.9581,-0.9487,-0.9444,-0.9484,-0.9105,-0.8698,-0.8272,-0.8285,-0.8243,-0.8133,-0.8065,-0.8011,-0.7956,-0.7841,-0.7724,-0.7605,-0.7605,-0.7605,-0.7605,-0.7605,-0.7605,-0.7545,-0.6996,-0.6527,-0.6207,-0.6278,-0.6295,-0.6295,0.0,0.0,0.0,0.0,0.0,0.0,0.0,0.0,0.0,0.0,0.0,0.0,0.0,0.0,0.0,0.0,0.0,0.0,-0.5093,-0.5097,-0.604,-0.8133,-0.8671,-0.9633,-1.1214,-1.3009,-1.3506,-1.2626,-1.3524,-1.3539,-1.2746,-1.363,-1.4022,-1.4119,-1.5817,-1.6108,-1.5384,-1.6155,-1.6662,-1.6844,-1.5721,-1.4627,-1.3579,-1.2923,-1.2154,-1.133,-1.0509,-1.0232,-1.0383,-1.1163,-1.1431,-1.1443,-1.1477,-1.2026,-1.231,-1.0577,-1.296,-1.6346,-1.7187,-1.8994,-2.1081,-2.2933,-2.3765,-2.3933,-2.3088,-2.1582,-1.9418,-1.625,-1.429,-1.2472,0.0,0.0,-0.8534,-0.8608,-0.7796,-0.745,-0.8296,-0.7705,-0.7718,0.0,0.0,0.0,0.0,0.0,0.0,-0.8998,0.0,-0.9992,-0.9942,-1.0551,-1.0603,-0.9891,-0.9828,-0.9373,-0.8476,-0.8544,-0.8451,-0.8218,-0.8164,-0.8121,-0.8108,-0.7913,-0.7753,-0.762,-0.762,-0.7605,-0.7605,-0.7605,-0.7605,-0.7605,-0.7605,-0.6969,-0.6106,-0.626,-0.6295,-0.6295,0.0,0.0,0.0,0.0,0.0,0.0,0.0,0.0,0.0,0.0,0.0,0.0,0.0,0.0,0.0,0.0,0.0,0.0,-0.5027,-0.5068,-0.5347,-0.5924,-0.7845,-0.8979,-0.9152,-1.1701,-1.2601,-1.1733,-1.2012,-1.2012,-1.1785,-1.2709,-1.3129,-1.3183,-1.4262,-1.4634,-1.4439,-1.4651,-1.4788,-1.4789,-1.3841,-1.3292,-1.2865,-1.1412,-1.0712,-1.0501,-1.0287,-1.0584,-1.1042,-1.0663,0.0,0.0,0.0,-1.1567,-1.1988,-1.3284,-1.5315,-1.7587,-1.9568,-2.1316,-2.2877,-2.4122,-2.3926,-2.311,-2.1811,-1.9716,-1.7287,-1.4681,-1.2734,-1.1342,0.0,0.0,0.0,-1.0086,-0.8995,0.0,-0.9888,-0.9806,0.0,0.0,0.0,-1.0656,-1.1076,-1.0945,0.0,0.0,-1.0505,-1.0706,-1.1823,-1.1411,-1.1039,-1.0852,-1.0152,-0.968,-0.9442,-0.9462,-0.9173,-0.8567,-0.8508,-0.8431,-0.8309,-0.8218,-0.8096,-0.7955,-0.7709,-0.7605,-0.7605,-0.7605,-0.7605,-0.7605,-0.7605,-0.7424,-0.7128,-0.6638,-0.6355,-0.6218,0.0,0.0,0.0,0.0,0.0,0.0,0.0,0.0,0.0,0.0,0.0,0.0,0.0,0.0,0.0,0.0,0.0,0.0,0.0,-0.5364,-0.559,-0.562,-0.7701,-0.8781,-0.8633,-1.054,-1.0968,-0.9736,-1.0141,-0.9764,-0.8657,-0.9934,-1.0321,-1.0026,-1.087,-1.1455,-1.1823,-1.181,-1.2017,0.0,0.0,-1.1627,-1.151,-1.0526,-1.016,-1.0164,-1.0163,-1.0468,-1.0928,0.0,0.0,-1.2517,-1.2966,-1.3863,-1.4914,-1.5864,0.0,-2.0478,-2.1483,-2.3086,-2.4554,-2.4818,-2.3823,-2.2364,-2.0784,-1.8474,-1.588,-1.3083,-1.1988,0.0,0.0,0.0,0.0,0.0,0.0,0.0,-0.9985,-1.0204,-1.0583,0.0,-1.1881,0.0,-1.1884,-1.1902,-1.2025,0.0,-1.1765,-1.1756,-1.2568,-1.2404,-1.2158,-1.183,-1.1291,-1.0822,-1.0407,-1.03,-1.0015,-0.9603,-0.9229,-0.9035,-0.9049,-0.8499,-0.8243,-0.8216,0.0,-0.7724,-0.7545,-0.7589,-0.7559,-0.7514,-0.7514,-0.7514,-0.755,-0.7862,-0.7485,-0.6715,0.0,0.0,0.0,0.0,0.0,0.0,0.0,0.0,0.0,0.0,0.0,0.0,0.0,0.0,0.0,0.0,0.0,0.0,0.0,0.0,-0.6112,-0.6276,-0.7795,-0.8712,-0.8869,-0.9687,-0.9386,-0.7931,-0.8575,-0.7825,-0.579,-0.7137,-0.7461,-0.6921,-0.7518,-0.8193,-0.8905,-0.8903,-0.9306,-0.994,-1.0056,-1.0094,-1.0094,0.0,-1.0094,-1.0113,-1.0229,-1.0173,-1.0328,0.0,-1.3926,-1.5164,-1.5279,-1.7016,-1.8864,-1.8168,-2.0757,-2.3678,-2.2995,-2.4385,-2.5854,-2.5075,-2.3461,-2.1595,-1.9847,-1.7422,-1.4746,-1.1892,0.0,-1.1761,-1.0711,0.0,-0.9085,-0.9988,0.0,-0.7175,-0.9533,-0.9955,-1.0572,-1.2076,-1.234,-1.244,-1.2482,-1.2389,-1.2669,-1.3459,-1.3202,-1.2948,-1.2828,-1.3407,-1.3432,-1.277,-1.2634,-1.22,-1.1377,-1.1118,-1.0885,-1.0689,-0.9961,-0.966,-0.9699,-0.8698,-0.8319,-0.8428,0.0,0.0,-0.762,-0.7589,-0.7512,-0.7392,-0.7392,-0.7392,-0.7592,-0.9234,-0.8975,-0.7694,0.0,0.0,0.0,0.0,0.0,0.0,0.0,0.0,0.0,0.0,-0.4236,-0.4322,0.0,0.0,0.0,0.0,0.0,0.0,0.0,0.0,0.0,-0.6192,-0.7186,-0.8035,-0.8714,-0.9629,-0.996,-0.9675,-0.9152,-0.9017,-0.9229,-0.8855,-0.8954,-0.9436,-0.8916,-0.8762,-0.8896,-0.8906,-0.8979,-0.9171,-0.9825,-1.0094,-1.0094,-1.0094,0.0,0.0,-1.0925,-1.0289,-0.9601,-1.274,-1.4013,-1.4428,-1.5153,-1.7089,-1.9173,-1.9677,-2.1833,-2.4015,-2.3871,-2.5023,-2.5933,-2.46,-2.2802,-2.079,-1.8565,-1.5529,0.0,0.0,-1.1356,-1.0977,-1.2795,-1.1293,0.0,-1.1629,0.0,0.0,0.0,0.0,-1.2021,0.0,0.0,0.0,0.0,0.0,0.0,0.0,0.0,0.0,-1.4013,-1.3965,-1.381,-1.3517,-1.2805,-1.2411,-1.2356,-1.2084,-1.1362,-1.0142,-0.9882,-0.9455,-0.8911,-0.8639,-0.8571,-0.8645,-0.8486,0.0,-0.8216,-0.7724,-0.7483,-0.7392,-0.7392,-0.7392,-0.7575,-0.8905,-0.943,-0.9341,0.0,0.0,0.0,0.0,0.0,0.0,0.0,-0.3711,-0.3832,-0.3935,-0.4096,-0.4214,-0.4242,-0.434,-0.4415,0.0,0.0,0.0,0.0,0.0,0.0,0.0,-0.8003,-0.8886,-0.9314,-0.9772,0.0,0.0,0.0,-0.9245,-0.8794,0.0,0.0,-0.8774,-0.8386,-0.8482,-0.8899,-0.8899,-0.9152,-0.9556,-0.994,-1.0094,-1.0094,0.0,0.0,0.0,0.0,0.0,-0.9903,-1.198,-1.3015,-1.373,-1.5466,-1.7747,-1.993,-2.0789,-2.3153,-2.5413,-2.4955,-2.5981,-2.6709,-2.4667,-2.2431,-2.0216,-1.8252,0.0,0.0,0.0,-1.2386,-1.2449,-1.3681,0.0,0.0,0.0,0.0,0.0,0.0,0.0,0.0,0.0,0.0,0.0,0.0,0.0,0.0,0.0,0.0,0.0,-1.4386,-1.419,-1.405,-1.3917,-1.3392,-1.3144,-1.3171,-1.293,-1.2465,-1.1756,-1.0865,-1.0203,-0.976,-0.8964,-0.8608,-0.8596,-0.8537,0.0,-0.9209,-0.8892,-0.8319,-0.765,-0.7469,-0.818,-0.9405,-1.001,-1.0354,-1.0392,0.0,0.0,0.0,0.0,0.0,0.0,0.0,-0.3552,-0.3748,-0.3786,-0.3943,-0.4068,-0.4124,-0.4224,-0.4304,0.0,0.0,0.0,0.0,0.0,0.0,0.0,0.0,0.0,0.0,0.0,0.0,0.0,0.0,0.0,0.0,0.0,0.0,0.0,0.0,0.0,-0.9152,-0.9152,-0.9517,0.0,0.0,0.0,0.0,0.0,0.0,0.0,0.0,0.0,-1.0083,-1.1138,-1.1813,-1.2668,-1.5037,-1.7661,-2.0005,-2.0687,-2.3422,-2.6096,-2.5406,-2.6456,-2.7142,-2.4574,-2.2125,-1.9845,-1.8038,-1.5741,0.0,0.0,-1.357,-1.4058,-1.4241,0.0,-1.3045,0.0,0.0,0.0,0.0,0.0,0.0,0.0,0.0,0.0,0.0,0.0,0.0,0.0,0.0,0.0,-1.467,-1.4376,-1.4347,-1.4643,-1.4143,-1.3923,-1.4033,-1.3675,-1.3393,-1.3189,-1.1895,-1.1059,-1.0583,-0.9225,-0.8733,-0.896,-0.8863,0.0,0.0,-1.009,-0.9448,-0.8438,-0.7827,-0.8699,-1.0376,-1.0888,-1.1085,-1.1015,0.0,0.0,0.0,0.0,0.0,0.0,0.0,-0.3429,-0.359,-0.3771,-0.3809,-0.3862,-0.3927,-0.4091,-0.4242,0.0,0.0,0.0,0.0,0.0,0.0,0.0,0.0,0.0,0.0,0.0,0.0,0.0,0.0,0.0,0.0,0.0,0.0,0.0,0.0,0.0,0.0,-0.9998,0.0,0.0,0.0,0.0,0.0,0.0,0.0,0.0,0.0,0.0,0.0,0.0,0.0,-1.0768,-1.2578,-1.5448,-1.8145,-1.8237,0.0,0.0,-2.435,-2.559,-2.6304,-2.3752,-2.1744,-1.9756,-1.7284,0.0,0.0,-1.3902,-1.3958,-1.4234,-1.5039,-1.4465,-1.3618,0.0,0.0,-1.1685,0.0,0.0,0.0,0.0,0.0,0.0,0.0,0.0,0.0,0.0,0.0,0.0,0.0,-1.4678,-1.4968,-1.6425,-1.4912,-1.4421,-1.5154,-1.4234,-1.3368,-1.2566,-1.2314,-1.1433,-1.0036,-0.9042,-0.9289,-1.046,-1.0054,0.0,0.0,-1.0622,-1.0558,-1.0285,-0.8799,-0.8018,-0.8011,-1.0278,-1.1085,-1.1085,0.0,0.0,0.0,0.0,0.0,0.0,-0.3155,-0.3412,-0.3525,-0.3606,-0.3717,-0.3809,-0.3832,-0.3949,-0.4067,-0.4175,0.0,0.0,0.0,0.0,0.0,0.0,0.0,0.0,0.0,0.0,0.0,0.0,0.0,0.0,0.0,0.0,0.0,0.0,0.0,0.0,0.0,0.0,0.0,0.0,0.0,0.0,0.0,0.0,0.0,0.0,0.0,0.0,0.0,0.0,0.0,0.0,-1.0547,-1.246,0.0,0.0,-1.948,-2.2244,-2.3263,-2.4773,-2.5483,-2.2968,-2.0976,-1.9094,-1.7114,0.0,-1.4217,-1.4738,-1.4849,-1.495,-1.5307,-1.5034,-1.4662,-1.4299,-1.3313,0.0,0.0,0.0,0.0,0.0,0.0,0.0,0.0,0.0,0.0,0.0,0.0,0.0,0.0,-1.526,-1.509,-1.5175,-1.4482,-1.4234,-1.4499,-1.4172,-1.3796,-1.3401,-1.2617,-1.1923,-1.129,-1.031,-1.0167,-1.0751,-1.14,0.0,0.0,-1.1967,-1.1967,-1.1885,-1.1252,-1.0706,-1.0406,-1.141,-1.1474,-1.1085,0.0,0.0,0.0,0.0,0.0,-0.2062,-0.3142,-0.3387,-0.3459,-0.3492,-0.3622,-0.3732,-0.3786,-0.384,-0.3913,-0.4034,-0.412,0.0,0.0,0.0,0.0,0.0,0.0,0.0,0.0,0.0,-0.8904,-0.9775,-0.9775,0.0,0.0,0.0,0.0,0.0,0.0,0.0,0.0,0.0,0.0,0.0,0.0,0.0,0.0,0.0,0.0,0.0,0.0,0.0,0.0,0.0,0.0,0.0,0.0,-1.128,-1.3133,0.0,-1.7402,-1.9824,-2.1523,-2.3024,-2.3701,-2.1953,-2.0126,-1.8408,0.0,0.0,-1.4663,-1.5273,-1.5408,-1.5401,-1.5395,-1.5362,-1.5251,-1.4968,-1.4092,-1.3496,-1.355,0.0,0.0,0.0,0.0,0.0,0.0,0.0,0.0,0.0,0.0,0.0,0.0,-1.5526,-1.5283,-1.4629,-1.4077,-1.3899,-1.4046,-1.3877,-1.3846,-1.3991,-1.3151,-1.2704,-1.2603,-1.1593,-1.1233,-1.1466,0.0,0.0,0.0,-1.2811,-1.2811,-1.2811,-1.2811,-1.2639,-1.2359,-1.2236,-1.1863,-1.1429,0.0,0.0,0.0,0.0,0.0,0.0,-0.3142,-0.3306,-0.3349,-0.3484,-0.3505,-0.3574,-0.3771,-0.3808,-0.3832,-0.3898,-0.4019,0.0,0.0,0.0,0.0,0.0,0.0,0.0,0.0,0.0,-0.8833,-0.9698,-0.9698,-0.9732,-0.9798,0.0,0.0,0.0,0.0,0.0,0.0,0.0,0.0,0.0,0.0,0.0,0.0,0.0,0.0,0.0,0.0,0.0,0.0,0.0,0.0,0.0,0.0,-1.2688,-1.2714,-1.2803,-1.4687,-1.7129,-1.8867,-1.998,-2.0644,-2.0625,-1.9297,-1.7773,0.0,0.0,-1.5391,-1.5391,-1.5391,-1.541,-1.5398,-1.5394,-1.5096,-1.416,-1.4715,-1.4662,0.0,0.0,0.0,0.0,0.0,0.0,0.0,0.0,0.0,0.0,0.0,0.0,0.0,-1.5323,-1.5723,-1.5587,-1.3987,-1.3455,-1.4198,-1.3424,-1.3344,-1.3991,-1.3995,-1.3877,-1.3646,-1.258,-1.2487,0.0,0.0,0.0,0.0,-1.2811,-1.2811,-1.2811,-1.2811,-1.2811,-1.2754,-1.2359,-1.221,-1.219,0.0,0.0,0.0,0.0,0.0,0.0,0.0,-0.322,-0.3203,-0.334,-0.345,-0.3541,-0.365,-0.3741,-0.3832,-0.3898,-0.3941,0.0,0.0,0.0,0.0,0.0,0.0,0.0,0.0,-0.787,-0.8739,-0.9559,-0.9649,-0.9713,-0.9725,-0.9725,-0.9775,0.0,0.0,0.0,0.0,0.0,0.0,0.0,0.0,0.0,0.0,0.0,0.0,0.0,0.0,0.0,0.0,0.0,0.0,0.0,0.0,0.0,0.0,-1.2773,-1.3812,0.0,-1.6325,-1.7265,-1.7793,-1.7187,-1.6172,-1.5254,-1.498,0.0,-1.4023,-1.5156,-1.5391,-1.5391,-1.5409,-1.5408,-1.5291,-1.5016,-1.5181,-1.5163,0.0,0.0,0.0,0.0,0.0,0.0,0.0,0.0,0.0,0.0,0.0,0.0,0.0,-1.4862,-1.4849,-1.473,-1.4197,-1.4028,-1.426,-1.3473,-1.3161,-1.3382,-1.3159,-1.2538,-1.1641,-1.1249,0.0,0.0,0.0,0.0,0.0,-1.2811,-1.2811,-1.2811,-1.2811,-1.2811,-1.2776,-1.2659,-1.2439,-1.221,0.0,0.0,0.0,0.0,0.0,0.0,0.0,-0.3115,-0.3203,-0.3298,-0.3378,-0.3479,-0.3589,-0.3673,-0.378,-0.3898,-0.3906,0.0,0.0,0.0,0.0,0.0,0.0,0.0,-0.6882,-0.7522,-0.8401,-0.95,-0.9633,-0.9698,-0.9698,-0.9698,-0.9728,-0.9768,-0.9768,0.0,0.0,0.0,0.0,0.0,0.0,0.0,-1.0664,0.0,0.0,0.0,0.0,0.0,0.0,0.0,0.0,0.0,0.0,0.0,0.0,0.0,-1.3156,-1.369,-1.4261,-1.4819,-1.5175,-1.496,-1.4277,0.0,0.0,-1.3711,-1.373,-1.5117,-1.5391,-1.5391,-1.5391,-1.5391,-1.5391,-1.5391,-1.5408,0.0,0.0,0.0,0.0,0.0,0.0,0.0,0.0,0.0,0.0,0.0,0.0,0.0,0.0,0.0,-1.4549,-1.4381,-1.4041,-1.4029,-1.4374,-1.3527,-1.3088,-1.3052,-1.2849,-1.2322,-1.1535,-1.1412,0.0,0.0,0.0,0.0,0.0,-1.298,-1.2942,-1.2904,-1.2904,-1.2867,-1.2811,-1.2811,-1.2639,-1.2403,0.0,0.0,0.0,0.0,0.0,0.0,0.0,-0.3026,-0.3281,-0.3306,-0.3306,-0.3369,-0.3573,-0.3597,-0.3675,-0.3877,0.0,0.0,0.0,0.0,0.0,0.0,0.0,0.0,-0.6849,-0.712,-0.7975,-0.9483,-0.9617,-0.9691,-0.9691,-0.9698,-0.9698,-0.9698,-0.9698,-0.9706,-0.9713,-0.9782,-0.9881,-1.0044,-1.0803,-1.1135,0.0,0.0,0.0,0.0,0.0,0.0,0.0,0.0,0.0,0.0,0.0,0.0,0.0,0.0,0.0,0.0,0.0,-1.2655,-1.2883,0.0,0.0,0.0,0.0,-1.4062,0.0,-1.5215,-1.5391,-1.5391,-1.5391,-1.5391,-1.5391,-1.5391,-1.5391,0.0,0.0,0.0,0.0,0.0,0.0,0.0,0.0,0.0,0.0,0.0,0.0,0.0,0.0,0.0,-1.4719,-1.4545,-1.3632,-1.3561,-1.4476,-1.352,-1.2992,-1.2909,-1.2861,-1.2794,-1.2727,-1.2603,0.0,0.0,0.0,0.0,0.0,-1.3227,-1.3108,-1.3102,-1.3102,-1.2977,-1.2811,-1.2811,-1.2811,-1.2754,0.0,0.0,0.0,0.0,0.0,0.0,0.0,0.0,0.0,0.0,-0.3306,-0.3357,-0.3503,-0.3533,-0.36,0.0,0.0,0.0,0.0,0.0,0.0,0.0,0.0,0.0,-0.6749,-0.7978,-0.8819,-0.9189,-0.943,-0.9542,-0.9542,-0.9649,-0.9698,-0.9698,-0.9698,-0.9717,-0.9782,-0.9784,-1.0193,-1.0841,-1.1022,-1.1467,0.0,0.0,0.0,0.0,-1.3512,-1.3605,0.0,0.0,0.0,0.0,0.0,0.0,0.0,0.0,-1.1761,-1.0714,-1.0737,0.0,-1.1683,-1.1221,-1.1974,-1.2861,0.0,0.0,0.0,0.0,0.0,-1.5391,-1.5391,-1.5391,-1.5391,-1.5391,-1.5391,0.0,0.0,0.0,0.0,0.0,0.0,0.0,0.0,0.0,0.0,0.0,0.0,0.0,0.0,0.0,-1.4885,-1.4883,-1.3878,-1.3666,-1.4337,-1.3008,-1.2259,-1.2064,-1.147,-1.1154,-1.1151,-1.1725,0.0,0.0,0.0,0.0,-1.3586,-1.2669,-1.2635,-1.3192,-1.3192,-1.3033,-1.2811,-1.2811,-1.2811,-1.2792,0.0,0.0,0.0,0.0,0.0,0.0,0.0,0.0,0.0,0.0,0.0,0.0,0.0,0.0,0.0,0.0,0.0,0.0,0.0,0.0,0.0,0.0,0.0,-0.6961,-0.7059,-0.799,-0.8826,-0.9604,-0.9903,-1.0033,-1.0023,-1.0557,-1.059,-1.0241,-1.0241,-1.0273,-1.0294,-1.0294,-1.0584,-1.1068,-1.1812,0.0,0.0,0.0,0.0,0.0,-1.4074,-1.3902,0.0,-1.4197,-1.4125,-1.4002,0.0,0.0,0.0,0.0,-1.1757,-1.0617,-1.021,-1.0766,-1.133,-1.0867,-1.1764,-1.2855,-1.3255,0.0,0.0,0.0,0.0,-1.5408,-1.5391,-1.5078,-1.4921,-1.5332,0.0,0.0,0.0,0.0,0.0,0.0,0.0,0.0,0.0,0.0,0.0,0.0,0.0,0.0,0.0,0.0,-1.4944,-1.4952,-1.4055,-1.3719,-1.3985,-1.273,-1.1856,-1.1386,-1.0911,-1.0683,-1.0664,-1.1065,-1.1607,0.0,0.0,0.0,-1.3281,-1.3,-1.3106,-1.3461,-1.3412,-1.3278,-1.314,-1.2887,-1.2811,-1.2811,0.0,0.0,0.0,0.0,0.0,0.0,0.0,0.0,0.0,0.0,0.0,0.0,0.0,0.0,0.0,0.0,0.0,0.0,0.0,0.0,0.0,0.0,-0.6415,-0.6805,-0.7481,-0.7727,-0.8614,-1.0168,-1.0472,-1.0667,-1.0772,-1.1658,-1.17,-1.1077,-1.1077,-1.1077,-1.1077,-1.0948,-1.104,-1.137,-1.2619,0.0,0.0,0.0,0.0,0.0,0.0,0.0,0.0,-1.4715,-1.4558,-1.415,-1.4947,0.0,0.0,0.0,0.0,0.0,-1.0344,-1.0826,-1.157,-1.1423,-1.2268,-1.3267,-1.3856,0.0,0.0,0.0,0.0,0.0,-1.5234,-1.4706,0.0,0.0,0.0,0.0,0.0,0.0,0.0,0.0,0.0,0.0,0.0,0.0,0.0,0.0,0.0,0.0,0.0,0.0,0.0,-1.4749,-1.4008,-1.3489,-1.3247,-1.2379,-1.1589,-1.0898,-1.083,-1.0776,-1.0731,-1.0781,-1.1244,0.0,0.0,0.0,-1.3046,-1.368,-1.39,-1.3838,-1.3731,-1.3652,-1.3524,-1.3087,-1.2869,-1.2811,0.0,0.0,0.0,0.0,0.0,0.0,0.0,0.0,0.0,0.0,0.0,0.0,0.0,0.0,0.0,0.0,0.0,0.0,0.0,0.0,0.0,-0.7613,-0.773,-0.7714,-0.7497,-0.8182,-0.9033,-1.0039,-1.0204,-1.0668,-1.144,-1.1718,-1.1874,-1.1911,-1.1911,-1.1911,-1.1875,-1.1187,-1.1691,-1.2894,-1.2462,0.0,0.0,0.0,0.0,0.0,0.0,0.0,0.0,-1.4949,-1.4986,-1.501,-1.5151,0.0,0.0,0.0,0.0,0.0,-1.0344,-1.1277,-1.2312,-1.1586,-1.3163,-1.4744,-1.4132,-1.4615,0.0,0.0,0.0,0.0,0.0,0.0,0.0,0.0,0.0,0.0,0.0,0.0,0.0,0.0,0.0,0.0,0.0,0.0,0.0,0.0,0.0,0.0,0.0,0.0,0.0,-1.3984,-1.3195,-1.2414,-1.1667,-1.1395,-1.1125,-1.0891,-1.0892,-1.0857,-1.0803,-1.1478,-1.2162,0.0,0.0,-1.3308,-1.3908,-1.4019,-1.4072,-1.404,-1.4026,-1.3851,-1.3589,-1.3509,-1.3192,-1.2811,0.0,0.0,0.0,0.0,0.0,0.0,0.0,0.0,0.0,0.0,0.0,0.0,0.0,0.0,0.0,0.0,0.0,0.0,0.0,0.0,-0.7694,-0.7885,-0.797,-0.8178,-0.8566,-0.9038,-0.9725,-1.0588,-1.0753,-1.0859,-1.0866,-1.1542,-1.2339,-1.3211,-1.289,-1.2747,-1.2729,-1.2352,-1.2619,-1.3317,0.0,0.0,0.0,0.0,0.0,0.0,0.0,0.0,0.0,0.0,-1.5042,-1.5101,-1.5177,0.0,0.0,0.0,0.0,0.0,-1.021,-1.1374,-1.2494,-1.1617,-1.3369,-1.5209,-1.4782,-1.5043,0.0,0.0,0.0,0.0,0.0,0.0,0.0,0.0,0.0,0.0,0.0,0.0,0.0,0.0,0.0,0.0,0.0,0.0,0.0,0.0,0.0,0.0,0.0,0.0,0.0,0.0,-1.2336,-1.1714,-1.1296,-1.0774,-1.0684,-1.1065,-1.1024,-1.1227,-1.1632,-1.1921,-1.2212,-1.2542,0.0,-1.3268,-1.3584,-1.3997,-1.4119,-1.41,-1.41,-1.4012,-1.3865,-1.3865,-1.3605,-1.3227,0.0,0.0,0.0,0.0,0.0,0.0,0.0,0.0,0.0,0.0,0.0,0.0,0.0,0.0,0.0,0.0,0.0,0.0,0.0,-0.7394,-0.762,-0.7885,-0.8093,-0.8586,-0.9481,-0.9493,-1.0001,-1.1096,-1.1084,-1.0971,-1.0751,-1.186,-1.3022,-1.4183,-1.3719,-1.3541,-1.3574,-1.3372,-1.3409,-1.3629,0.0,0.0,0.0,0.0,0.0,0.0,0.0,0.0,0.0,0.0,0.0,0.0,0.0,0.0,0.0,-1.2668,-1.1575,-1.0332,-1.0148,-1.1361,-1.2539,-1.1875,-1.3515,-1.5232,-1.5037,-1.516,0.0,0.0,0.0,0.0,0.0,0.0,0.0,0.0,0.0,0.0,0.0,0.0,0.0,0.0,0.0,0.0,0.0,0.0,0.0,0.0,0.0,0.0,0.0,0.0,0.0,0.0,-1.1661,-1.1235,-1.1028,-1.0355,-1.0315,-1.0917,-1.1055,-1.1448,-1.2044,-1.2126,-1.2261,-1.2427,-1.2802,-1.311,-1.3401,-1.3726,-1.3938,-1.41,-1.41,-1.41,-1.41,-1.41,-1.388,-1.3605,0.0,0.0,0.0,0.0,0.0,0.0,0.0,0.0,0.0,0.0,0.0,0.0,0.0,0.0,0.0,0.0,0.0,0.0,0.0,-0.7211,-0.7425,-0.7885,-0.8621,-0.9171,-0.9495,-0.8856,-0.9353,-1.1096,-1.0432,-1.0864,-1.2352,-1.3313,-1.3917,-1.4201,-1.4147,-1.4247,-1.4371,-1.3629,-1.3739,-1.4352,-1.3666,0.0,0.0,0.0,0.0,0.0,0.0,0.0,0.0,0.0,0.0,0.0,0.0,0.0,-1.3391,-1.2706,-1.1904,-1.1057,-1.0293,-1.1374,-1.2687,-1.2613,-1.3923,-1.5008,-1.4257,-1.4729,0.0,-1.5391,0.0,0.0,0.0,0.0,0.0,0.0,0.0,0.0,0.0,0.0,0.0,0.0,0.0,0.0,0.0,0.0,0.0,0.0,0.0,0.0,0.0,0.0,0.0,-1.1509,-1.1431,-1.1003,-1.0183,-1.0112,-1.0097,-1.0095,-1.0834,-1.1213,-1.1294,-1.2048,-1.2724,-1.3281,-1.2567,-1.3015,-1.4131,-1.3201,-1.3316,-1.41,-1.41,-1.41,-1.41,-1.41,-1.388,-1.3605,0.0,0.0,0.0,0.0,0.0,0.0,0.0,0.0,0.0,0.0,0.0,0.0,0.0,0.0,0.0,0.0,0.0,0.0,0.0,-0.713,-0.7363,-0.7694,-0.8514,-0.9359,-1.0171,-0.9868,-1.0103,-1.0897,-1.0289,-1.056,-1.1647,-1.2713,-1.3494,-1.4024,-1.427,-1.4441,-1.4469,-1.4187,-1.4224,-1.4469,-1.4169,-1.4224,0.0,0.0,0.0,0.0,0.0,0.0,0.0,0.0,-1.4776,-1.4701,-1.4235,-1.3489,-1.264,-1.197,-1.1186,-1.0496,-1.0186,-1.1369,-1.2455,-1.1405,-1.3199,-1.5143,-1.4912,-1.5539,-1.6015,-1.5503,-1.5839,0.0,0.0,0.0,0.0,0.0,0.0,0.0,0.0,0.0,0.0,0.0,0.0,0.0,0.0,0.0,0.0,0.0,0.0,0.0,0.0,0.0,0.0,-1.0676,-1.0644,-1.048,-1.0101,-1.0098,-1.009,-1.0082,-1.1388,-1.1995,-1.1984,-1.3338,-1.3497,-1.2757,-1.3503,-1.3504,-1.3049,-1.364,-1.3632,-1.328,-1.3873,-1.41,-1.41,-1.41,-1.4026,-1.388,0.0,0.0,0.0,0.0,0.0,0.0,0.0,0.0,0.0,0.0,0.0,0.0,0.0,0.0,0.0,0.0,0.0,0.0,-0.6861,-0.7029,-0.7254,-0.7575,-0.8357,-0.9273,-1.0349,-1.0415,-1.0688,-1.1263,-1.091,-1.0978,-1.1499,-1.2526,-1.3278,-1.381,-1.4162,-1.435,-1.4399,-1.4476,-1.4488,-1.4488,-1.4488,-1.4488,0.0,0.0,0.0,0.0,0.0,0.0,0.0,0.0,-1.4311,-1.383,-1.3603,-1.2786,-1.1817,-1.1388,-1.0708,-1.0131,-1.0436,-1.1584,-1.2497,-1.1586,-1.3297,-1.524,-1.5332,-1.6044,-1.6506,-1.5934,-1.6289,0.0,0.0,0.0,0.0,0.0,0.0,0.0,0.0,0.0,0.0,0.0,0.0,0.0,0.0,0.0,0.0,0.0,0.0,0.0,0.0,0.0,0.0,0.0,-1.0222,-1.0212,-1.0169,-1.0141,-1.0128,-1.015,-1.1517,-1.2123,-1.2109,-1.3493,-1.3481,-1.2372,-1.3282,-1.3427,-1.3021,-1.3086,-1.2613,-1.1983,-1.3642,-1.4203,-1.41,-1.41,-1.41,-1.4072,0.0,0.0,0.0,0.0,0.0,0.0,0.0,0.0,0.0,0.0,0.0,0.0,0.0,0.0,0.0,0.0,0.0,0.0,-0.6861,-0.6908,-0.7107,-0.7575,-0.8181,-0.895,-0.9875,-1.0112,-1.0897,-1.2297,-1.2297,-1.2297,-1.2314,-1.3057,-1.3478,-1.3617,-1.3795,-1.4011,-1.4201,-1.4411,-1.4506,-1.4488,-1.4488,-1.4488,-1.4488,0.0,0.0,0.0,0.0,0.0,0.0,0.0,-1.3416,-1.2261,-1.3114,-1.2278,-1.1013,-1.1144,-1.0619,-1.0202,-1.1143,-1.2045,-1.2892,-1.369,0.0,0.0,-1.5265,-1.597,-1.6617,-1.6701,-1.6715,-1.6719,-1.6719,0.0,0.0,0.0,0.0,0.0,0.0,0.0,0.0,0.0,0.0,0.0,0.0,0.0,0.0,0.0,0.0,0.0,0.0,0.0,0.0,0.0,-1.0295,-1.0293,-1.0308,-1.0222,-1.0207,-1.0215,-1.1003,-1.1345,-1.1329,-1.2123,-1.2468,-1.2324,-1.1559,-1.2569,-1.4504,-1.1234,-0.9925,-1.027,-1.3458,-1.4453,-1.4114,-1.4114,-1.41,-1.41,0.0,0.0,0.0,0.0,0.0,0.0,0.0,0.0,0.0,0.0,0.0,0.0,0.0,0.0,0.0,0.0,0.0,0.0,-0.6672,-0.6963,-0.7162,-0.7303,-0.8262,-0.9207,-1.0081,-1.1278,-1.1688,-1.1306,-1.1981,-1.2297,-1.2314,-1.3151,-1.3555,-1.3617,-1.3795,-1.4011,-1.4201,-1.427,-1.4375,-1.4488,-1.4488,-1.4488,-1.4488,0.0,0.0,0.0,0.0,0.0,0.0,0.0,0.0,0.0,-1.1921,-1.1346,-1.0912,-1.0433,-1.0155,-1.0202,-1.1143,-1.2045,0.0,-1.3007,0.0,0.0,0.0,-1.5467,0.0,0.0,-1.7546,-1.7551,0.0,0.0,0.0,0.0,0.0,0.0,0.0,0.0,0.0,0.0,0.0,0.0,0.0,0.0,0.0,0.0,0.0,0.0,0.0,0.0,0.0,0.0,-1.0303,-1.0299,-1.0293,-1.0271,-1.0266,-1.0279,-1.0454,-1.0528,-1.0502,-1.1872,-1.1856,-1.0766,-1.1699,-1.1844,-1.1345,-1.0326,-1.1326,-1.3577,-1.4391,-1.4629,-1.4494,-1.4203,-1.41,-1.41,0.0,0.0,0.0,0.0,0.0,0.0,0.0,0.0,0.0,0.0,-0.5108,-0.5146,0.0,0.0,0.0,0.0,0.0,0.0,0.0,-0.6815,-0.7048,-0.7195,-0.8118,-0.9244,-1.0574,-1.181,-1.2173,-1.1581,-1.2257,-1.2639,-1.2753,-1.3256,-1.3526,-1.3524,-1.3783,-1.3969,-1.4078,-1.4257,-1.4387,-1.4488,-1.4488,-1.4488,-1.4469,0.0,0.0,0.0,0.0,0.0,0.0,0.0,0.0,0.0,-1.1137,-1.0743,-1.0438,-1.0019,-1.0154,-1.0635,-1.1542,-1.246,0.0,-1.3536,-1.4403,-1.5151,-1.4978,0.0,0.0,0.0,0.0,0.0,0.0,0.0,0.0,0.0,0.0,0.0,0.0,0.0,0.0,0.0,0.0,0.0,0.0,0.0,0.0,0.0,0.0,0.0,0.0,0.0,0.0,0.0,-1.0305,-1.0303,-1.0299,-1.0302,-1.0301,-1.0296,-1.0259,-1.0219,-1.0213,-1.1124,-1.1005,-1.0095,-1.1084,-1.0922,-1.0003,-0.9946,-1.1938,-1.499,-1.4869,-1.4764,-1.4661,-1.4429,-1.4331,-1.4319,0.0,0.0,0.0,0.0,0.0,0.0,0.0,0.0,0.0,0.0,-0.5108,-0.5195,0.0,0.0,0.0,0.0,0.0,0.0,0.0,-0.6633,-0.6841,-0.7262,-0.8027,-0.9297,-1.1126,-1.1814,-1.2291,-1.2572,-1.2869,-1.3121,-1.3363,-1.3379,-1.3396,-1.3413,-1.3711,-1.387,-1.3881,-1.4197,-1.4331,-1.4343,-1.4281,-1.4245,-1.4171,-1.3442,0.0,0.0,0.0,0.0,0.0,0.0,0.0,0.0,-1.0647,-1.0428,-0.9891,-0.99,-1.0514,-1.138,-1.2194,0.0,0.0,-1.4811,-1.5101,0.0,0.0,0.0,0.0,0.0,0.0,0.0,0.0,0.0,0.0,0.0,0.0,0.0,0.0,0.0,0.0,0.0,0.0,0.0,0.0,0.0,0.0,0.0,0.0,0.0,0.0,0.0,0.0,0.0,-1.0305,-1.0305,-1.0305,-1.0305,-1.0305,0.0,-1.0299,-1.0295,-1.0308,-1.0173,-1.0102,-1.009,-1.0044,-1.0014,-1.0005,-0.9998,-1.1984,-1.4998,-1.4998,-1.4896,-1.4732,-1.4712,-1.4701,-1.464,0.0,0.0,0.0,0.0,0.0,0.0,0.0,0.0,0.0,0.0,0.0,0.0,0.0,0.0,0.0,0.0,0.0,0.0,0.0,-0.6898,-0.7349,-0.7962,-0.943,-1.0441,-1.0881,-1.1544,-1.2024,-1.2291,-1.2776,-1.3031,-1.3085,-1.3311,-1.3396,-1.3396,-1.3479,-1.3573,-1.3626,-1.3134,-1.301,-1.3116,-1.2537,-1.2297,-1.2291,-1.2234,-1.1802,0.0,0.0,0.0,0.0,0.0,0.0,0.0,-1.0126,-1.0292,-1.0539,-0.9977,-1.0848,-1.2036,-1.2376,-1.3125,0.0,0.0,-1.5177,0.0,0.0,0.0,0.0,0.0,0.0,0.0,0.0,0.0,0.0,0.0,0.0,0.0,0.0,0.0,0.0,0.0,0.0,0.0,0.0,0.0,0.0,0.0,0.0,0.0,0.0,0.0,0.0,-1.0305,-1.0305,-1.0305,-1.0305,-1.0305,-1.0305,0.0,-1.0304,-1.0302,-1.0297,-1.0215,-1.0145,-1.0094,-1.0086,-1.0058,-0.9998,-0.9995,-1.1984,-1.4998,-1.4998,-1.4974,-1.4923,-1.4754,-1.4701,-1.4691,0.0,0.0,0.0,0.0,0.0,0.0,0.0,0.0,0.0,0.0,0.0,0.0,0.0,0.0,0.0,0.0,0.0,0.0,0.0,0.0,-0.8123,-0.903,-1.0051,-1.0825,-1.126,-1.1625,-1.1869,-1.2003,-1.2904,-1.323,-1.3013,-1.326,-1.3396,-1.3396,-1.3462,-1.3524,-1.3565,-1.292,-1.2697,-1.2748,-1.2072,-1.2039,-1.2349,-1.2084,-1.1703,-1.1246,-1.0986,0.0,0.0,0.0,0.0,0.0,0.0,0.0,-1.0323,-1.0334,-1.0914,-1.1679,-1.2172,0.0,0.0,-1.4858,0.0,0.0,0.0,0.0,0.0,0.0,0.0,0.0,0.0,0.0,0.0,0.0,0.0,0.0,0.0,0.0,0.0,0.0,0.0,0.0,0.0,0.0,0.0,0.0,0.0,0.0,0.0,-1.0508,-1.0488,-1.0859,-1.0508,-1.0292,-1.0292,-1.0308,-1.0305,-1.0305,-1.0305,-1.0302,-1.0295,-1.0232,-1.0185,-1.0154,-1.0157,-1.0131,-1.009,-1.0102,-1.2028,-1.4998,-1.4998,-1.4998,-1.4793,-1.3051,-1.3384,-1.4701,0.0,0.0,0.0,0.0,0.0,0.0,0.0,0.0,0.0,0.0,0.0,0.0,0.0,0.0,0.0,0.0,0.0,0.0,0.0,0.0,0.0,-1.003,-1.0427,-1.1,-1.179,-1.1805,-1.185,-1.1969,-1.3021,-1.3367,-1.3104,-1.3562,-1.3718,-1.3599,-1.3835,-1.3796,-1.3536,-1.2949,-1.2556,-1.2282,-1.177,-1.1985,-1.2582,-1.2178,-1.1895,-1.1691,-1.126,-1.0548,-0.9841,-1.006,0.0,0.0,0.0,0.0,-1.0396,-1.0783,-1.1095,-1.1397,-1.182,0.0,-1.3762,-1.4753,0.0,0.0,0.0,0.0,0.0,0.0,0.0,0.0,0.0,0.0,0.0,0.0,0.0,0.0,0.0,0.0,0.0,0.0,0.0,0.0,0.0,0.0,0.0,0.0,0.0,0.0,-1.1235,-1.0826,-1.0787,-1.1254,-1.064,-1.0448,-1.0721,-1.0447,-1.0501,-1.0875,-1.0638,-1.0458,-1.0292,-1.0243,-1.0215,-1.0202,-1.0198,-1.0195,-1.0195,-1.0195,-1.1774,-1.4235,-1.4787,-1.4657,-1.3853,-1.1609,-1.2098,-1.3941,0.0,0.0,0.0,0.0,0.0,0.0,0.0,0.0,0.0,0.0,-0.6357,0.0,0.0,0.0,0.0,0.0,0.0,0.0,0.0,0.0,0.0,-1.0342,-1.116,-1.1672,-1.1805,-1.1805,-1.2074,-1.2666,-1.2712,-1.3011,-1.356,-1.4758,-1.4969,-1.4394,-1.5041,-1.4618,-1.3379,-1.2663,-1.1605,-1.0361,-1.0284,-1.0423,-1.0755,-1.1405,-1.1434,-1.118,-1.1735,-1.1553,-1.1123,-1.1618,-1.1783,0.0,0.0,0.0,-1.2564,-1.1278,-1.1893,-1.2722,0.0,0.0,-1.3804,0.0,0.0,0.0,0.0,0.0,0.0,0.0,0.0,0.0,0.0,0.0,0.0,0.0,0.0,0.0,0.0,0.0,0.0,0.0,0.0,0.0,0.0,0.0,0.0,0.0,0.0,0.0,-1.0378,-1.1203,-1.1279,-1.0392,-1.0322,-1.1008,-1.2449,-1.1035,-1.1287,-1.3222,-1.2009,-1.1028,-1.0303,-1.0299,-1.0247,-1.0195,-1.0195,-1.0195,-1.0195,-1.0195,-1.0454,-1.1118,-1.3913,-1.3235,-1.0954,-1.3417,-1.273,-1.0937,0.0,0.0,0.0,0.0,0.0,0.0,0.0,0.0,0.0,0.0,0.0,-0.6963,0.0,0.0,0.0,0.0,0.0,0.0,0.0,0.0,0.0,-1.0377,-1.0962,-1.137,-1.1512,-1.1703,-1.1939,-1.2224,-1.2743,-1.2931,-1.2864,-1.457,-1.5054,-1.4494,-1.4411,-1.4225,-1.3938,-1.2787,-1.1908,-1.1262,-1.0998,-1.1222,-1.1765,-1.2345,-1.2405,-1.2234,-1.2633,-1.2285,-1.1688,-1.2002,-1.2095,-1.2187,-1.2637,0.0,0.0,0.0,-1.2113,0.0,-1.1698,-1.2466,-1.3559,0.0,0.0,0.0,0.0,0.0,0.0,0.0,0.0,0.0,0.0,0.0,0.0,0.0,0.0,0.0,0.0,0.0,0.0,0.0,0.0,0.0,0.0,0.0,0.0,0.0,0.0,-1.0924,-1.0926,-1.1405,-1.1655,-1.1596,-1.1339,-1.156,-1.2299,-1.1892,-1.1731,-1.1796,-1.1621,-1.1112,-1.0303,-1.0301,-1.0272,-1.025,-1.0228,-1.0202,-1.0195,-1.0195,-1.0731,-1.159,-1.2118,-1.25,-1.2761,-1.2344,-1.2437,-1.2964,0.0,0.0,0.0,0.0,0.0,0.0,0.0,0.0,0.0,0.0,0.0,0.0,0.0,0.0,0.0,0.0,0.0,0.0,0.0,0.0,0.0,-1.0508,-1.1011,-1.1391,-1.1678,-1.1933,-1.2134,-1.2314,-1.2805,-1.2826,-1.2489,-1.3962,-1.4549,-1.4387,-1.4089,-1.4056,-1.4157,-1.3041,-1.2348,-1.1989,-1.1864,-1.2224,-1.285,-1.3345,-1.3504,-1.3464,-1.356,-1.3154,-1.2578,-1.267,-1.2719,-1.2811,-1.3427,-1.3178,0.0,0.0,0.0,0.0,0.0,0.0,-1.3299,0.0,0.0,0.0,0.0,0.0,0.0,0.0,0.0,0.0,0.0,0.0,0.0,0.0,0.0,0.0,0.0,0.0,0.0,0.0,0.0,0.0,0.0,0.0,0.0,0.0,0.0,-1.1486,-1.1192,-1.1722,-1.2303,-1.2908,-1.2403,-1.2239,-1.2433,-1.2901,-1.2388,-1.0934,-1.1345,-1.1191,-1.06,-1.0382,-1.0297,-1.0307,-1.0259,-1.0211,-1.0202,-1.0198,-1.0918,-1.1862,-1.0676,-1.1663,-1.3526,-1.1446,-1.2553,-1.5064,0.0,0.0,0.0,0.0,0.0,0.0,0.0,0.0,0.0,0.0,0.0,0.0,-0.8761,-0.8767,-0.8931,-0.9369,-0.9408,0.0,0.0,0.0,0.0,-1.0873,-1.1741,0.0,-1.2694,-1.2732,-1.3047,-1.3705,-1.2717,-1.2561,-1.3149,-1.3125,-1.3477,-1.4159,-1.5076,-1.4716,-1.3447,-1.3379,-1.2499,-1.1242,-1.2106,-1.2595,-1.289,-1.3808,-1.4265,-1.4433,-1.4433,-1.4414,-1.4378,-1.4359,-1.4378,-1.4378,-1.4414,-1.4396,-1.4242,0.0,0.0,0.0,0.0,-1.2876,0.0,0.0,0.0,0.0,0.0,0.0,0.0,0.0,0.0,0.0,0.0,0.0,0.0,0.0,0.0,0.0,0.0,0.0,0.0,0.0,0.0,0.0,0.0,0.0,0.0,0.0,0.0,-1.1411,-1.0334,-1.2312,-1.3512,-1.3543,-1.3036,-1.3124,-1.3884,-1.3981,-1.3576,-1.2654,-1.1931,-1.1543,-1.1406,-1.0641,-1.0303,-1.0299,-1.0307,-1.0261,-1.0201,-1.0209,-1.0256,-1.0326,-1.0232,-1.0307,-1.0626,-1.2042,-1.3715,-1.525,0.0,0.0,0.0,0.0,0.0,0.0,0.0,0.0,0.0,0.0,0.0,0.0,0.0,-0.9833,-1.0138,-0.9932,-0.9788,0.0,0.0,0.0,0.0,-1.0755,-1.1308,-1.1767,-1.2099,-1.2298,-1.2467,-1.2523,-1.2117,-1.2076,-1.2288,-1.2421,-1.2716,-1.317,-1.386,-1.4157,-1.4073,-1.3599,-1.3074,-1.2666,-1.3741,-1.4217,-1.4392,-1.551,0.0,0.0,0.0,0.0,0.0,-1.4526,-1.4387,-1.4476,-1.435,-1.4307,-1.4162,-1.3345,-1.2986,0.0,0.0,0.0,0.0,0.0,0.0,0.0,0.0,0.0,0.0,0.0,0.0,0.0,0.0,0.0,0.0,0.0,0.0,0.0,0.0,0.0,0.0,0.0,0.0,0.0,0.0,0.0,0.0,0.0,0.0,0.0,-1.1362,-1.292,-1.3775,-1.3616,-1.4128,-1.4271,-1.4,-1.4589,-1.4166,-1.2803,-1.303,-1.2558,-1.1499,-1.1191,-1.078,-1.031,-1.0303,-1.0295,-1.0266,-1.022,-1.0209,-1.0198,-1.0252,-1.1541,-1.3219,-1.1673,-1.2854,-1.4915,0.0,0.0,0.0,0.0,0.0,0.0,0.0,0.0,0.0,-0.9232,0.0,0.0,0.0,0.0,-1.1052,-1.0699,-1.0532,-1.047,-1.047,-1.047,-1.0676,-1.1115,-1.1577,-1.1925,-1.2217,-1.2411,-1.241,-1.2134,-1.191,-1.1805,-1.1805,-1.2169,-1.2416,-1.263,-1.3424,-1.3904,-1.4107,-1.387,-1.3768,-1.3871,0.0,0.0,-1.5602,0.0,0.0,0.0,0.0,0.0,0.0,0.0,0.0,0.0,-1.4681,-1.4378,-1.4015,-1.3545,-1.3443,0.0,-1.367,0.0,0.0,0.0,0.0,0.0,0.0,0.0,0.0,0.0,0.0,0.0,0.0,0.0,0.0,0.0,0.0,0.0,0.0,0.0,0.0,0.0,0.0,0.0,0.0,0.0,0.0,0.0,0.0,0.0,-1.2532,-1.3696,-1.4318,-1.4144,-1.4893,-1.5013,-1.4448,-1.4709,-1.4457,-1.3646,-1.3616,-1.3019,-1.1935,-1.1945,-1.1345,-1.0312,-1.0585,-1.054,-1.0295,-1.0251,-1.0224,-1.0293,-1.09,-1.2129,-1.3343,-1.1877,-1.2634,-1.4063,0.0,0.0,0.0,0.0,0.0,0.0,0.0,0.0,-1.0235,-1.0235,0.0,0.0,0.0,0.0,0.0,-1.1613,-1.16,-1.1588,-1.1588,-1.1575,-1.17,-1.1997,0.0,0.0,-1.3154,-1.3166,-1.3031,-1.2771,-1.2119,-1.1805,-1.1811,-1.2336,-1.2607,-1.2675,-1.3887,-1.4055,-1.3464,-1.4191,-1.4477,-1.4566,0.0,-1.6267,-1.6317,0.0,0.0,0.0,-1.6945,-1.6945,0.0,0.0,0.0,0.0,0.0,-1.4705,-1.3955,-1.4149,-1.4051,0.0,0.0,0.0,0.0,0.0,0.0,0.0,0.0,0.0,0.0,0.0,0.0,0.0,0.0,0.0,0.0,0.0,0.0,0.0,0.0,0.0,0.0,0.0,0.0,0.0,0.0,0.0,0.0,0.0,0.0,-1.4738,-1.3701,-1.4627,-1.5201,-1.5201,-1.5251,-1.5294,-1.5299,-1.4467,-1.4461,-1.5278,-1.3646,-1.2853,-1.2812,-1.2803,-1.1917,-1.0444,-1.1171,-1.1074,-1.0364,-1.0321,-1.032,-1.0513,-1.21,-1.1723,-1.0578,-1.2775,-1.3249,-1.2826,0.0,0.0,0.0,0.0,0.0,0.0,-1.053,-1.0682,-1.0876,0.0,0.0,0.0,-1.2178,-1.2178,-1.2178,-1.2178,-1.1814,-1.1588,-1.1588,-1.1199,-1.1177,-1.17,-1.1487,-1.1568,-1.2109,-1.2095,-1.2092,-1.2074,-1.1895,-1.1805,-1.179,-1.1961,-1.2374,-1.3046,-1.3083,-1.3399,-1.3861,-1.432,0.0,-1.3786,-1.4863,-1.5338,0.0,0.0,0.0,0.0,0.0,-1.7784,0.0,0.0,-1.6629,-1.6423,0.0,0.0,-1.4136,-1.4175,-1.4162,0.0,-1.4441,0.0,0.0,0.0,0.0,0.0,0.0,0.0,0.0,0.0,0.0,0.0,0.0,0.0,0.0,0.0,0.0,0.0,0.0,0.0,0.0,0.0,0.0,0.0,0.0,0.0,0.0,0.0,-1.4878,-1.4973,-1.4758,-1.505,-1.5196,-1.5201,-1.5226,-1.525,-1.5299,-1.5004,-1.5014,-1.5289,-1.4822,-1.4175,-1.3374,-1.297,-1.2764,-1.2645,-1.1856,-1.1734,-1.2012,-1.0796,-1.0789,-1.1489,-1.1132,-1.1661,-1.2692,-1.2934,-1.3167,-1.3497,0.0,0.0,0.0,0.0,0.0,-1.0389,-1.0753,-1.1265,-1.1621,0.0,0.0,0.0,-1.2722,-1.2722,-1.2722,-1.2722,-1.2467,-1.2178,-1.1952,-1.1613,-1.1475,-1.1588,-1.1261,-1.127,-1.1705,-1.1691,-1.1738,-1.1805,-1.1805,-1.1939,-1.2231,-1.2342,-1.284,-1.3613,-1.3515,-1.3674,-1.4005,0.0,0.0,0.0,-1.4934,0.0,0.0,-1.7379,-1.7912,0.0,0.0,0.0,-1.7499,-1.6835,-1.6366,0.0,0.0,0.0,0.0,0.0,0.0,0.0,0.0,0.0,0.0,0.0,0.0,0.0,0.0,-1.3616,0.0,0.0,0.0,0.0,0.0,0.0,0.0,0.0,0.0,0.0,0.0,0.0,0.0,0.0,0.0,0.0,0.0,0.0,0.0,-1.4822,-1.4892,-1.4992,-1.5059,-1.5152,-1.5163,-1.512,-1.5199,-1.5245,-1.525,-1.5255,-1.527,-1.5303,-1.5293,-1.4755,-1.3776,-1.3813,-1.3626,-1.3238,-1.2747,-1.2631,-1.2723,-1.1758,-1.1734,-1.2272,-1.1604,-1.2136,-1.3194,-1.2656,-1.2951,-1.3558,0.0,0.0,0.0,-1.055,-1.0567,-1.0606,-1.1075,-1.1905,-1.2361,0.0,-1.262,-1.311,-1.311,-1.311,-1.311,-1.311,-1.311,-1.2872,-1.2354,-1.2266,-1.2002,-1.1512,-1.1437,-1.1464,-1.1557,-1.1595,-1.1686,-1.1866,-1.1888,-1.2239,-1.2906,-1.3077,-1.3513,-1.4144,-1.434,0.0,-1.3949,0.0,0.0,-1.4463,-1.5347,-1.6256,0.0,0.0,-1.7642,0.0,-1.7917,-1.7513,-1.6863,-1.6671,-1.5847,0.0,0.0,0.0,0.0,0.0,-1.3542,0.0,0.0,0.0,0.0,0.0,0.0,0.0,-1.2215,-1.255,-1.2721,0.0,0.0,0.0,0.0,0.0,0.0,0.0,0.0,0.0,0.0,0.0,0.0,0.0,0.0,0.0,0.0,-1.4466,-1.4585,-1.467,-1.4794,-1.4886,-1.4886,-1.5059,-1.5114,-1.4999,-1.5164,-1.5234,-1.519,-1.5265,-1.5284,-1.5303,-1.5303,-1.4887,-1.4179,-1.4852,-1.4396,-1.3112,-1.373,-1.3648,-1.308,-1.3078,-1.3027,-1.2921,-1.2849,-1.2921,-1.3021,-1.2544,-1.3039,-1.367,0.0,0.0,-1.0485,-1.0681,-1.1385,-1.202,-1.21,-1.2651,-1.3035,-1.2933,-1.2714,-1.258,-1.258,-1.258,-1.258,-1.258,-1.258,-1.2341,-1.1789,-1.1312,-1.0969,-1.0869,-1.047,-1.0353,-1.0656,-1.0917,-1.1436,-1.2202,-1.2467,-1.2942,-1.36,-1.3118,-1.3247,-1.385,-1.3043,-1.3063,0.0,0.0,0.0,-1.3633,-1.382,0.0,-1.4457,-1.5289,-1.5753,-1.6032,-1.6849,-1.7037,-1.6863,0.0,-1.592,-1.5044,0.0,0.0,0.0,0.0,0.0,0.0,0.0,0.0,0.0,0.0,0.0,0.0,-1.3524,-1.3604,-1.3458,0.0,0.0,0.0,0.0,0.0,0.0,0.0,0.0,0.0,0.0,0.0,0.0,0.0,0.0,0.0,0.0,-1.3561,-1.384,-1.4493,-1.465,-1.4747,-1.4747,-1.4885,-1.4955,-1.4919,-1.5018,-1.5082,-1.5121,-1.5199,-1.5246,-1.5303,-1.5303,-1.5211,-1.5037,-1.451,-1.4452,-1.4771,-1.4241,-1.4312,-1.4809,-1.4805,-1.4424,-1.3787,-1.3077,-1.3653,-1.4876,-1.4777,-1.5316,-1.6125,0.0,-1.0506,-1.0869,-1.1432,-1.2027,-1.2504,-1.2747,-1.3023,-1.3098,-1.2835,-1.2341,-1.2002,-1.2002,-1.2002,-1.2002,-1.2002,-1.2002,-1.1763,-1.1199,-1.0856,-1.0568,-1.0305,-1.0044,-1.0174,-1.0807,-1.1176,-1.1844,-1.2758,-1.3114,-1.363,-1.4288,-1.3615,-1.372,-1.4445,-1.3092,-1.2914,0.0,0.0,-1.2961,-1.3208,-1.3346,0.0,-1.4305,-1.4816,-1.5094,-1.5343,-1.6045,-1.596,-1.5492,-1.542,-1.4893,0.0,0.0,-1.396,-1.3509,0.0,-1.3573,-1.3526,0.0,0.0,0.0,-1.3652,0.0,0.0,0.0,-1.315,-1.2952,0.0,0.0,0.0,0.0,0.0,0.0,0.0,0.0,0.0,0.0,0.0,0.0,0.0,0.0,0.0,0.0,-1.2224,-1.3033,-1.3842,-1.4349,-1.4595,-1.4595,-1.4737,-1.4794,-1.4794,-1.4898,-1.4977,-1.4992,-1.5095,-1.5174,-1.5196,-1.526,-1.5299,-1.5284,-1.4859,-1.4897,-1.5289,-1.4848,-1.4908,-1.5303,-1.5303,-1.5054,-1.4667,-1.4258,-1.4896,-1.6005,-1.5565,-1.6235,-1.7533,-1.0781,0.0,-1.1307,-1.2253,-1.2504,-1.2685,-1.3135,-1.3198,-1.296,-1.2341,-1.1864,-1.155,-1.1437,-1.1525,-1.1538,-1.1437,-1.1425,-1.1224,-1.0731,-1.0593,-1.0458,-1.0244,-1.0018,-1.0288,-1.1095,-1.1547,-1.2215,-1.3127,-1.3498,-1.4061,-1.4767,-1.3974,-1.3996,-1.4663,-1.3312,-1.2906,0.0,0.0,0.0,-1.3031,0.0,-1.3974,-1.462,-1.4635,-1.4818,-1.5117,-1.5612,-1.5202,-1.446,-1.4502,0.0,-1.382,-1.3783,-1.3699,0.0,0.0,0.0,0.0,0.0,0.0,0.0,0.0,0.0,-1.337,0.0,0.0,0.0,-1.1698,0.0,0.0,0.0,0.0,0.0,0.0,0.0,0.0,0.0,0.0,0.0,0.0,0.0,0.0,0.0,-1.1003,-1.2122,-1.2764,-1.3581,-1.4114,-1.4261,-1.4362,-1.4499,-1.4666,-1.4794,-1.4854,-1.4863,-1.4988,-1.5076,-1.5101,-1.5218,-1.5274,-1.5299,-1.5294,-1.5294,-1.5303,-1.5294,-1.5279,-1.5298,-1.5292,-1.5295,-1.5311,-1.5364,-1.6035,-1.6835,-1.6024,-1.6891,-1.8678,-1.1475,-1.1876,-1.2266,-1.2391,-1.2785,-1.3123,-1.3185,-1.3198,-1.2835,-1.1814,-1.1625,-1.1387,-1.0856,-1.1274,0.0,-1.0844,0.0,0.0,-1.0694,0.0,-1.0408,-1.1379,-1.0433,-1.0157,-1.0737,-1.1081,-1.1791,-1.2856,-1.3127,-1.3794,-1.4767,-1.352,-1.2974,-1.3043,-1.2503,0.0,0.0,0.0,-1.2759,0.0,-1.3745,-1.3845,0.0,-1.3693,-1.4189,-1.495,-1.5833,-1.5958,-1.5696,0.0,-1.5551,-1.524,0.0,-1.4395,0.0,0.0,0.0,0.0,0.0,0.0,0.0,0.0,-1.3413,0.0,0.0,0.0,-1.3277,-1.3159,0.0,0.0,0.0,0.0,0.0,0.0,0.0,0.0,0.0,0.0,0.0,0.0,0.0,0.0,0.0,0.0,-1.0986,-1.1086,-1.1883,-1.2682,-1.3409,-1.3448,-1.3797,-1.4504,-1.4656,-1.4728,-1.4729,-1.4854,-1.4985,-1.5101,-1.5127,-1.5174,-1.5299,-1.5243,-1.5234,-1.5303,-1.5248,-1.5259,-1.5308,-1.5293,-1.5293,-1.5302,-1.5379,-1.6379,-1.7693,-1.7129,-1.8319,-2.0249,-1.2065,-1.2253,0.0,-1.2797,-1.3048,-1.3098,-1.2772,-1.2171,-1.1583,-1.1148,-1.0809,-1.0521,0.0,0.0,0.0,0.0,0.0,-1.0694,0.0,0.0,-1.0445,-1.0608,0.0,0.0,0.0,-1.1094,-1.1777,-1.2733,-1.3086,-1.3589,-1.4199,-1.3265,-1.287,-1.3,-1.2457,0.0,-1.2435,0.0,0.0,0.0,0.0,0.0,0.0,-1.4587,-1.4963,-1.5341,-1.5834,-1.6452,-1.6874,0.0,-1.5771,0.0,0.0,0.0,0.0,0.0,0.0,0.0,0.0,0.0,0.0,0.0,0.0,0.0,0.0,0.0,-1.3396,0.0,0.0,0.0,0.0,0.0,0.0,0.0,0.0,0.0,0.0,0.0,0.0,0.0,0.0,0.0,0.0,0.0,0.0,0.0,0.0,-1.2154,-1.2532,-1.2949,-1.3582,-1.4469,-1.4549,-1.4574,-1.4585,-1.4719,-1.4839,-1.4933,-1.5028,-1.5127,-1.5193,-1.524,-1.522,-1.5185,-1.5201,-1.5229,-1.5303,-1.5269,-1.526,-1.5298,-1.5326,-1.6086,-1.7302,-1.861,-1.9687,-2.0504,-1.219,0.0,0.0,0.0,0.0,0.0,-1.2241,-1.1349,-1.0694,-1.0694,0.0,0.0,-0.9918,-1.0182,0.0,0.0,0.0,-1.0531,0.0,0.0,-1.0295,0.0,0.0,0.0,0.0,0.0,-1.1643,-1.2484,-1.2724,-1.3103,-1.351,-1.2846,-1.2622,-1.2807,0.0,-1.238,-1.2659,0.0,0.0,-1.3403,-1.4455,-1.5197,-1.5731,-1.5849,-1.59,-1.5937,-1.6299,-1.7007,-1.7664,-1.6727,-1.6328,0.0,-1.5967,0.0,0.0,0.0,0.0,0.0,-1.4952,0.0,0.0,0.0,0.0,0.0,0.0,0.0,0.0,0.0,0.0,0.0,0.0,0.0,0.0,0.0,0.0,0.0,0.0,0.0,0.0,0.0,0.0,0.0,0.0,0.0,0.0,0.0,0.0,0.0,-1.1275,-1.2048,-1.2979,-1.4087,-1.4371,-1.4492,-1.4492,-1.4595,-1.468,-1.4766,-1.4942,-1.504,-1.5076,-1.5163,-1.5168,-1.5094,-1.5127,-1.5182,-1.5279,-1.5195,-1.5212,-1.5275,-1.5246,-1.564,-1.648,-1.8375,-1.9388,-1.9726,-1.1613,-1.1613,0.0,0.0,0.0,0.0,0.0,0.0,0.0,0.0,0.0,0.0,0.0,0.0,0.0,0.0,0.0,-1.0157,-1.0669,0.0,-0.9868,0.0,0.0,-1.0157,0.0,0.0,0.0,-1.1939,-1.181,-1.2113,-1.2831,-1.2149,-1.1835,-1.1856,-1.2102,-1.2412,-1.2817,-1.3068,-1.3566,-1.4326,-1.6118,-1.7609,-1.8606,0.0,-1.6665,-1.6766,-1.7473,0.0,0.0,-1.7743,-1.7743,0.0,0.0,0.0,0.0,0.0,0.0,0.0,0.0,0.0,0.0,-1.4665,0.0,0.0,0.0,0.0,-1.3396,0.0,0.0,0.0,0.0,0.0,-1.2905,-1.135,0.0,0.0,0.0,0.0,0.0,0.0,0.0,0.0,0.0,0.0,0.0,0.0,0.0,0.0,-0.9448,-1.0376,-1.1567,-1.3091,-1.402,-1.4488,-1.4488,-1.4504,-1.4574,-1.4699,-1.4785,-1.4875,-1.4992,-1.5008,-1.5028,-1.5088,-1.503,-1.5082,-1.5189,-1.5127,-1.514,-1.5195,-1.5133,-1.5199,-1.5356,-1.5435,-1.6537,-1.7742,0.0,0.0,0.0,0.0,0.0,0.0,0.0,-1.0819,0.0,0.0,0.0,0.0,0.0,0.0,-1.2484,0.0,0.0,-1.1846,-1.1337,-1.0947,0.0,0.0,0.0,-0.9993,0.0,0.0,0.0,0.0,0.0,-1.1499,-1.2119,-1.191,-1.1805,-1.1826,0.0,-1.2513,0.0,0.0,0.0,0.0,0.0,-1.7716,-1.841,0.0,0.0,-1.7456,-1.771,-1.7811,0.0,-1.7811,-1.7811,-1.776,-1.7507,-1.7422,-1.7388,-1.7134,-1.7067,0.0,0.0,0.0,-1.6157,-1.5409,0.0,0.0,0.0,0.0,0.0,0.0,0.0,0.0,0.0,0.0,-1.2331,-1.1265,-1.0927,-1.0335,0.0,0.0,0.0,0.0,0.0,0.0,0.0,0.0,0.0,0.0,-0.6892,0.0,0.0,-0.9763,-1.1215,-1.2854,-1.3816,-1.4295,-1.4295,-1.4428,-1.4549,-1.4635,-1.4699,-1.4785,-1.4866,-1.4923,-1.492,-1.4896,-1.4925,-1.496,-1.4992,-1.4976,-1.503,-1.514,-1.5218,-1.5265,-1.5308,-1.5295,-1.5672,-1.6107,-1.0433,0.0,0.0,0.0,0.0,0.0,0.0,0.0,0.0,0.0,-1.2482,0.0,-1.3421,0.0,-1.3446,0.0,-1.3023,-1.2522,-1.165,-1.1399,0.0,-1.0219,-1.0168,0.0,0.0,0.0,0.0,0.0,0.0,-1.1458,-1.2285,-1.2049,-1.2014,-1.2156,0.0,-1.2565,-1.3397,0.0,-1.4052,0.0,0.0,-1.7864,0.0,0.0,-1.8358,-1.8315,0.0,-1.8126,-1.8481,-1.798,-1.8048,-1.8268,-1.7912,-1.7811,-1.7811,-1.7811,-1.7811,-1.771,-1.7219,-1.7084,0.0,-1.617,-1.5984,0.0,-1.4733,0.0,0.0,0.0,0.0,0.0,0.0,0.0,-1.2432,-1.1654,-1.113,-1.0555,0.0,-0.923,0.0,0.0,0.0,0.0,0.0,0.0,0.0,-0.5695,-0.6442,0.0,0.0,0.0,-1.0919,-1.2269,-1.3476,-1.4136,-1.4188,-1.4344,-1.4469,-1.4578,-1.4637,-1.468,-1.4738,-1.483,-1.4847,-1.4794,-1.484,-1.4876,-1.4904,-1.4867,-1.4928,-1.5049,-1.5107,-1.5193,-1.5308,-1.5306,-1.5291,-1.5303,0.0,0.0,0.0,0.0,-1.042,0.0,0.0,0.0,-1.2685,0.0,-1.3347,-1.3594,-1.4113,-1.4243,-1.4022,-1.3373,-1.2847,0.0,-1.1713,-1.1148,0.0,0.0,-1.0694,-1.0973,-1.1487,0.0,0.0,0.0,0.0,0.0,-1.3094,-1.2495,-1.2405,-1.2726,-1.2074,0.0,-1.3765,-1.3765,-1.4539,-1.5871,-1.6886,-1.813,-1.9345,-1.9433,-1.9449,-1.9285,-1.8255,-1.8785,-1.9748,-1.842,-1.8521,-1.907,-1.8099,-1.7811,-1.7811,-1.7811,-1.7811,-1.7805,-1.7862,-1.7811,-1.7574,-1.6936,0.0,0.0,0.0,0.0,-1.4293,0.0,0.0,0.0,0.0,0.0,0.0,-1.2415,-1.2263,-1.1975,-1.1214,0.0,0.0,0.0,0.0,0.0,0.0,0.0,-0.7378,-0.578,-0.6485,-0.6912,0.0,0.0,-1.0668,-1.1351,-1.3018,-1.3983,-1.4162,-1.425,-1.435,-1.4492,-1.4549,-1.4581,-1.4595,-1.4736,-1.4794,-1.4784,-1.4784,-1.484,-1.4886,-1.4813,-1.4822,-1.4894,-1.4832,-1.5011,-1.5279,-1.5302,-1.5291,-1.5299,-1.1161,-1.1161,-1.1161,0.0,-1.1274,-1.1362,0.0,0.0,0.0,0.0,-1.5562,-1.6351,-1.6507,-1.6519,-1.6132,-1.5153,-1.4927,0.0,0.0,0.0,0.0,-1.0756,-1.0694,-1.0581,-1.0345,-1.0445,0.0,-1.082,0.0,0.0,-1.1799,-1.2394,-1.2454,-1.2044,0.0,0.0,-1.3071,-1.3071,-1.3985,-1.5545,-1.684,-1.7827,0.0,0.0,-2.0157,-1.9731,-1.9519,-1.9452,-1.9536,-1.9908,-1.9215,-1.8149,-1.7896,-1.7811,-1.7811,-1.7811,-1.7811,-1.7963,-1.8707,-1.7811,-1.6813,-1.7388,-1.6695,-1.5629,0.0,0.0,0.0,0.0,0.0,0.0,0.0,0.0,0.0,-1.2331,-1.1789,-1.1333,0.0,0.0,0.0,0.0,0.0,0.0,0.0,0.0,-0.6885,-0.6444,-0.6646,-0.6748,0.0,0.0,0.0,-1.1162,-1.2805,-1.3691,-1.3751,-1.3959,-1.4172,-1.4356,-1.4368,-1.4462,-1.4611,-1.4635,-1.4637,-1.4658,-1.4697,-1.4746,-1.4756,-1.4737,-1.4765,-1.4832,-1.4859,-1.4992,-1.5165,-1.5265,-1.5311,-1.5292,-1.1902,0.0,0.0,-1.2354,0.0,0.0,-1.2776,0.0,0.0,-1.5453,-1.6211,0.0,-1.6965,-1.7023,-1.6748,-1.6107,-1.5618,0.0,0.0,0.0,0.0,-1.1833,-1.1558,-1.1538,-1.1744,-1.1191,0.0,-1.1255,0.0,0.0,-1.1721,-1.2427,-1.2648,-1.2456,0.0,-1.2882,0.0,-1.3565,-1.4554,-1.5963,-1.6768,0.0,0.0,-1.9244,-1.9459,-1.9081,-1.9611,-1.9916,-2.012,-1.9993,-1.9299,-1.8386,-1.7946,-1.7811,-1.7811,-1.7811,-1.7811,-1.7929,-1.8488,-1.8285,-1.7693,-1.6762,-1.5917,-1.524,-1.5037,-1.4714,-1.4376,0.0,0.0,0.0,0.0,0.0,0.0,0.0,0.0,0.0,0.0,0.0,0.0,0.0,0.0,0.0,0.0,0.0,-0.6294,-0.6664,-0.6994,-0.718,0.0,0.0,0.0,-1.1113,-1.2732,-1.3584,-1.3584,-1.3859,-1.4046,-1.4127,-1.4144,-1.4239,-1.4326,-1.4451,-1.4508,-1.4519,-1.4651,-1.4703,-1.4705,-1.4697,-1.4717,-1.4755,-1.4832,-1.4919,-1.5023,-1.5127,-1.521,-1.5265,0.0,0.0,0.0,0.0,0.0,0.0,0.0,-1.4651,0.0,-1.6665,0.0,-1.6373,-1.6797,-1.678,-1.6683,-1.6522,0.0,-1.4865,-1.4236,-1.3709,-1.3286,-1.2998,-1.263,-1.2831,-1.3745,-1.226,0.0,0.0,0.0,0.0,-1.2168,-1.2663,-1.3036,0.0,0.0,0.0,0.0,-1.4513,-1.5441,0.0,-1.6547,-1.6834,-1.7298,-1.8004,-1.8069,-1.7946,-1.8941,-2.0017,-2.0769,-1.9486,-1.9232,-1.9307,-1.8166,-1.7924,-1.8042,-1.7862,-1.7811,-1.7845,-1.8048,-1.8735,-1.8819,-1.6306,-1.5172,-1.4834,-1.5341,-1.4885,-1.436,-1.436,-1.3853,-1.3396,0.0,0.0,0.0,0.0,0.0,0.0,0.0,0.0,0.0,0.0,0.0,0.0,0.0,0.0,-0.6178,-0.6934,-0.7578,0.0,0.0,0.0,0.0,-1.113,-1.2719,0.0,-1.3601,0.0,-1.3917,-1.3913,-1.3941,-1.3983,-1.4024,-1.4257,-1.4368,-1.4374,-1.4578,-1.4661,-1.4661,-1.4695,-1.4707,-1.4717,-1.4766,-1.4832,-1.4894,-1.4955,-1.5045,-1.5152,0.0,0.0,0.0,0.0,0.0,-1.6125,-1.7374,-1.7547,-1.7753,-1.8552,-1.8891,-1.8963,-1.8676,-1.8188,-1.7523,-1.6602,-1.6346,0.0,0.0,0.0,0.0,-1.1952,-1.2215,-1.2291,-1.2027,-1.2562,-1.27,0.0,0.0,0.0,-1.2055,-1.3276,0.0,0.0,0.0,0.0,-1.3829,-1.4513,0.0,-1.5186,-1.5725,-1.6293,-1.6864,-1.7374,-1.7517,-1.7452,-1.7983,-1.8892,-1.9807,-1.9807,-2.0145,-2.0213,-1.8386,-1.8633,-1.9376,-1.8166,-1.7811,-1.8059,-1.9275,-1.8031,-1.6915,-1.9198,-1.6678,-1.3836,-1.4546,-1.4124,-1.3599,-1.3599,-1.3498,-1.3396,-1.3396,0.0,0.0,0.0,0.0,0.0,0.0,0.0,0.0,0.0,0.0,0.0,0.0,0.0,0.0,0.0,0.0,0.0,0.0,0.0,0.0,0.0,-1.2615,0.0,0.0,0.0,-1.3669,-1.3991,-1.3894,-1.392,-1.4096,-1.418,-1.4237,-1.425,-1.438,-1.4451,-1.4462,-1.4632,-1.4695,-1.4707,-1.4717,-1.4765,-1.4813,-1.4823,-1.4885,-1.4977,0.0,0.0,0.0,0.0,0.0,0.0,0.0,-1.9407,0.0,-1.9138,-1.8799,-1.8368,-1.779,-1.7721,-1.7515,-1.6976,-1.6651,-1.6281,-1.5749,-1.4967,-1.3883,-1.2504,-1.2672,0.0,-1.3207,-1.3352,-1.3198,-1.2716,0.0,0.0,-1.1831,0.0,0.0,-1.3488,0.0,-1.4513,0.0,0.0,0.0,-1.5364,-1.5679,-1.5978,-1.6263,-1.6467,-1.6569,-1.6569,-1.6933,-1.7411,-1.8006,-1.8683,-1.8941,-1.8951,-1.866,-1.8212,-1.7769,-1.7794,-1.7811,-1.7941,-1.8667,-1.7828,-1.6898,-1.7574,-1.5933,-1.4225,-1.4444,-1.3921,-1.3515,-1.3887,-1.3684,-1.3396,-1.3396,-1.3396,0.0,0.0,0.0,0.0,0.0,0.0,0.0,0.0,0.0,0.0,0.0,0.0,0.0,0.0,0.0,0.0,0.0,0.0,0.0,0.0,0.0,0.0,0.0,0.0,0.0,-1.3698,-1.3653,-1.3717,-1.3851,-1.3977,-1.4033,-1.4046,-1.4219,-1.4332,-1.4404,-1.4571,-1.4664,-1.4695,-1.4697,-1.4717,-1.4746,-1.4793,-1.4813,-1.4866,0.0,-1.7739,0.0,0.0,-1.838,0.0,-1.9824,-2.0475,-2.0582,-1.9949,-1.8879,-1.7936,-1.733,-1.7383,-1.7341,-1.6977,-1.6676,-1.6336,-1.6,-1.4946,-1.3928,-1.306,-1.3225,-1.3663,-1.4367,-1.3999,-1.3648,0.0,0.0,0.0,0.0,0.0,0.0,0.0,0.0,0.0,0.0,0.0,-1.5319,-1.5799,-1.5799,-1.5799,-1.5799,-1.5799,-1.5799,-1.5827,-1.608,-1.6219,-1.6394,-1.7196,-1.7352,-1.7404,-1.8426,-1.7508,-1.6233,-1.7286,-1.7681,-1.7811,-1.7811,-1.7726,-1.7311,-1.588,-1.5132,-1.4737,-1.4748,-1.4039,-1.3566,-1.4157,-1.3802,-1.3396,-1.3396,-1.3396,0.0,0.0,0.0,0.0,0.0,0.0,0.0,0.0,0.0,0.0,0.0,0.0,0.0,0.0,0.0,0.0,0.0,0.0,0.0,0.0,0.0,-1.2925,-1.3446,0.0,-1.3524,0.0,-1.3479,-1.3512,-1.3578,-1.3763,-1.3836,-1.3851,-1.405,-1.4224,-1.4362,-1.4497,-1.4581,-1.4651,-1.4666,-1.4687,-1.4716,-1.4754,-1.4774,-1.4803,0.0,0.0,0.0,0.0,0.0,0.0,0.0,-2.0475,-2.117,-2.2224,-2.1227,-2.0245,-1.9822,-1.8741,-1.745,-1.597,-1.6267,-1.5875,-1.4422,-1.4807,-1.4319,-1.2542,-1.3343,-1.3674,-1.3342,-1.3806,-1.4297,0.0,0.0,0.0,0.0,0.0,0.0,0.0,0.0,0.0,0.0,-1.5739,-1.5739,-1.5799,-1.5799,-1.5799,-1.5799,-1.5799,-1.5799,-1.5799,-1.5827,-1.5856,-1.5871,-1.5945,-1.6414,-1.6942,-1.7014,-1.7093,-1.7109,-1.6935,-1.7313,-1.7811,-1.7811,-1.7502,-1.7223,-1.7462,-1.5878,-1.448,-1.5314,-1.4394,-1.3413,-1.3498,-1.3447,-1.3396,-1.3396,-1.3396,-1.3396,0.0,0.0,0.0,0.0,0.0,0.0,0.0,0.0,0.0,0.0,0.0,0.0,0.0,0.0,0.0,0.0,0.0,0.0,-1.2162,0.0,-1.3393,-1.3586,-1.3478,-1.3494,-1.3667,-1.3493,-1.3429,-1.3512,-1.3594,-1.3626,-1.3642,-1.3836,-1.4033,-1.4224,-1.4362,-1.4416,-1.4439,-1.4563,-1.4654,-1.4693,-1.4712,-1.4712,-1.4722,0.0,0.0,0.0,0.0,0.0,0.0,0.0,-2.1193,-2.1677,-2.2603,-2.0988,-1.9647,-1.9418,-1.8617,-1.7917,-1.7487,-1.7651,-1.7138,-1.5645,-1.5,-1.4136,-1.2944,-1.3276,-1.3514,-1.3615,-1.3938,-1.4167,0.0,0.0,0.0,0.0,0.0,0.0,0.0,0.0,-1.5799,-1.5799,-1.5799,-1.5799,-1.5799,-1.5799,-1.5799,-1.5799,-1.5799,-1.5799,-1.5799,-1.5799,-1.5827,-1.5856,-1.5799,-1.6136,-1.6554,-1.6501,-1.6591,-1.6747,-1.7027,-1.7002,-1.6977,-1.7392,-1.7224,-1.6855,-1.6588,-1.5502,-1.4519,-1.4619,-1.387,-1.3208,-1.3363,-1.3396,-1.3396,-1.3396,-1.3396,-1.3396,0.0,0.0,0.0,0.0,0.0,0.0,0.0,0.0,0.0,0.0,0.0,0.0,0.0,0.0,0.0,0.0,0.0,0.0,-1.2297,0.0,-1.2971,-1.3478,-1.343,-1.3429,-1.3509,-1.3478,-1.3496,-1.3562,-1.3593,-1.3608,-1.3608,-1.3774,-1.3906,-1.4033,-1.4149,-1.4289,-1.4416,-1.4462,-1.456,-1.4701,-1.4701,-1.4701,-1.4701,-2.1694,0.0,-2.1079,0.0,-2.0941,-2.0522,-2.1225,-2.1398,-2.1594,-2.2095,-2.052,-1.9405,-1.9455,-1.8838,-1.8285,-1.8001,-1.8001,-1.7376,-1.5905,-1.4817,-1.3938,-1.3223,-1.3323,0.0,-1.3682,-1.3772,-1.3932,-1.4152,-1.4059,0.0,0.0,0.0,0.0,0.0,-1.5639,-1.5799,-1.5799,-1.5799,-1.5799,-1.5799,-1.5799,-1.5799,-1.5799,-1.5799,-1.5799,-1.5799,-1.5799,-1.5827,-1.5871,-1.5827,-1.5955,-1.6136,-1.6136,-1.6219,-1.6367,-1.6757,-1.667,-1.6528,-1.6901,-1.685,-1.6574,-1.6141,-1.544,-1.4811,-1.4551,-1.3807,-1.3205,-1.3276,-1.3294,-1.3311,-1.3379,-1.3346,-1.3311,-1.3379,0.0,0.0,0.0,0.0,0.0,0.0,0.0,-1.3126,-1.3261,0.0,0.0,0.0,0.0,0.0,0.0,0.0,0.0,0.0,0.0,0.0,0.0,-1.3396,-1.3532,-1.3752,-1.3786,-1.387,-1.392,-1.3951,-1.4087,-1.4327,-1.4441,-1.4502,-1.4548,-1.468,-1.4837,-1.4953,-1.4992,-1.505,-1.5076,-1.5076,-1.4918,-1.4701,-2.2196,-2.1857,-2.1656,-2.2209,-2.1845,-2.1292,-2.0806,-2.0718,-2.0756,-2.0825,-2.0342,-2.0207,-2.0826,-1.9821,-1.8383,-1.6688,-1.6546,-1.5843,-1.4221,-1.4096,-1.3848,0.0,0.0,-1.3682,-1.3232,-1.3198,-1.3705,-1.4691,0.0,0.0,-1.4664,0.0,-1.4968,-1.5799,-1.5799,-1.5799,-1.5799,-1.5799,-1.5799,-1.5799,-1.5799,-1.5799,-1.5799,-1.5799,-1.5799,-1.5799,-1.5799,-1.5799,-1.5799,-1.5799,-1.5799,-1.5799,-1.5799,-1.6039,-1.6246,-1.5898,-1.6274,-1.6712,-1.6394,-1.6355,-1.6463,-1.6722,-1.6019,-1.5364,-1.5606,-1.4594,-1.348,-1.309,-1.2997,-1.3085,-1.3346,-1.3173,-1.3085,-1.3363,0.0,0.0,0.0,0.0,0.0,0.0,-1.259,-1.2488,-1.2965,0.0,0.0,0.0,0.0,0.0,0.0,0.0,0.0,-1.3362,-1.3396,0.0,-1.3396,-1.3396,-1.3803,-1.4589,-1.4589,-1.4607,-1.4693,-1.4762,-1.5263,-1.6063,-1.6063,-1.6063,-1.6081,-1.6218,-1.6266,-1.6298,-1.6422,-1.6269,-1.5978,-1.5978,-1.5447,-1.4701,-2.3502,-2.3627,-2.3452,-2.2485,-2.2472,-2.2297,-2.1368,-2.1256,-2.1303,-2.1365,-2.1242,-2.1118,-2.105,-2.0185,-1.9188,0.0,-1.7517,-1.6594,0.0,-1.4518,-1.3925,-1.3223,-1.3323,-1.3357,-1.3198,-1.3198,-1.3355,-1.3693,0.0,0.0,0.0,-1.4711,-1.5134,-1.5799,-1.5799,-1.5799,-1.5799,-1.5799,-1.5799,-1.5799,-1.5799,-1.5799,-1.5799,-1.5799,-1.5799,-1.5799,-1.5799,-1.5799,-1.5799,-1.5799,-1.5799,-1.5799,-1.5799,-1.5885,-1.5983,-1.6123,-1.6136,-1.6243,-1.683,-1.6504,-1.6118,-1.6617,-1.5844,-1.5034,-1.5288,-1.4806,-1.411,-1.3517,-1.3412,-1.3287,-1.2915,-1.2781,-1.2815,-1.3085,-1.2962,0.0,0.0,0.0,0.0,0.0,-1.3025,-1.3042,0.0,-1.3025,0.0,0.0,0.0,0.0,0.0,0.0,0.0,0.0,-1.3396,0.0,-1.3396,-1.3396,-1.3532,-1.3786,-1.3769,-1.3837,-1.3937,-1.3968,-1.4122,-1.4397,-1.4397,-1.4397,-1.4397,-1.4444,-1.4555,-1.474,-1.478,-1.4842,-1.4934,-1.506,-1.4944,-1.5038,-2.4343,-2.4582,-2.4418,-2.3163,-2.3238,-2.3062,-2.1882,-2.1776,-2.1714,-2.1366,-2.1714,-2.1952,-2.2027,-2.1105,0.0,-1.9086,-1.8071,-1.7075,-1.6159,-1.5322,-1.4631,-1.4169,-1.374,-1.3546,-1.3546,0.0,0.0,-1.3766,-1.3766,-1.4079,-1.4721,-1.4752,-1.5134,-1.5799,-1.5799,-1.5799,-1.5799,-1.5799,-1.5799,-1.5799,-1.5799,-1.5799,-1.5799,-1.5799,-1.5799,-1.5799,-1.5799,-1.5799,-1.5799,-1.5799,-1.5799,-1.5799,-1.5799,-1.5799,-1.5856,-1.6067,-1.5955,-1.5946,-1.6571,-1.6302,-1.5932,-1.6278,-1.5799,-1.5164,-1.508,-1.4928,-1.4554,-1.3684,-1.3478,-1.3278,-1.2755,-1.2533,-1.2549,-1.2797,-1.2722,-1.2649,-1.2815,0.0,0.0,0.0,0.0,0.0,0.0,-1.2926,0.0,0.0,0.0,0.0,0.0,0.0,0.0,-1.3413,-1.3396,0.0,-1.3396,-1.3396,-1.3549,-1.3854,-1.3888,-1.4093,-1.4452,-1.4175,-1.4225,-1.4485,-1.4535,-1.4552,-1.4552,-1.4552,-1.4771,-1.509,-1.5088,-1.5442,-1.5962,-1.6077,-1.5495,-1.4947,-2.4669,-2.4795,0.0,0.0,-2.3966,0.0,-2.2251,-2.2221,-2.1983,-2.1049,-2.1709,-2.2565,-2.3286,-2.2249,-2.0992,-1.981,0.0,0.0,0.0,-1.6278,-1.566,-1.5671,-1.4696,-1.4148,-1.4148,-1.3571,-1.3731,-1.4655,-1.4691,-1.4823,-1.507,-1.4704,-1.4937,-1.5712,-1.5801,-1.5786,-1.5741,-1.5815,-1.5844,-1.5799,-1.5799,-1.5799,-1.5799,-1.5799,-1.5799,-1.5799,-1.5799,-1.5799,-1.5799,-1.5799,-1.5799,-1.5799,-1.5799,-1.5799,-1.5799,-1.5799,-1.5799,-1.5814,-1.5858,-1.5872,-1.5871,-1.5858,-1.5872,-1.5706,-1.5034,-1.5042,-1.4893,-1.3667,-1.3319,-1.3137,-1.276,-1.2423,-1.2271,-1.2533,-1.2553,-1.2553,-1.2572,0.0,0.0,0.0,0.0,0.0,0.0,-1.2435,-1.2591,0.0,0.0,0.0,0.0,0.0,-1.4172,-1.343,-1.3396,-1.3396,-1.3396,-1.3396,-1.3786,-1.4521,-1.4573,-1.502,-1.5779,-1.5107,-1.5193,-1.5904,-1.6028,-1.6063,-1.6011,-1.6081,-1.636,-1.678,-1.6693,-1.7289,-1.8169,-1.8169,-1.6578,-1.4476,0.0,0.0,-2.4506,-2.3514,-2.3703,-2.374,-2.2927,-2.2376,-2.192,-2.143,-2.1289,-2.1457,-2.1908,-2.0926,-2.0091,-1.978,-1.8689,-1.7604,-1.6741,-1.6061,-1.5541,-1.5108,-1.4854,-1.4714,-1.4714,-1.4173,-1.3982,-1.4254,-1.4563,-1.4716,-1.4775,-1.4804,-1.4814,-1.4842,-1.5702,-1.5739,-1.5163,-1.6113,-1.6219,-1.5799,-1.5799,-1.5799,-1.5799,-1.5799,-1.5799,-1.5799,-1.5799,-1.5799,-1.5799,-1.5799,-1.5799,-1.5799,-1.5799,-1.5799,-1.5799,-1.5799,-1.5799,-1.5903,-1.6353,-1.6144,-1.5918,-1.6398,-1.6144,-1.5797,-1.5604,-1.5615,-1.5445,-1.4615,-1.4066,-1.3531,-1.2886,-1.2332,-1.2039,-1.2251,-1.2128,-1.2066,-1.2271,-1.2291,0.0,0.0,-1.2435,-1.2494,-1.2246,-1.2435,-1.2514,0.0,0.0,0.0,0.0,-1.3937,-1.4275,-1.343,-1.3396,-1.3396,-1.3396,-1.3396,-1.3498,-1.3684,-1.3701,-1.411,-1.4827,-1.4691,-1.4743,-1.4967,-1.5658,-1.5626,-1.5159,-1.5836,-1.5941,-1.5575,-1.4724,-1.4634,-1.4976,-1.4827,-1.4371,-1.383,-2.4381,-2.4619,-2.4544,-2.3678,-2.3791,-2.3803,-2.3165,-2.2739,-2.2284,-2.1581,-2.1167,-2.1087,-2.1681,-2.0891,-2.0188,-1.9836,-1.8652,-1.7817,-1.7514,-1.6926,-1.663,-1.678,-1.6059,-1.5618,-1.5618,-1.4626,-1.4085,-1.4085,-1.4326,-1.4527,-1.4713,-1.4713,-1.4658,-1.4578,-1.5022,-1.5142,-1.5058,-1.592,-1.6099,-1.5799,-1.5799,-1.5799,-1.5799,-1.5799,-1.5799,-1.5799,-1.5799,-1.5799,-1.5799,-1.5799,-1.5799,-1.5799,-1.5799,-1.5799,-1.5799,-1.5799,-1.5799,-1.5873,-1.6204,-1.6039,-1.5888,-1.6219,-1.6024,-1.5799,-1.5799,-1.5799,-1.5619,-1.4986,-1.4326,-1.365,-1.2983,-1.2283,-1.1891,-1.2003,-1.1876,-1.1833,-1.1997,-1.2018,0.0,-1.2018,-1.2149,-1.2298,-1.2451,-1.2611,-1.2617,-1.2482,0.0,0.0,-1.2916,-1.3892,-1.4185,-1.3507,-1.3493,-1.3547,-1.3674,-1.3497,-1.3396,-1.3396,-1.3396,-1.3599,-1.4007,-1.4382,-1.4553,-1.457,-1.5086,-1.5276,-1.5243,-1.5419,-1.5697,-1.5976,-1.5349,-1.547,-1.5975,-1.5889,-1.5836,-1.5662,-2.4481,-2.4569,-2.4418,-2.3954,-2.3866,-2.3703,-2.3153,-2.2977,-2.2598,-2.1543,-2.1242,-2.1199,-2.16,-2.1237,-2.0648,-1.9874,-1.8656,-1.8117,-1.8513,-1.7938,-1.7959,-1.8858,-1.7364,-1.6559,-1.6647,-1.523,-1.4412,-1.4337,-1.4412,-1.4598,-1.4833,-1.4688,-1.4637,-1.4648,-1.4484,-1.4603,-1.4982,-1.5654,-1.5888,-1.5799,-1.5799,-1.5799,-1.5799,-1.5799,-1.5799,-1.5799,-1.5799,-1.5799,-1.5799,-1.5799,-1.5799,-1.5799,-1.5799,-1.5799,-1.5799,-1.5799,-1.5799,-1.5799,-1.5799,-1.5799,-1.5799,-1.5799,-1.5799,-1.5799,-1.5799,-1.5799,-1.5634,-1.5149,-1.4386,-1.3655,-1.3118,-1.2374,-1.1835,-1.1939,-1.1865,-1.1835,-1.1939,0.0,-1.1939,-1.1939,-1.2044,-1.2328,-1.2906,-1.2951,-1.2951,-1.2951,-1.3505,-1.3664,-1.3306,-1.3944,-1.4132,-1.3788,-1.377,-1.3822,-1.3965,-1.3604,-1.3395,-1.3311,-1.3329,-1.3396,-1.3497,-1.4157,-1.4446,-1.4481,-1.4654,-1.5012,-1.5471,-1.5106,-1.5731,-1.6921,-1.7078,-1.7711,-1.8485,-1.8485,-1.8485,-1.8046,-2.3315,-2.3328,-2.3315,-2.3215,-2.3215,-2.3238,-2.309,-2.2552,-2.1863,-2.1087,-2.1462,-2.1375,-2.0275,-2.0903,-2.0966,-1.9899,-1.9597,-1.8981,-1.7827,-1.7682,-1.7847,-1.832,-1.7156,-1.6748,-1.7237,-1.6522,-1.5906,-1.5442,-1.5906,-1.5935,-1.5549,-1.5336,-1.5095,-1.4902,-1.5631,-1.5319,-1.4351,-1.5897,-1.6278,-1.5799,-1.5799,-1.5799,-1.5799,-1.5799,-1.5799,-1.5799,-1.5799,-1.5799,-1.5799,-1.5799,-1.5799,-1.5799,-1.5799,-1.5799,-1.5799,-1.5799,-1.5799,-1.5799,-1.5799,-1.5799,-1.5799,-1.5799,-1.5799,-1.5799,-1.5799,-1.5799,-1.5769,-1.5664,-1.4716,-1.383,-1.37,-1.2689,-1.205,-1.2561,-1.2164,-1.1999,-1.2576,0.0,-1.2651,-1.2651,-1.3136,-1.354,-1.363,-1.3705,-1.3705,-1.3645,-1.3795,-1.3835,-1.3695,-1.4403,-1.4747,-1.4626,-1.4491,-1.4227,-1.3746,-1.3617,-1.3339,-1.2887,-1.3013,-1.3343,-1.3838,-1.4112,-1.4257,-1.4291,-1.5045,-1.505,-1.4575,-1.5396,-1.6236,-1.7062,-1.7923,-1.8344,-1.8485,-1.8485,-1.8485,-1.8046,-2.3078,-2.3078,-2.3078,-2.3078,-2.3403,-2.359,-2.3128,-2.279,-2.2451,-2.2113,-2.1312,-2.1029,-2.1543,-2.1531,-2.1518,-2.1594,-2.0501,-1.9773,-1.971,-1.8593,-1.8267,-1.9032,-1.8003,-1.7451,-1.7501,-1.6861,-1.6396,-1.6132,-1.5806,-1.5806,-1.6132,-1.5975,-1.5747,-1.5515,-1.5817,-1.5337,-1.4324,-1.5313,-1.5622,-1.5418,-1.5418,-1.558,-1.577,-1.561,-1.5639,-1.5799,-1.5799,-1.5799,-1.5799,-1.5799,-1.5799,-1.5799,-1.5799,-1.5799,-1.5799,-1.5799,-1.5799,-1.5799,-1.5799,-1.5799,-1.5799,-1.5799,-1.5799,-1.5799,-1.5799,-1.5799,-1.5799,-1.5799,-1.5034,-1.4255,-1.387,-1.3026,-1.2479,-1.2756,-1.2224,0.0,0.0,-1.3041,-1.2936,-1.3301,-1.3615,-1.3944,-1.4303,-1.4386,-1.4371,-1.4333,-1.4701,-1.4746,-1.4348,-1.4989,-1.5377,-1.5377,-1.5119,-1.4319,-1.2957,-1.3451,-1.3392,-1.2811,-1.285,-1.3029,-1.3313,-1.3822,-1.4041,-1.4058,-1.449,-1.4712,-1.4745,-1.4893,-1.562,-1.6724,-1.7311,-1.7942,-1.8485,-1.8485,-1.8485,-1.8169,-2.3078,-2.3078,-2.3078,-2.3078,-2.3715,-2.4054,-2.3703,-2.3502,-2.3265,-2.3103,-2.1644,-2.1029,-2.2221,-2.2071,-2.2083,-2.2527,-2.1368,-2.0828,-2.1443,-1.9987,-1.9309,-1.9786,-1.9007,-1.8355,-1.7877,-1.7363,-1.7036,-1.6911,-1.5969,-1.5994,-1.6898,-1.6517,-1.6278,-1.6087,-1.5839,-1.5256,-1.4501,-1.476,-1.4982,-1.5165,-1.5165,-1.5418,-1.577,-1.5507,-1.558,-1.5799,-1.5799,-1.5799,-1.5799,-1.5799,-1.5799,-1.5799,-1.5799,-1.5799,-1.5799,-1.5799,-1.5799,-1.5799,-1.5799,-1.5799,-1.5799,-1.5799,-1.5799,-1.5799,-1.5799,-1.5799,-1.5799,-1.5799,-1.5274,-1.4633,-1.4139,-1.3481,-1.3086,-1.325,0.0,0.0,0.0,-1.3705,-1.37,-1.4199,-1.4543,-1.4917,-1.5426,-1.5364,-1.5274,-1.5246,-1.5604,-1.5574,-1.5052,-1.5529,-1.5781,-1.5687,-1.5541,-1.4477,-1.2489,-1.3514,-1.3664,-1.2899,-1.2918,-1.2918,-1.2915,-1.336,-1.3577,-1.3577,-1.3621,-1.4068,-1.4707,-1.4242,-1.473,-1.583,-1.6382,-1.7086,-1.7803,-1.8286,-1.8445,-1.8235,-2.3078,-2.3078,-2.3078,-2.3078,-2.3627,-2.428,-2.5084,-2.4607,-2.3904,-2.3165,-2.2927,-2.2159,-2.025,-2.182,-2.2439,-2.1162,-2.2138,-2.2485,-2.1543,-2.1656,-2.1167,-1.9861,-1.9723,-1.9359,-1.8643,-1.8769,-1.8593,-1.8078,-1.7626,-1.7639,-1.8053,-1.6961,-1.6502,-1.6451,-1.5931,-1.5339,-1.4772,-1.4796,-1.4996,-1.5285,-1.5285,-1.5477,-1.5799,-1.577,-1.577,-1.5799,-1.5799,-1.5799,-1.5799,-1.5799,-1.5799,-1.5799,-1.5799,-1.5799,-1.5799,-1.5799,-1.5799,-1.5799,-1.5799,-1.5799,-1.5799,-1.5799,-1.5799,-1.5799,-1.5799,-1.5799,-1.5799,-1.5799,-1.5274,-1.4767,-1.4737,-1.4184,-1.3929,-1.4543,0.0,0.0,-1.4618,-1.5229,-1.5604,-1.5649,-1.6697,-1.7413,-1.7473,-1.7029,-1.6698,-1.6577,-1.6158,-1.5841,-1.5724,-1.5841,-1.5626,-1.5072,-1.5563,-1.4924,-1.2978,-1.4182,-1.4257,-1.318,-1.3312,-1.3274,-1.3164,-1.2764,-1.2598,-1.2598,-1.2598,-1.3034,-1.3717,-1.3856,-1.3909,-1.4062,-1.5682,-1.5987,-1.5768,-1.7645,-1.8304,-1.8145,-2.3078,-2.3078,-2.3078,-2.3078,-2.4079,-2.4657,-2.4067,-2.4908,-2.5272,-2.4305,-2.418,-2.3326,-2.1091,-2.2221,-2.2664,-2.165,-2.2489,-2.2962,-2.2535,-2.2151,-2.1312,-1.9861,-1.9798,-1.9673,-1.9397,-1.9145,-1.8883,-1.8719,-1.7877,-1.789,-1.8694,-1.7576,-1.7282,-1.7624,-1.6322,-1.5505,-1.5021,-1.4547,-1.4452,-1.4564,-1.4655,-1.4873,-1.5163,-1.5163,-1.5163,-1.5224,-1.5654,-1.5668,-1.5522,-1.5741,-1.5799,-1.5799,-1.5799,-1.6054,-1.6458,-1.6862,-1.6697,-1.6458,-1.6877,-1.6383,-1.5799,-1.5799,-1.5799,-1.5799,-1.5799,-1.5799,-1.5799,-1.5799,-1.5604,-1.5424,-1.5424,-1.5229,-1.5246,-1.5875,0.0,-1.5396,-1.6458,-1.6473,-1.6518,-1.6937,-1.743,-1.7697,-1.7697,-1.7131,-1.6742,-1.6712,-1.6518,-1.6233,-1.5829,-1.5871,-1.5583,-1.4905,-1.5538,-1.5185,-1.3639,-1.4091,-1.4141,-1.3774,-1.3806,-1.3806,-1.3743,-1.318,-1.2914,-1.2839,-1.2489,-1.2484,-1.277,-1.3357,-1.3822,-1.4266,-1.5008,-1.5795,-1.6561,-1.724,-1.7816,-1.8142,-2.3078,-2.3078,-2.3078,-2.3078,-2.418,-2.4707,-2.3803,-2.4958,-2.5799,-2.5385,-2.4921,-2.3966,-2.2196,-2.2849,-2.3062,-2.2138,-2.2677,-2.3078,-2.3078,-2.2439,-2.1543,-2.0213,-2.0162,-2.0162,-2.0162,-1.9585,-1.9271,-1.9271,-1.8179,-1.8116,-1.8958,-1.7903,-1.7521,-1.7738,-1.641,-1.545,-1.4826,-1.4188,-1.4,-1.413,-1.4208,-1.4433,-1.4732,-1.4763,-1.4763,-1.4811,-1.5314,-1.5344,-1.5179,-1.5522,-1.5787,-1.5966,-1.6054,-1.6518,-1.7068,-1.7418,-1.7272,-1.7083,-1.7418,-1.6977,-1.6413,-1.6413,-1.6234,-1.6129,-1.6338,-1.6219,-1.6129,-1.6338,-1.6413,-1.6413,-1.6413,-1.6413,-1.6533,-1.695,-1.6682,-1.6697,-1.7563,-1.7488,-1.7488,-1.7951,-1.8208,-1.8343,-1.8343,-1.7712,-1.7324,-1.7324,-1.713,-1.6816,-1.6413,-1.6292,-1.599,-1.5482,-1.554,-1.5264,-1.4591,-1.4591,-1.4511,-1.4389,-1.4389,-1.4389,-1.4383,-1.352,-1.3122,-1.3076,-1.2451,-1.2287,-1.2555,-1.3221,-1.3803,-1.4334,-1.5011,-1.5447,-1.578,-1.6669,-1.7179,-1.7427,-2.3078,-2.3078,-2.3078,-2.3078,-2.3679,-2.4356,-2.4745,-2.4808,-2.5209,-2.6302,-2.5146,-2.3891,-2.3165,-2.3653,-2.354,-2.2422,-2.2824,-2.3078,-2.3078,-2.2623,-2.1907,-2.0949,-2.0899,-2.0886,-2.0886,-2.02,-1.9798,-1.9798,-1.8731,-1.8493,-1.8958,-1.7903,-1.7074,-1.6509,-1.6014,-1.5195,-1.4169,-1.3702,-1.3749,-1.4098,-1.4098,-1.431,-1.4596,-1.4732,-1.4732,-1.4596,-1.4763,-1.4808,-1.4839,-1.5179,-1.575,-1.6366,-1.6634,-1.7174,-1.7632,-1.7238,-1.7386,-1.7617,-1.7253,-1.7419,-1.7712,-1.7697,-1.7204,-1.6891,-1.7548,-1.7189,-1.6906,-1.7548,-1.7697,-1.7697,-1.7697,-1.7697,-1.7697,-1.7697,-1.7712,-1.7712,-1.7712,-1.8298,-1.8717,-1.8717,-1.9286,-1.969,-1.969,-1.9091,-1.8702,-1.8702,-1.8089,-1.7697,-1.7697,-1.721,-1.6894,-1.691,-1.5613,-1.5237,-1.59,-1.59,-1.5596,-1.5015,-1.5015,-1.5053,-1.5071,-1.3663,-1.3054,-1.3092,-1.2396,-1.2516,-1.3205,-1.3565,-1.3681,-1.3891,-1.582,-1.4837,-1.2713,-1.5823,-1.6435,-1.5896,-2.3078,-2.3078,-2.3078,-2.3078,-2.3653,-2.3966,-2.3616,-2.4318,-2.4845,-2.4895,-2.4406,-2.3991,-2.3766,-2.3891,-2.3866,-2.3527,-2.3653,-2.3565,-2.3103,-2.2975,-2.2774,-2.2439,-2.1732,-2.1142,-2.0765,-2.0526,-2.0024,-1.9258,-1.8945,-1.8869,-1.8958,-1.7903,-1.7488,-1.7639,-1.6338,-1.5545,-1.5219,-1.4333,-1.4069,-1.4175,-1.4328,-1.4183,-1.3974,-1.4687,-1.4573,-1.4145,-1.4998,-1.5183,-1.5106,-1.5789,-1.6374,-1.6967,-1.75,-1.7638,-1.7641,-1.7973,-1.7825,-1.7791,-1.8904,-1.8943,-1.8517,-1.7855,-1.7548,-1.7443,-1.7637,-1.7548,-1.7458,-1.7652,-1.7697,-1.7832,-1.8328,-1.8403,-1.8568,-1.9031,-1.9091,-1.9091,-1.9091,-1.9271,-1.939,-1.939,-1.957,-1.969,-1.969,-1.9091,-1.8702,-1.8702,-1.8089,-1.7924,-1.8388,-1.779,-1.7252,-1.6757,-1.6368,-1.6263,-1.6458,-1.6023,-1.6006,-1.6321,-1.6321,-1.635,-1.6334,-1.5065,-1.443,-1.4308,-1.3466,-1.3099,-1.3099,-1.2781,-1.2948,-1.3519,-1.4632,-1.4868,-1.4664,-1.5082,-1.5863,-1.6694,-2.3175,-2.3078,-2.3078,-2.3078,-2.3427,-2.354,-2.3188,-2.3654,-2.418,-2.4217,-2.4092,-2.4079,-2.4305,-2.433,-2.433,-2.433,-2.433,-2.4079,-2.3514,-2.3477,-2.3376,-2.3078,-2.2498,-2.1882,-2.133,-2.1104,-2.0564,-1.9673,-1.9673,-1.9447,-1.897,-1.8555,-1.8292,-1.8154,-1.6911,-1.6233,-1.5957,-1.4916,-1.4474,-1.4524,-1.4648,-1.4467,-1.422,-1.4879,-1.4777,-1.4388,-1.514,-1.5332,-1.5278,-1.5879,-1.6584,-1.7285,-1.7976,-1.8063,-1.804,-1.8683,-1.8676,-1.8774,-1.9893,-2.0013,-1.9667,-1.9104,-1.8743,-1.8493,-1.8493,-1.8493,-1.8583,-1.8817,-1.9121,-1.9331,-1.948,-1.972,-1.9929,-2.0064,-2.0303,-2.0483,-2.0483,-2.0258,-2.0094,-2.0094,-1.9854,-1.969,-1.969,-1.957,-1.9495,-1.9495,-1.9136,-1.8972,-1.9091,-1.8463,-1.7891,-1.7488,-1.7234,-1.71,-1.71,-1.6997,-1.7028,-1.7194,-1.6939,-1.6849,-1.6864,-1.5576,-1.4924,-1.4735,-1.3791,-1.3084,-1.2568,-1.2301,-1.2463,-1.2901,-1.3348,-1.4085,-1.4893,-1.494,-1.509,-1.5422,-2.3314,-2.3115,-2.309,-2.314,-2.3153,-2.3153,-2.3153,-2.3153,-2.3452,-2.4117,-2.4092,-2.423,-2.482,-2.4895,-2.4908,-2.4958,-2.4921,-2.4657,-2.4104,-2.4029,-2.3766,-2.3178,-2.3053,-2.2849,-2.2397,-2.1845,-2.1267,-2.0718,-2.0769,-2.0175,-1.9058,-1.9572,-1.9233,-1.8179,-1.7626,-1.7061,-1.6446,-1.5392,-1.5017,-1.5056,-1.5095,-1.5069,-1.5031,-1.5248,-1.5197,-1.5069,-1.5248,-1.535,-1.5389,-1.5744,-1.6491,-1.735,-1.8046,-1.8347,-1.854,-1.9098,-1.9634,-2.0062,-2.026,-2.0599,-2.0867,-2.0909,-2.0401,-1.9893,-1.9833,-1.9818,-2.0049,-2.0586,-2.1281,-2.1605,-2.0991,-2.1425,-2.165,-2.0991,-2.1395,-2.1754,-2.171,-2.1171,-2.0797,-2.0797,-2.0243,-1.9869,-1.9869,-2.0438,-2.0797,-2.0797,-2.0752,-2.0438,-1.9809,-1.9151,-1.8762,-1.8702,-1.81,-1.7802,-1.7861,-1.8493,-1.8493,-1.7861,-1.7204,-1.6953,-1.7015,-1.5617,-1.4893,-1.4656,-1.3694,-1.2862,-1.2156,-1.2161,-1.2174,-1.2174,-1.2174,-1.2789,-1.3816,-1.5098,-1.444,-1.3304,-2.3841,-2.3439,-2.3215,-2.3728,-2.3803,-2.3803,-2.3803,-2.3803,-2.3866,-2.4029,-2.4017,-2.4368,-2.5322,-2.5423,-2.5611,-2.6063,-2.5686,-2.5209,-2.4669,-2.4243,-2.3941,-2.3816,-2.2962,-2.2636,-2.2949,-2.2422,-2.1656,-2.0718,-2.1104,-2.0727,-1.9635,-1.9748,-1.9233,-1.8179,-1.7626,-1.7061,-1.6471,-1.5806,-1.5517,-1.5558,-1.5651,-1.5424,-1.5069,-1.5565,-1.5516,-1.5223,-1.5631,-1.5783,-1.5967,-1.6837,-1.6993,-1.6946,-1.7626,-1.7906,-1.8064,-1.8296,-1.8772,-1.936,-2.0225,-2.0525,-2.0661,-2.1046,-2.1269,-2.1274,-2.0764,-2.0956,-2.1173,-2.0933,-2.1736,-2.2428,-2.2278,-2.2757,-2.2981,-2.2353,-2.2368,-2.2278,-2.1769,-2.1575,-2.1485,-2.1485,-2.135,-2.1261,-2.1261,-2.1395,-2.1485,-2.1485,-2.1006,-2.0647,-2.0498,-1.9854,-1.9226,-1.8717,-1.8568,-1.8747,-1.9256,-1.9405,-1.9405,-1.9256,-1.8597,-1.8283,-1.8272,-1.7029,-1.6112,-1.5467,-1.4338,-1.4252,-1.4779,-1.2742,-1.1949,-1.2033,-1.2024,-1.2246,-1.2722,-1.4039,-1.5128,-1.6055,-2.364,-2.3565,-2.3552,-2.359,-2.3816,-2.4004,-2.4004,-2.3766,-2.369,-2.3966,-2.3753,-2.4004,-2.5109,-2.5222,-2.5561,-2.6458,-2.6189,-2.5774,-2.5222,-2.4695,-2.4155,-2.3602,-2.3025,-2.2711,-2.2736,-2.2711,-2.2297,-2.1443,-2.2008,-2.1707,-2.0602,-2.0602,-2.0175,-1.9346,-1.853,-1.8003,-1.7618,-1.6848,-1.6497,-1.6471,-1.625,-1.6002,-1.5774,-1.6131,-1.6097,-1.5881,-1.6173,-1.6464,-1.6723,-1.7031,-1.7334,-1.7613,-1.7596,-1.7909,-1.8384,-1.8975,-1.9311,-1.9655,-2.0604,-2.0813,-2.0908,-2.1156,-2.1449,-2.153,-2.1038,-2.158,-2.2118,-2.1801,-2.2485,-2.3026,-2.2727,-2.3445,-2.3774,-2.2873,-2.3206,-2.337,-2.2697,-2.2353,-2.2158,-2.2158,-2.1889,-2.1814,-2.2143,-2.2158,-2.2158,-2.2158,-2.1844,-2.1515,-2.1201,-2.0842,-2.0348,-1.969,-1.966,-1.9675,-1.969,-1.969,-1.9854,-2.0168,-1.9824,-1.9331,-1.8672,-1.7702,-1.6758,-1.5754,-1.5119,-1.5209,-1.5694,-1.43,-1.3404,-1.2879,-1.2175,-1.1976,-1.2176,-1.3313,-1.5105,-1.6797,-2.3376,-2.359,-2.3766,-2.3416,-2.374,-2.4029,-2.4117,-2.3653,-2.3452,-2.3941,-2.3577,-2.3715,-2.4833,-2.5046,-2.5423,-2.6269,-2.6302,-2.6101,-2.5624,-2.5109,-2.4406,-2.3403,-2.3178,-2.2865,-2.246,-2.2811,-2.2774,-2.2309,-2.2774,-2.2422,-2.1343,-2.1343,-2.1054,-2.0476,-1.9472,-1.8983,-1.897,-1.7953,-1.7526,-1.7476,-1.6999,-1.681,-1.6798,-1.6809,-1.6822,-1.6798,-1.6809,-1.7137,-1.7496,-1.7087,-1.7676,-1.8456,-1.7867,-1.8175,-1.9006,-1.9887,-2.0159,-2.0284,-2.0908,-2.1171,-2.1238,-2.1251,-2.1444,-2.1595,-2.135,-2.2104,-2.2899,-2.2933,-2.3495,-2.3851,-2.345,-2.4253,-2.464,-2.3684,-2.4224,-2.4536,-2.3879,-2.324,-2.2882,-2.2847,-2.2353,-2.2192,-2.2688,-2.279,-2.2832,-2.2832,-2.2783,-2.2443,-2.1889,-2.1754,-2.1455,-2.0902,-2.0887,-2.0662,-2.0198,-2.0094,-2.0378,-2.1051,-2.0932,-2.0183,-1.8852,-1.8194,-1.7191,-1.6008,-1.5858,-1.5799,-1.5799,-1.5799,-1.5224,-1.4177,-1.2959,-1.2253,-1.1973,-1.2709,-1.4633,-1.6527,-2.3891,-2.354,-2.354,-2.4431,-2.4255,-2.4167,-2.4644,-2.4243,-2.3916,-2.3991,-2.3929,-2.4293,-2.5372,-2.5937,-2.6118,-2.5561,-2.5636,-2.5686,-2.5598,-2.5109,-2.4757,-2.4607,-2.3665,-2.304,-2.2965,-2.2636,-2.2385,-2.2309,-2.2385,-2.1857,-2.0832,-2.0832,-2.0476,-1.9886,-1.9296,-1.8983,-1.8933,-1.8355,-1.8091,-1.8091,-1.8003,-1.7978,-1.7928,-1.7496,-1.7564,-1.7915,-1.7483,-1.7626,-1.8078,-1.8003,-1.8172,-1.8414,-1.8338,-1.8729,-1.9333,-1.9458,-1.9943,-2.0458,-2.0586,-2.0913,-2.129,-2.1433,-2.2061,-2.2708,-2.279,-2.3285,-2.3746,-2.3814,-2.4661,-2.5552,-2.6046,-2.6279,-2.6542,-2.6882,-2.6149,-2.5326,-2.4566,-2.4011,-2.3595,-2.3507,-2.34,-2.3198,-2.2892,-2.3259,-2.3475,-2.3475,-2.2981,-2.2679,-2.2547,-2.2009,-2.1665,-2.156,-2.156,-2.1799,-2.2304,-2.171,-2.1754,-2.2398,-2.1829,-2.0857,-1.9525,-1.8867,-1.7954,-1.6893,-1.6128,-1.5799,-1.5799,-1.5799,-1.5694,-1.5542,-1.5334,-1.385,-1.1826,-1.2018,-1.3743,-1.5966,-2.3514,-2.3828,-2.4042,-2.3904,-2.4443,-2.477,-2.4418,-2.4155,-2.4004,-2.4004,-2.3715,-2.3816,-2.4619,-2.5209,-2.5536,-2.5498,-2.5285,-2.5159,-2.5159,-2.4657,-2.4356,-2.4356,-2.3577,-2.2987,-2.2686,-2.2435,-2.2008,-2.1393,-2.2008,-2.1907,-2.1117,-2.0869,-2.058,-2.0263,-1.971,-1.9459,-1.9422,-1.8894,-1.8668,-1.8643,-1.8329,-1.8204,-1.8179,-1.794,-1.799,-1.8179,-1.7928,-1.8191,-1.8618,-1.8304,-1.8702,-1.9255,-1.8841,-1.9181,-1.9724,-1.9724,-1.9889,-2.0207,-2.0604,-2.0872,-2.1181,-2.1529,-2.1962,-2.2548,-2.3339,-2.3722,-2.3928,-2.3923,-2.4323,-2.4796,-2.508,-2.5706,-2.6107,-2.6015,-2.6112,-2.5836,-2.4798,-2.4174,-2.3708,-2.3275,-2.3763,-2.3837,-2.2963,-2.3334,-2.3508,-2.3246,-2.3212,-2.3106,-2.2848,-2.2795,-2.2468,-2.1848,-2.2111,-2.2066,-2.1689,-2.1709,-2.1709,-2.1674,-2.1068,-2.0427,-1.9675,-1.9176,-1.8377,-1.743,-1.7327,-1.6983,-1.6488,-1.6008,-1.5799,-1.5649,-1.4165,-1.3136,-1.2463,-1.2006,-1.2561,-1.3815]},{"header":{"parameterUnit":"m.s-1","parameterCategory":1,"la1":30.6,"la2":28.766,"lo1":-90.7593,"lo2":-88.6598,"dy":0.0162,"dx":0.0183,"nx":116,"ny":114,"refTime":"2023-05-07T12:00:00:Z","depth":0,"parameterNumber":3,"parameterNumberName":"V-component_of_WINDS"},"data":[0.0,0.0,0.0,0.0,0.0,0.0,0.0,0.0,0.0,0.0,0.0,0.0,0.0,0.0,0.0,0.0,0.0,0.0,0.0,0.0,0.0,0.0,0.0,0.0,0.0,0.0,0.0,0.0,0.0,0.0,0.0,0.0,0.0,0.0,0.0,0.0,0.0,0.0,0.0,0.0,0.0,0.0,0.0,0.0,0.0,0.0,0.0,0.0,0.0,0.0,0.0,0.0,0.0,0.0,0.0,0.0,0.0,0.0,0.0,0.0,0.0,0.0,0.0,0.0,0.0,0.0,0.0,0.0,0.0,0.0,0.0,0.0,0.0,0.0,0.0,0.0,0.0,0.0,0.0,0.0,0.0,0.0,0.0,0.0,0.0,0.0,0.0,0.0,0.0,0.0,0.0,0.0,0.0,0.0,0.0,0.0,0.0,0.0,0.0,0.0,0.0,0.0,0.0,0.0,0.0,0.0,0.0,0.0,0.0,0.0,0.0,0.0,0.0,0.0,0.0,0.0,0.0,0.0,0.0,0.0,0.0,0.0,0.0,0.0,0.0,0.0,0.0,0.0,0.0,0.0,0.0,0.0,0.0,0.0,0.0,0.0,0.0,0.0,0.0,0.0,0.0,0.0,0.0,0.0,0.0,0.0,0.0,0.0,0.0,0.0,0.0,0.0,0.0,0.0,0.0,0.0,0.0,0.0,0.0,0.0,0.0,0.0,0.0,0.0,0.0,0.0,0.0,0.0,0.0,0.0,0.0,0.0,0.0,0.0,0.0,0.0,0.0,0.0,0.0,0.0,0.0,0.0,0.0,0.0,0.0,0.0,0.0,0.0,0.0,0.0,0.0,0.0,0.0,0.0,0.0,0.0,0.0,0.0,0.0,0.0,0.0,0.0,0.0,0.0,0.0,0.0,0.0,0.0,0.0,0.0,0.0,0.0,0.0,0.0,0.0,0.0,0.0,0.0,0.0,0.0,0.0,0.0,0.0,0.0,0.0,0.0,0.0,0.0,0.0,0.0,0.0,0.0,0.0,0.0,0.0,0.0,0.0,0.0,0.0,0.0,0.0,0.0,0.0,0.0,0.0,0.0,0.0,0.0,0.0,0.0,0.0,0.0,0.0,0.0,0.0,0.0,0.0,0.0,0.0,0.0,0.0,0.0,0.0,0.0,0.0,0.0,0.0,0.0,0.0,0.0,0.0,0.0,0.0,0.0,0.0,0.0,0.0,0.0,0.0,0.0,0.0,0.0,0.0,0.0,0.0,0.0,0.0,0.0,0.0,0.0,0.0,0.0,0.0,0.0,0.0,0.0,0.0,0.0,0.0,0.0,0.0,0.0,0.0,0.0,0.0,0.0,0.0,0.0,0.0,0.0,0.0,0.0,0.0,0.0,0.0,0.0,0.0,0.0,0.0,0.0,0.0,0.0,0.0,0.0,0.0,0.0,0.0,0.0,0.0,0.0,0.0,0.0,0.0,0.0,0.0,0.0,0.0,0.0,0.0,0.0,0.0,0.0,0.0,0.0,0.0,0.0,0.0,0.0,0.0,0.0,0.0,0.0,0.0,0.0,0.0,0.0,0.0,0.0,0.0,0.0,0.0,0.0,0.0,0.0,0.0,0.0,0.0,0.0,0.0,0.0,0.0,0.0,0.0,0.0,0.0,0.0,0.0,0.0,0.0,0.0,0.0,0.0,0.0,0.0,0.0,0.0,0.0,0.0,0.0,0.0,0.0,0.0,0.0,0.0,0.0,0.0,0.0,0.0,0.0,0.0,0.0,0.0,0.0,0.0,0.0,0.0,0.0,0.0,0.0,0.0,0.0,0.0,0.0,0.0,0.0,0.0,0.0,0.0,0.0,0.0,0.0,0.0,0.0,0.0,0.0,0.0,0.0,0.0,0.0,0.0,0.0,0.0,0.0,0.0,0.0,0.0,0.0,0.0,0.0,0.0,0.0,0.0,0.0,0.0,0.0,0.0,0.0,0.0,0.0,0.0,0.0,0.0,0.0,0.0,0.0,0.0,0.0,0.0,0.0,0.0,0.0,0.0,0.0,0.0,0.0,0.0,0.0,0.0,0.0,0.0,0.0,0.0,0.0,0.0,0.0,0.0,0.0,0.0,0.0,0.0,0.0,0.0,0.0,0.0,0.0,0.0,0.0,0.0,0.0,0.0,0.0,0.0,0.0,0.0,0.0,0.0,0.0,0.0,0.0,0.0,0.0,0.0,0.0,0.0,0.0,0.0,0.0,0.0,0.0,0.0,0.0,0.0,0.0,0.0,0.0,0.0,0.0,0.0,0.0,0.0,0.0,0.0,0.0,0.0,0.0,0.0,0.0,0.0,0.0,0.0,0.0,0.0,0.0,0.0,0.0,0.0,0.0,0.0,0.0,0.0,0.0,0.0,0.0,0.0,0.0,0.0,0.0,0.0,0.0,0.0,0.0,0.0,0.0,0.0,0.0,0.0,0.0,0.0,0.0,0.0,0.0,0.0,0.0,0.0,0.0,0.0,0.0,0.0,0.0,0.0,0.0,0.0,0.0,0.0,0.0,0.0,0.0,0.0,0.0,0.0,0.0,0.0,0.0,0.0,0.0,0.0,0.0,0.0,0.0,0.0,0.0,0.0,0.0,0.0,0.0,0.0,0.0,0.0,0.0,0.0,0.0,0.0,0.0,0.0,0.0,0.0,0.0,0.0,0.0,0.0,0.0,0.0,0.0,0.0,0.0,0.0,0.0,0.0,0.0,0.0,0.0,0.0,0.0,0.0,0.0,0.0,0.0,0.0,0.0,0.0,0.0,0.0,0.0,0.0,0.0,0.0,0.0,0.0,0.0,0.0,0.0,0.0,0.0,0.0,0.0,0.0,0.0,0.0,0.0,0.0,0.0,0.0,0.0,0.0,0.0,0.0,0.0,0.0,0.0,0.0,0.0,0.0,0.0,0.0,0.0,0.0,0.0,0.0,0.0,0.0,0.0,0.0,0.0,0.0,0.0,0.0,0.0,0.0,0.0,0.0,0.0,0.0,0.0,0.0,0.0,0.0,0.0,0.0,0.0,0.0,0.0,0.0,0.0,0.0,0.0,0.0,0.0,0.0,0.0,0.0,0.0,0.0,0.0,0.0,0.0,0.0,0.0,0.0,0.0,0.0,0.0,0.0,0.0,0.0,0.0,0.0,0.0,0.0,0.0,0.0,0.0,0.0,0.0,0.0,0.0,0.0,0.0,0.0,0.0,0.0,0.0,0.0,0.0,0.0,0.0,0.0,0.0,0.0,0.0,0.0,0.0,0.0,0.0,0.0,0.0,0.0,0.0,0.0,0.0,0.0,0.0,0.0,0.0,0.0,0.0,0.0,0.0,0.0,0.0,0.0,0.0,0.0,0.0,0.0,0.0,0.0,0.0,0.0,0.0,0.0,0.0,0.0,0.0,0.0,0.0,0.0,0.0,0.0,0.0,0.0,0.0,0.0,0.0,0.0,0.0,0.0,0.0,0.0,0.0,0.0,0.0,0.0,0.0,0.0,0.0,0.0,0.0,0.0,0.0,0.0,0.0,0.0,0.0,0.0,0.0,0.0,0.0,0.0,0.0,0.0,0.0,0.0,0.0,0.0,0.0,0.0,0.0,0.0,0.0,0.0,0.0,0.0,0.0,0.0,0.0,0.0,0.0,0.0,0.0,0.0,0.0,0.0,0.0,0.0,0.0,0.0,0.0,0.0,0.0,0.0,0.0,0.0,0.0,0.0,0.0,0.0,0.0,0.0,0.0,0.0,0.0,0.0,0.0,0.0,0.0,0.0,0.0,0.0,0.0,0.0,0.0,0.0,0.0,0.0,0.0,0.0,0.0,0.0,0.0,0.0,0.0,0.0,0.0,0.0,0.0,0.0,0.0,0.0,0.0,0.0,0.0,0.0,0.0,0.0,0.0,0.0,0.0,0.0,0.0,0.0,0.0,0.0,0.0,0.0,0.0,0.0,0.0,0.0,0.0,0.0,0.0,0.0,0.0,0.0,0.0,0.0,0.0,0.0,0.0,0.0,0.0,0.0,0.0,0.0,0.0,0.0,0.0,0.0,0.0,0.0,0.0,0.0,0.0,0.0,0.0,0.0,0.0,0.0,0.0,0.0,0.0,0.0,0.0,0.0,0.0,0.0,0.0,0.0,0.0,0.0,0.0,0.0,0.0,0.0,0.0,0.0,0.0,0.0,0.0,0.0,0.0,0.0,0.0,0.0,0.0,0.0,0.0,0.0,0.0,0.0,0.0,0.0,0.0,0.0,0.0,0.0,0.0,0.0,0.0,0.0,0.0,0.0,0.0,0.0,0.0,0.0,0.0,0.0,0.0,0.0,0.0,0.0,0.0,0.0,0.0,0.0,0.0,0.0,0.0,0.0,0.0,0.0,0.0,0.0,0.0,0.0,0.0,0.0,0.0,0.0,0.0,0.0,0.0,0.0,0.0,0.0,0.0,0.0,0.0,0.0,0.0,0.0,0.0,0.0,0.0,0.0,0.0,0.0,0.0,0.0,0.0,0.0,0.0,0.0,0.0,0.0,0.0,0.0,0.0,0.0,0.0,0.0,0.0,0.0,0.0,0.0,0.0,0.0,0.0,0.0,0.0,0.0,0.0,0.0,0.0,0.0,0.0,0.0,0.0,0.0,0.0,0.0,0.0,0.0,0.0,0.0,0.0,0.0,0.0,0.0,0.0,0.0,0.0,0.0,0.0,0.0,0.0,0.0,0.0,0.0,0.0,0.0,0.0,0.0,0.0,0.0,0.0,0.0,0.0,0.0,0.0,0.0,0.0,0.0,0.0,0.0,0.0,0.0,0.0,0.0,0.0,0.0,0.0,0.0,0.0,0.0,0.0,0.0,0.0,0.0,0.0,0.0,0.0,0.0,0.0,0.0,0.0,0.0,0.0,0.0,0.0,0.0,0.0,0.0,0.0,0.0,0.0,0.0,0.0,0.0,0.0,0.0,0.0,0.0,0.0,0.0,0.0,0.0,0.0,0.0,0.0,0.0,0.0,0.0,0.0,0.0,0.0,0.0,0.0,0.0,0.0,0.0,0.0,0.0,0.0,0.0,0.0,0.0,0.0,0.0,0.0,0.0,0.0,0.0,0.0,0.0,0.0,0.0,0.0,0.0,0.0,0.0,0.0,0.0,0.0,0.0,0.0,0.0,0.0,0.0,0.0,0.0,0.0,0.0,0.0,0.0,0.0,0.0,0.0,0.0,0.0,0.0,0.0,0.0,0.0,0.0,0.0,0.0,0.0,0.0,0.0,0.0,0.0,0.0,0.0,0.0,0.0,0.0,0.0,0.0,0.0,0.0,0.0,0.0,0.0,0.0,0.0,0.0,0.0,0.0,0.0,0.0,0.0,0.0,0.0,0.0,0.0,0.0,0.0,0.0,0.0,0.0,0.0,0.0,0.0,0.0,0.0,0.0,0.0,0.0,0.0,0.0,0.0,0.0,0.0,0.0,0.0,0.0,0.0,0.0,0.0,0.0,0.0,0.0,0.0,0.0,0.0,0.0,0.0,0.0,0.0,0.0,0.0,0.0,0.0,0.0,0.0,0.0,0.0,0.0,0.0,0.0,0.0,0.0,0.0,0.0,0.0,0.0,0.0,0.0,0.0,0.0,0.0,0.0,0.0,0.0,0.0,0.0,0.0,0.0,0.0,0.0,0.0,0.0,0.0,0.0,0.0,0.0,0.0,0.0,0.0,0.0,0.0,0.0,0.0,0.0,0.0,0.0,0.0,0.0,0.0,0.0,0.0,0.0,0.0,0.0,0.0,0.0,0.0,0.0,0.0,0.0,0.0,0.0,0.0,0.0,0.0,0.0,0.0,0.0,0.0,0.0,0.0,0.0,0.0,0.0,0.0,0.0,0.0,0.0,0.0,0.0,0.0,0.0,0.0,0.0,0.0,0.0,0.0,0.0,0.0,0.0,0.0,0.0,0.0,0.0,0.0,0.0,0.0,0.0,0.0,0.0,0.0,0.0,0.0,0.0,0.0,0.0,0.0,0.0,0.0,0.0,0.0,0.0,0.0,0.0,0.0,0.0,0.0,0.0,0.0,0.0,0.0,0.0,0.0,0.0,0.0,0.0,0.0,0.0,-0.7802,0.0,0.0,0.0,0.0,0.0,0.0,0.0,0.0,0.0,0.0,0.0,0.0,0.0,0.0,0.0,0.0,0.0,0.0,0.0,0.0,0.0,0.0,0.0,0.0,0.0,0.0,0.0,0.0,0.0,0.0,0.0,0.0,0.0,0.0,0.0,0.0,0.0,0.0,0.0,-0.0899,-0.0899,-0.0906,-0.1133,-0.1265,-0.1316,0.0,0.0,0.0,0.0,0.0,0.0,0.0,0.0,0.0,0.0,0.0,0.0,0.0,0.0,0.0,0.0,0.0,0.0,0.0,0.0,0.0,0.0,0.0,0.0,0.0,0.0,0.0,0.0,0.0,0.0,0.0,0.0,0.0,0.0,0.0,0.0,0.0,0.0,0.0,0.0,0.0,0.0,0.0,0.0,0.0,0.0,0.0,0.0,0.0,0.0,0.0,0.0,0.0,0.0,0.0,0.0,0.0,0.0,0.0,0.0,0.0,0.0,0.0,0.0,0.0,0.0,0.0,0.0,0.0,0.0,0.0,-0.7497,0.0,0.0,0.0,0.0,0.0,0.0,0.0,0.0,0.0,0.0,0.0,0.0,0.0,0.0,0.0,0.0,0.0,0.0,0.0,0.0,0.0,0.0,0.0,0.0156,0.0115,0.001,0.0,0.0,0.0,0.0,0.0,0.0,0.0,0.0,0.0,-0.0872,-0.0899,-0.0899,-0.0899,-0.0939,-0.1024,-0.1476,-0.1587,-0.1429,-0.1686,0.0,0.0,0.0,0.0,0.0,0.0,0.0,0.0,0.0,0.0,0.0,0.0,0.0,0.0,0.0,0.0,0.0,0.0,0.0,0.0,0.0,0.0,0.0,0.0,0.0,0.0,0.0,0.0,0.0,0.0,0.0,0.0,0.0,0.0,0.0,0.0,0.0,0.0,0.0,0.0,0.0,0.0,0.0,0.0,0.0,0.0,0.0,0.0,0.0,0.0,0.0,0.0,0.0,0.0,0.0,0.0,0.0,0.0,0.0,0.0,0.0,0.0,0.0,-0.5268,-0.5274,-0.484,-0.6013,-0.6724,-0.7087,-0.7209,-0.6664,-0.5839,0.0,0.0,0.0,0.0,0.0,0.0,0.0,0.0,0.0,0.0,0.0,0.0,0.0,0.0,0.0,0.0,0.0,0.0,0.0,0.0,0.0,0.0,0.078,0.0574,0.0047,0.0,0.0,0.0,0.0,0.0,0.0,0.0,0.0,-0.0474,-0.0754,-0.0899,-0.0899,-0.0899,-0.1112,-0.1507,-0.1871,-0.1981,-0.1896,-0.1825,-0.1855,-0.197,0.0,0.0,0.0,0.0,0.0,0.0,0.0,0.0,0.0,0.0,0.0,0.0,0.0,0.0,0.0,0.0,0.0,0.0,0.0,0.0,0.0,0.0,0.0,0.0,0.0,0.0,0.0,0.0,0.0,0.0,0.0,0.0,0.0,0.0,0.0,0.0,0.0,0.0,0.0,0.0,0.0,-0.5916,-0.667,0.0,0.0,0.0,0.0,0.0,0.0,0.0,0.0,0.0,0.0,0.0,0.0,0.0,0.0,-0.4419,-0.477,-0.4809,-0.4572,-0.7132,-0.7102,-0.4807,-0.5002,-0.6361,-0.8603,-0.8625,0.0,-0.4958,-0.5036,0.0,0.0,0.0,0.0,0.0,0.0,0.0,0.0,0.0,0.0,0.0,0.0,0.0,0.0,0.0,0.0,0.0,0.0,0.0,0.0,0.0,0.0899,0.0719,0.0267,0.0086,0.0,0.0,0.0,0.0,0.0,0.0,-0.0838,-0.0685,-0.0821,-0.1007,-0.1243,-0.1356,-0.1631,-0.2053,-0.2123,-0.213,-0.2107,-0.2043,-0.2028,-0.1998,-0.1845,0.0,0.0,0.0,0.0,0.0,0.0,0.0,0.0,0.0,0.0,0.0,0.0,0.0,0.0,0.0,0.0,0.0,0.0,0.0,0.0,0.0,0.0,0.0,0.0,0.0,0.0,0.0,0.0,0.0,0.0,0.0,0.0,0.0,0.0,0.0,0.0,0.0,0.0,0.0,-0.6392,-0.6607,-0.7243,-0.6994,-0.6841,0.0,0.0,0.0,0.0,0.0,0.0,0.0,0.0,0.0,-0.7197,-0.5457,-0.4499,-0.4499,-0.6148,-0.6978,-0.6994,-0.8282,-0.8268,-0.7102,-0.7102,-0.775,-0.8891,-0.8891,-0.8217,-0.6971,-0.5336,-0.543,-0.6717,0.0,0.0,0.0,0.0,-0.7598,-0.6586,0.0,0.0,0.0,0.0,0.0,0.0,0.0,0.0,0.0,0.0,0.0,0.0,0.0958,0.0991,0.0846,0.0441,0.026,0.0135,0.0012,0.0,-0.009,-0.0288,-0.0632,-0.0832,-0.0854,-0.091,-0.1133,-0.1524,-0.171,-0.204,-0.2486,-0.2502,-0.2509,-0.2432,-0.2541,-0.2392,-0.2033,-0.1906,-0.184,-0.1813,0.0,0.0,0.0,0.0,0.0,0.0,0.0,0.0,0.0,0.0,0.0,0.0,0.0,0.0,0.0,0.0,0.0,0.0,0.0,0.0,0.0,0.0,0.0,0.0,0.0,0.0,0.0,0.0,0.0,0.0,0.0,0.0,0.0,0.0,0.0,0.0,0.0,-0.6106,-0.6997,-0.7212,-0.6535,-0.6352,0.0,0.0,0.0,0.0,0.0,0.0,-0.6097,-0.6157,-0.6341,-0.6668,-0.5552,-0.5146,-0.5616,-0.7807,-0.8891,-0.8891,-0.8749,-0.8691,-0.8691,-0.8691,-0.8778,-0.8891,-0.8749,-0.8778,-0.8676,-0.5881,-0.4728,-0.4897,-0.6697,-0.7493,-0.7602,-0.7241,-0.6137,-0.4921,0.0,0.0,0.0,0.0,0.0,0.0,0.0,0.0,0.0,0.0,0.0,0.0335,0.1097,0.1245,0.104,0.0448,0.0562,0.0473,0.003,0.0,-0.0086,-0.0296,-0.05,-0.0648,-0.0706,-0.0964,-0.1251,-0.1606,-0.173,-0.2112,-0.2699,-0.3212,-0.3285,-0.3069,-0.3532,-0.3139,-0.2191,-0.2037,-0.1916,-0.1803,-0.1813,0.0,0.0,0.0,0.0,0.0,0.0,0.0,0.0,0.0,0.0,0.0,0.0,0.0,0.0,0.0,0.0,0.0,0.0,0.0,0.0,0.0,0.0,0.0,0.0,0.0,0.0,0.0,0.0,0.0,0.0,0.0,0.0,0.0,0.0,0.0,0.0,0.0,0.0,-0.5481,-0.5723,0.0,0.0,0.0,0.0,-0.6155,-0.6124,-0.6272,-0.6638,-0.6836,-0.6842,-0.661,-0.6276,-0.694,-0.8654,-0.8824,-0.8891,-0.8891,-0.8383,-0.8135,-0.8135,-0.8135,-0.8422,-0.8869,-0.8358,-0.8434,-0.8682,-0.5722,-0.4522,-0.4533,-0.4657,-0.5613,-0.6791,-0.5455,-0.4884,-0.525,0.0,0.0,0.0,0.0,0.0,0.0,0.0,0.0,0.1306,0.1737,0.1314,0.1072,0.1358,0.1338,0.1106,0.0632,0.0665,0.0509,0.0029,-0.0125,-0.0244,-0.0358,-0.0637,-0.0846,-0.0954,-0.1263,-0.1573,-0.1852,-0.2122,-0.2455,-0.2829,-0.3035,-0.3328,-0.3694,-0.3851,-0.3854,-0.3676,-0.2723,-0.2211,-0.204,-0.1967,-0.1896,0.0,0.0,0.0,0.0,0.0,0.0,0.0,0.0,0.0,0.0,0.0,0.0,0.0,0.0,0.0,0.0,0.0,0.0,0.0,0.0,0.0,0.0,0.0,0.0,0.0,0.0,0.0,0.0,0.0,0.0,0.0,0.0,0.0,0.0,0.0,0.0,0.0,-0.6141,-0.6653,0.0,0.0,-0.6443,-0.6188,-0.6407,-0.6466,-0.6538,-0.6628,-0.6873,-0.6876,-0.6604,-0.7098,-0.7657,-0.824,-0.8269,-0.8269,-0.8256,-0.8068,-0.797,-0.797,-0.797,-0.8082,-0.8267,-0.851,-0.8715,-0.8807,-0.7757,-0.6215,-0.4601,-0.5541,-0.5695,-0.5527,-0.6915,-0.745,-0.7614,0.0,0.0,0.0,0.0,0.0,0.0,0.0,0.0,0.1792,0.1792,0.1687,0.1581,0.1509,0.1419,0.1179,0.0734,0.0699,0.0506,0.0028,-0.0165,-0.0309,-0.0393,-0.0765,-0.1025,-0.1169,-0.1504,-0.1833,-0.2157,-0.2438,-0.2743,-0.3056,-0.3279,-0.3594,-0.3915,-0.4111,-0.4357,-0.4545,-0.3524,-0.2928,-0.2683,-0.2473,-0.2326,-0.2205,0.0,0.0,0.0,0.0,0.0,0.0,0.0,0.0,0.0,0.0,0.0,0.0,0.0,0.0,0.0,0.0,0.0,0.0,0.0,0.0,0.0,0.0,0.0,0.0,0.0,0.0,0.0,0.0,0.0,0.0,0.0,0.0,0.0,0.0,0.0,-0.6078,-0.673,-0.6871,-0.7055,-0.7428,-0.6747,-0.6355,-0.6583,-0.6912,-0.7078,-0.7043,-0.7202,-0.7217,-0.7045,-0.7641,-0.7971,-0.7956,-0.7928,-0.7899,-0.7899,-0.7957,-0.7956,-0.7956,-0.7956,-0.7956,-0.7984,-0.8434,-0.8667,-0.8731,-0.8766,-0.7671,-0.6022,-0.6521,-0.62,-0.5633,-0.6944,-0.8044,-0.8891,0.0,0.0,0.0,0.0,0.0,0.0,0.0,0.1033,0.1772,0.1803,0.1792,0.1723,0.1521,0.1498,0.1288,0.0752,0.0712,0.0504,0.0028,-0.0122,-0.0268,-0.0416,-0.0858,-0.1179,-0.1323,-0.1652,-0.2046,-0.2496,-0.2651,-0.292,-0.3309,-0.4037,-0.4135,-0.3741,-0.4355,-0.4618,-0.4604,-0.4328,-0.4037,-0.3732,-0.3305,-0.2978,-0.2711,0.0,0.0,0.0,0.0,0.0,0.0,0.0,0.0,0.0,0.0,0.0,0.0,0.0,0.0,0.0,0.0,0.0,0.0,0.0,0.0,0.0,0.0,0.0,0.0,0.0,0.0,0.0,0.0,0.0,0.0,0.0,0.0,0.0,-0.5742,-0.5367,-0.5647,-0.7013,-0.6281,-0.593,-0.6569,-0.6633,-0.664,-0.664,-0.742,-0.7899,-0.7899,-0.7899,-0.7899,-0.7899,-0.7899,-0.7956,-0.808,-0.797,-0.7899,-0.7914,-0.804,-0.8094,-0.8094,-0.8094,-0.8094,-0.8094,-0.8094,-0.8203,-0.8387,-0.846,-0.8644,-0.8745,-0.7315,-0.7044,-0.7213,-0.5328,-0.6453,-0.8902,0.0,0.0,0.0,0.0,0.0,0.0,0.0,0.1211,0.13,0.1737,0.1792,0.1723,0.1521,0.1495,0.129,0.075,0.0792,0.0608,0.0042,-0.0171,-0.0456,-0.0889,-0.112,-0.143,-0.1795,-0.2143,-0.2469,-0.2784,-0.293,-0.3078,-0.3306,-0.3509,-0.3799,-0.4216,-0.4482,-0.4836,-0.526,-0.5075,-0.5114,-0.5216,-0.4177,-0.3716,-0.3563,0.0,0.0,0.0,0.0,0.0,0.0,0.0,0.0,0.0,0.0,0.0,0.0,0.0,0.0,0.0,0.0,0.0,0.0,0.0,0.0,0.0,0.0,0.0,0.0,0.0,0.0,0.0,0.0,0.0,0.0,0.0,0.0,-0.5845,-0.5654,-0.5826,-0.6119,-0.6503,-0.6843,-0.7114,-0.7301,-0.733,-0.7386,-0.7526,-0.7621,-0.7739,-0.7885,-0.7899,-0.7899,-0.7899,-0.7899,-0.7914,-0.7957,-0.8012,-0.8054,-0.8054,-0.808,-0.8094,-0.8094,-0.8094,-0.8094,-0.8094,-0.8094,-0.8109,-0.8139,-0.8399,-0.851,-0.853,-0.8365,-0.8383,-0.8417,-0.7892,-0.8275,-0.9028,0.0,0.0,0.0,0.0,0.0,0.0,0.0,0.1176,0.1402,0.1751,0.1792,0.1723,0.1521,0.1444,0.125,0.0822,0.0733,0.0496,0.0034,-0.0167,-0.052,-0.1111,-0.1325,-0.1625,-0.207,-0.2459,-0.2791,-0.3055,-0.3139,-0.3252,-0.3446,-0.3442,-0.3698,-0.4128,-0.4176,-0.4574,-0.5125,-0.491,-0.5136,-0.5482,-0.4694,-0.4482,-0.4543,-0.3693,-0.3604,-0.3901,-0.3674,-0.3895,-0.4309,-0.4195,0.0,0.0,0.0,0.0,0.0,0.0,0.0,0.0,0.0,0.0,0.0,0.0,0.0,0.0,0.0,0.0,0.0,0.0,0.0,0.0,0.0,0.0,0.0,0.0,-0.5788,-0.5986,-0.6002,-0.605,-0.6236,-0.664,-0.7075,-0.7376,-0.7469,-0.7499,-0.7545,-0.765,-0.762,-0.765,-0.7724,-0.7724,-0.7724,-0.7724,-0.7899,-0.7984,-0.7984,-0.8068,-0.8094,-0.8094,-0.8094,-0.8094,-0.8094,-0.8094,-0.8094,0.0,-0.8094,-0.8082,-0.8069,-0.8256,-0.8309,0.0,0.0,0.0,0.0,0.0,-0.9028,-0.9099,0.0,0.0,0.0,0.0,0.0,0.0,0.0,0.1029,0.1727,0.1816,0.1792,0.1705,0.1514,0.1375,0.1181,0.0916,0.0598,0.0276,-0.0016,-0.0122,-0.0471,-0.1121,-0.1383,-0.1735,-0.2169,-0.2609,-0.2983,-0.3283,-0.3299,-0.3419,-0.3554,-0.3632,-0.3683,-0.37,-0.3697,-0.3993,-0.4448,-0.4219,-0.4468,-0.5015,-0.4825,-0.5047,-0.5284,-0.4371,-0.4409,-0.4957,-0.4747,-0.4678,-0.4639,-0.4417,0.0,0.0,0.0,0.0,0.0,0.0,0.0,0.0,0.0,0.0,0.0,0.0,0.0,0.0,0.0,0.0,0.0,0.0,0.0,0.0,0.0,0.0,0.0,0.0,-0.5883,-0.6319,-0.6637,-0.6261,-0.624,-0.7044,-0.7061,-0.7075,-0.7266,-0.7329,-0.7345,-0.7314,-0.7453,-0.753,-0.7499,0.0,0.0,0.0,0.0,-0.7969,-0.7969,-0.7969,-0.7969,-0.7969,-0.8011,-0.8053,-0.8094,-0.8094,-0.8094,-0.8094,-0.8094,-0.8094,-0.8094,-0.8094,-0.8094,-0.8135,-0.8497,-0.8789,-0.9013,-0.9078,-0.9109,-0.9109,0.0,0.0,0.0,0.0,0.0,0.0,0.0,0.1059,0.1288,0.1884,0.1729,0.1546,0.1509,0.1333,0.1133,0.0918,0.0595,0.0219,-0.0209,-0.0116,-0.0264,-0.0776,-0.0957,-0.1345,-0.201,-0.2407,-0.276,-0.3125,-0.329,-0.3368,-0.335,-0.3392,-0.3459,-0.3622,-0.3656,-0.372,-0.3696,-0.3788,-0.4087,-0.4509,-0.4135,-0.4316,-0.4733,-0.4306,-0.4178,-0.4177,-0.3855,-0.3854,-0.3971,-0.393,-0.3816,-0.3659,-0.3541,-0.3671,0.0,0.0,0.0,0.0,0.0,0.0,0.0,0.0,0.0,0.0,0.0,0.0,0.0,0.0,0.0,0.0,0.0,0.0,0.0,-0.5863,-0.6132,-0.6439,-0.7066,-0.6982,-0.6834,-0.6799,-0.6911,-0.7042,-0.7123,-0.7155,-0.7219,-0.7376,-0.7266,-0.7282,-0.7484,-0.7345,0.0,-0.7026,-0.7091,-0.7125,-0.7125,-0.7125,-0.7125,-0.7125,0.0,0.0,-0.8094,-0.8094,-0.8094,-0.8094,-0.8094,-0.8094,-0.8094,-0.8094,-0.8094,-0.8108,-0.8189,-0.8571,-0.9088,-0.9099,-0.9109,-0.9109,0.0,0.0,0.0,0.0,0.0,0.0,0.0,0.1724,0.1659,0.1964,0.1792,0.1613,0.1507,0.1228,0.1007,0.0907,0.0593,0.0245,-0.0122,-0.0059,-0.0187,-0.0634,-0.0811,-0.1258,-0.1976,-0.2403,-0.2762,-0.3082,-0.3273,-0.3351,-0.3306,-0.3229,-0.3276,-0.347,-0.3585,-0.3621,-0.3562,-0.3708,-0.3902,-0.4068,-0.3954,-0.3996,-0.4223,-0.4448,-0.4622,-0.4697,-0.4342,-0.4125,-0.3976,-0.3724,-0.3506,-0.3284,-0.321,-0.3351,-0.3518,0.0,0.0,0.0,0.0,0.0,0.0,0.0,0.0,0.0,0.0,0.0,0.0,0.0,0.0,-0.4166,0.0,0.0,-0.5145,-0.5883,-0.6302,-0.6736,-0.7281,-0.7085,-0.6853,-0.6727,-0.6732,-0.6757,-0.6791,-0.6794,-0.6881,-0.7091,-0.7107,-0.7107,-0.7155,-0.7155,-0.7075,-0.6908,-0.6908,-0.6908,-0.6908,-0.6908,-0.696,-0.7107,-0.7171,-0.7362,-0.7709,-0.7983,-0.7983,-0.7812,-0.8011,-0.7983,-0.7812,-0.8011,-0.8094,-0.8094,-0.8094,-0.8293,-0.8632,-0.8902,-0.9039,-0.9109,0.0,0.0,0.0,0.0,0.0,0.0,0.0,0.2301,0.2223,0.2081,0.1896,0.1719,0.1571,0.1161,0.0882,0.0843,0.0593,0.035,0.0152,0.0083,-0.0086,-0.0395,-0.0622,-0.1035,-0.1729,-0.2128,-0.2498,-0.273,-0.2961,-0.3112,-0.3137,-0.3112,-0.3192,-0.3396,-0.3537,-0.3595,-0.3632,-0.3775,-0.3819,-0.3809,-0.4019,-0.4016,-0.3942,-0.4561,-0.4916,-0.513,-0.4717,-0.428,-0.3848,-0.3483,-0.3154,-0.2932,-0.3041,-0.3199,-0.3369,-0.3597,-0.3639,0.0,0.0,0.0,0.0,0.0,0.0,0.0,0.0,0.0,-0.4011,-0.4146,-0.449,-0.4741,-0.4613,-0.5312,-0.5938,-0.6042,-0.6615,-0.7127,-0.7341,-0.7036,-0.6733,-0.6602,-0.6538,-0.649,-0.6425,-0.6522,-0.6613,-0.6727,-0.6944,-0.6993,-0.6824,-0.696,-0.7009,-0.6908,-0.6908,-0.6908,-0.6908,-0.6908,-0.7009,-0.7219,-0.6993,-0.7009,-0.7235,-0.7709,-0.7724,-0.7407,-0.7898,-0.7912,-0.765,-0.7969,-0.8094,-0.8094,-0.8094,-0.8094,-0.8149,-0.8583,-0.8812,-0.8913,0.0,0.0,0.0,0.0,0.0,0.0,0.0,0.0,0.2489,0.2292,0.1941,0.1723,0.1761,0.1253,0.0826,0.0646,0.0604,0.0595,0.0624,0.0398,0.0262,0.0276,0.0031,-0.0349,-0.0844,-0.1018,-0.123,-0.1486,-0.2043,-0.2414,-0.2594,-0.2954,-0.3344,-0.3737,-0.3629,-0.3649,-0.3778,-0.3931,-0.3917,-0.3829,-0.4246,-0.4324,-0.4147,-0.4268,-0.4143,-0.3937,-0.3581,-0.3221,-0.2863,-0.2794,-0.2557,-0.2373,-0.2777,-0.318,-0.3493,-0.3509,-0.3723,-0.3951,-0.3985,-0.4012,-0.4125,-0.4503,-0.4112,-0.3815,0.0,0.0,-0.4297,-0.4435,-0.4777,-0.5175,-0.5555,-0.597,-0.6408,-0.6885,-0.7318,-0.7524,-0.7333,-0.7164,-0.6833,-0.6243,-0.636,-0.6408,-0.6177,-0.6579,-0.6761,-0.6544,-0.6778,-0.6924,-0.6891,-0.6924,-0.6924,-0.6908,-0.6908,-0.6908,-0.6908,-0.6908,-0.6924,-0.6944,-0.6924,-0.6924,-0.6944,-0.7203,-0.7187,-0.7009,-0.7768,-0.8066,-0.8039,-0.808,-0.8094,-0.8094,-0.8094,-0.8094,-0.8108,-0.8162,-0.8203,-0.8267,0.0,0.0,0.0,0.0,0.0,0.0,0.0,0.0,0.0,0.2331,0.178,0.1433,0.15,0.1149,0.0818,0.0615,0.0706,0.0707,0.0541,0.1086,0.1061,0.0316,0.0353,0.0072,-0.0676,-0.0849,-0.1024,-0.1291,-0.2009,-0.2424,-0.2511,-0.2915,-0.3229,-0.3494,-0.3653,-0.3737,-0.3812,-0.4138,-0.4239,-0.4251,-0.444,-0.4375,-0.4177,-0.405,-0.3741,-0.3385,-0.3219,-0.2985,0.0,-0.2377,-0.2238,-0.2221,-0.234,-0.272,-0.3146,-0.3142,-0.3549,-0.4056,-0.4368,-0.451,-0.4628,0.0,-0.5036,-0.5139,-0.5208,-0.5286,-0.5377,-0.5415,-0.5617,-0.5791,-0.5796,-0.6112,-0.6378,0.0,-0.6961,-0.7307,-0.6991,-0.6876,-0.6541,-0.5786,-0.5884,-0.6009,-0.5936,-0.6171,-0.6348,-0.6383,-0.6488,-0.6591,-0.6723,-0.6621,-0.6659,-0.6891,-0.6791,-0.6774,-0.6908,-0.6908,-0.6908,-0.6908,-0.6908,-0.6908,-0.6908,-0.6977,-0.6977,-0.6911,-0.7253,-0.7665,-0.8094,-0.8094,-0.8094,-0.8094,-0.8094,-0.8094,-0.8094,-0.8094,-0.8094,-0.8135,0.0,0.0,0.0,0.0,0.0,0.0,0.0,0.0,0.0,0.0,0.1725,0.1261,0.1267,0.1094,0.0906,0.0704,0.0818,0.0823,0.0636,0.1348,0.1489,0.0845,0.0785,0.0456,-0.0148,-0.0362,-0.0536,-0.0758,-0.1607,-0.2023,-0.2088,-0.2483,-0.2795,-0.2959,-0.3141,-0.3289,-0.339,-0.3675,-0.3851,-0.3854,-0.3854,-0.3776,-0.3631,-0.3404,-0.3074,-0.275,-0.2937,-0.2754,-0.2421,-0.2106,-0.203,-0.2093,-0.2103,-0.2436,-0.2871,-0.2944,-0.3407,-0.4029,-0.4543,-0.4885,0.0,-0.5288,-0.5802,-0.6199,-0.5868,-0.6074,-0.6308,-0.6299,-0.6328,-0.6267,-0.595,-0.6055,-0.6131,-0.5856,-0.642,-0.6774,-0.6414,-0.6281,-0.5994,-0.544,-0.53,-0.5379,-0.5686,-0.5881,-0.6027,-0.6165,-0.6224,-0.6331,-0.6478,-0.6348,-0.6406,-0.6697,-0.6557,-0.6604,-0.6824,-0.6794,-0.6828,-0.6908,-0.6908,-0.6908,-0.6908,-0.6908,-0.6908,-0.6908,-0.6908,-0.7237,-0.7782,-0.7969,-0.8068,-0.8094,-0.8094,-0.8094,-0.8094,-0.8094,-0.8094,-0.8094,0.0,0.0,0.0,0.0,0.0,0.0,0.0,0.0,0.0,0.0,0.0,0.0,0.0,0.1199,0.1116,0.091,0.0899,0.0984,0.1169,0.0906,0.1215,0.2276,0.1407,0.1012,0.1244,0.0859,0.0628,0.0628,-0.0293,-0.0814,-0.0937,-0.1411,-0.1797,-0.2034,-0.1896,-0.1987,-0.2261,-0.2118,-0.217,-0.2272,-0.2272,-0.227,-0.2268,-0.2086,-0.1984,-0.1918,-0.2506,-0.2342,-0.1851,-0.1964,-0.1916,-0.1883,-0.2254,-0.254,-0.2763,-0.3007,-0.3394,-0.3799,-0.429,0.0,-0.5356,-0.5611,-0.5947,-0.625,-0.6525,-0.6666,-0.6774,-0.6788,-0.6631,-0.6415,-0.6124,-0.5891,-0.5691,-0.5616,-0.5891,-0.5987,-0.5578,-0.5376,-0.5254,-0.5291,-0.4613,-0.4518,0.0,-0.5925,-0.6076,-0.583,-0.6052,-0.6213,-0.6201,-0.6213,-0.6206,-0.6224,-0.6206,-0.6336,-0.6599,-0.654,-0.6647,-0.6908,-0.6908,-0.6908,-0.6908,-0.6908,-0.6908,-0.6908,-0.6908,-0.6911,-0.6977,-0.765,-0.7984,-0.8094,-0.8094,-0.8094,-0.8094,-0.8094,-0.8094,-0.8094,0.0,0.0,0.0,0.0,0.0,0.0,0.0,0.0,0.0,0.0,0.0,0.0,0.0,0.0,0.0,0.0,0.0951,0.0929,0.0997,0.1149,0.1228,0.1196,0.13,0.1384,0.1447,0.1203,0.1065,0.0954,0.0079,-0.0397,-0.0469,-0.1311,-0.18,-0.189,-0.1923,-0.1961,-0.2088,-0.2091,-0.2164,-0.2205,-0.219,-0.2135,-0.2074,-0.1912,-0.1526,-0.1119,0.0,-0.1502,-0.1338,-0.1386,-0.1441,-0.149,-0.1627,-0.1982,-0.2544,-0.3448,-0.3788,-0.415,-0.5287,0.0,-0.6062,-0.6707,-0.7108,-0.7361,-0.7455,-0.7483,-0.7391,-0.6899,-0.6579,-0.6176,-0.549,-0.5302,-0.5131,-0.4796,-0.5244,-0.5483,-0.5038,-0.5333,-0.5412,-0.4901,-0.4866,0.0,0.0,0.0,0.0,-0.5649,-0.5752,-0.5997,-0.6442,-0.6042,-0.6053,-0.6576,-0.6206,-0.6117,-0.6325,-0.6307,-0.6348,-0.6446,-0.6527,-0.6608,-0.6689,-0.674,-0.6824,-0.6908,-0.6908,-0.6908,-0.6924,-0.7139,-0.7253,-0.7362,-0.7883,-0.8094,-0.8094,-0.8094,-0.8094,-0.8094,0.0,0.0,0.0,0.0,0.0,0.0,0.0,0.0,0.0,0.0,0.0,0.0,0.0,0.0,0.0,0.0,0.0,0.0951,0.0899,0.1147,0.1168,0.0923,0.1357,0.1629,0.1685,0.1501,0.1336,0.1164,0.0457,0.007,0.0,-0.0728,-0.1078,-0.1087,-0.1114,-0.1121,-0.115,-0.1111,-0.1135,-0.1179,-0.1134,-0.1103,-0.1039,-0.0891,-0.0546,0.0,-0.0316,-0.0386,-0.0452,-0.0883,-0.1094,-0.1169,-0.1272,-0.1722,-0.2391,-0.3339,-0.3852,-0.4379,-0.552,-0.6226,-0.6773,-0.7315,-0.7817,-0.8216,-0.811,-0.7923,-0.751,-0.6605,-0.607,-0.5509,-0.4626,-0.4387,-0.4229,-0.3929,-0.4246,-0.4477,-0.4287,-0.4617,-0.48,-0.4592,-0.4563,0.0,0.0,0.0,0.0,-0.5384,-0.5569,-0.5887,-0.6402,-0.619,-0.6221,-0.6579,-0.62,-0.6034,-0.6093,-0.6075,-0.6099,-0.6213,-0.6301,-0.6401,-0.65,-0.6638,-0.6774,-0.6908,-0.6908,-0.6908,-0.6908,-0.6908,-0.6908,-0.6944,-0.747,-0.7883,-0.8162,-0.8108,-0.8094,-0.8094,0.0,0.0,0.0,0.0,0.0,0.0,0.0,0.0,0.0,0.0,0.0,0.0,0.0,0.0,0.0,0.0,0.0,0.0,0.0921,0.0899,0.1065,0.1452,0.1549,0.172,0.1977,0.1742,0.1539,0.1327,0.0916,0.065,0.0445,0.0297,0.0214,0.0246,0.0345,0.0422,0.0436,0.0741,0.0764,0.0625,0.0824,0.0799,0.0623,0.0819,0.0903,0.0917,0.0896,0.0918,0.0749,-0.0439,-0.0875,-0.0976,-0.1232,-0.1717,-0.2281,-0.2785,-0.3625,-0.4495,-0.4969,-0.6263,-0.7465,-0.7286,-0.8009,-0.8652,-0.8346,-0.7802,-0.7068,-0.5834,-0.5166,-0.4509,0.0,0.0,-0.3106,-0.3133,-0.3071,-0.3143,-0.35,-0.339,-0.3599,0.0,0.0,0.0,0.0,0.0,0.0,-0.5039,0.0,-0.5857,-0.6092,-0.6593,-0.6657,-0.6211,-0.6201,-0.6116,-0.5908,-0.5845,-0.5945,-0.6165,-0.6236,-0.626,-0.6278,-0.6552,-0.674,-0.6861,-0.6891,-0.6908,-0.6908,-0.6908,-0.6908,-0.6908,-0.6908,-0.7441,-0.8214,-0.8121,-0.8094,-0.8094,0.0,0.0,0.0,0.0,0.0,0.0,0.0,0.0,0.0,0.0,0.0,0.0,0.0,0.0,0.0,0.0,0.0,0.0,0.1057,0.0951,0.0943,0.1045,0.1401,0.1603,0.1634,0.1906,0.1968,0.1832,0.1369,0.1183,0.1291,0.0805,0.0631,0.072,0.0654,0.0639,0.063,0.0704,0.071,0.0678,0.0847,0.0871,0.0815,0.0873,0.1031,0.1173,0.0968,0.1136,0.1258,0.014,0.0,0.0,0.0,-0.1754,-0.2195,-0.2975,-0.3642,-0.4303,-0.5152,-0.6365,-0.7268,-0.686,-0.7315,-0.7565,-0.6616,-0.6122,-0.5575,-0.4488,-0.423,-0.4072,0.0,0.0,0.0,-0.3696,-0.3543,0.0,-0.4096,-0.4289,0.0,0.0,0.0,-0.4828,-0.499,-0.4902,0.0,0.0,-0.5238,-0.5573,-0.622,-0.6325,-0.6309,-0.6203,-0.616,-0.6107,-0.6044,-0.6086,-0.5957,-0.567,-0.5793,-0.5904,-0.6009,-0.6165,-0.6325,-0.647,-0.6761,-0.6908,-0.6908,-0.6908,-0.6908,-0.6908,-0.6908,-0.7045,-0.7317,-0.7841,-0.8097,-0.8178,0.0,0.0,0.0,0.0,0.0,0.0,0.0,0.0,0.0,0.0,0.0,0.0,0.0,0.0,0.0,0.0,0.0,0.0,0.0,0.1251,0.1226,0.108,0.1532,0.1707,0.1542,0.1859,0.1909,0.1695,0.1516,0.1394,0.1274,0.0957,0.079,0.0811,0.0784,0.0826,0.0879,0.1033,0.1131,0.0,0.0,0.1299,0.1286,0.1292,0.1383,0.1496,0.1361,0.1285,0.1221,0.0,0.0,-0.1426,-0.1449,-0.1979,-0.2697,-0.3336,0.0,-0.4634,-0.5059,-0.6132,-0.6983,-0.6303,-0.6551,-0.6678,-0.5813,-0.5297,-0.4704,-0.369,-0.3608,0.0,0.0,0.0,0.0,0.0,0.0,0.0,-0.3908,-0.4149,-0.441,0.0,-0.4951,0.0,-0.4892,-0.49,-0.5012,0.0,-0.5362,-0.5702,-0.6266,-0.6457,-0.6464,-0.629,-0.6259,-0.6217,-0.6191,-0.6405,-0.638,-0.6118,-0.605,-0.6094,-0.6248,-0.6146,-0.6099,-0.6135,0.0,-0.6744,-0.6944,-0.6954,-0.6957,-0.6977,-0.6977,-0.6977,-0.7196,-0.9004,-0.9244,-0.8634,0.0,0.0,0.0,0.0,0.0,0.0,0.0,0.0,0.0,0.0,0.0,0.0,0.0,0.0,0.0,0.0,0.0,0.0,0.0,0.0,0.1638,0.1377,0.1746,0.1852,0.1664,0.1752,0.1655,0.1363,0.1531,0.1397,0.1021,0.1003,0.0933,0.085,0.0956,0.106,0.1192,0.147,0.1662,0.1775,0.1796,0.1803,0.1803,0.0,0.1803,0.1806,0.1827,0.143,0.0949,0.0,0.0,-0.146,-0.127,-0.2127,-0.3241,-0.3573,-0.4365,-0.5087,-0.4731,-0.5686,-0.6506,-0.5559,-0.5687,-0.5887,-0.5318,-0.4709,-0.4055,-0.3159,0.0,-0.3042,-0.2572,0.0,-0.2541,-0.2935,0.0,-0.2558,-0.3446,-0.3599,-0.3848,-0.4455,-0.4583,-0.4651,-0.476,-0.4787,-0.4927,-0.5268,-0.5638,-0.5969,-0.6222,-0.6684,-0.6807,-0.6472,-0.6437,-0.6385,-0.6306,-0.6714,-0.6868,-0.6777,-0.65,-0.6424,-0.6542,-0.6204,-0.5961,-0.5874,0.0,0.0,-0.6861,-0.6954,-0.7036,-0.7107,-0.7107,-0.7107,-0.7461,-1.0346,-1.0648,-0.9502,0.0,0.0,0.0,0.0,0.0,0.0,0.0,0.0,0.0,0.0,0.2871,0.274,0.0,0.0,0.0,0.0,0.0,0.0,0.0,0.0,0.0,0.1717,0.1692,0.1745,0.1932,0.185,0.1779,0.1706,0.1634,0.161,0.1648,0.1521,0.1519,0.16,0.1512,0.1486,0.1509,0.157,0.1603,0.1638,0.1755,0.1803,0.1803,0.1803,0.0,0.0,0.1926,0.1584,0.1136,0.1536,0.0551,-0.0851,-0.0827,-0.1645,-0.2652,-0.2853,-0.3605,-0.4397,-0.4317,-0.5148,-0.5749,-0.467,-0.4795,-0.4848,-0.3777,-0.3124,0.0,0.0,-0.2466,-0.2635,-0.2925,-0.2659,0.0,-0.3445,0.0,0.0,0.0,0.0,-0.4375,0.0,0.0,0.0,0.0,0.0,0.0,0.0,0.0,0.0,-0.5876,-0.6328,-0.6661,-0.6813,-0.6702,-0.653,-0.6296,-0.6802,-0.6726,-0.6064,-0.6115,-0.6024,-0.5787,-0.5773,-0.57,-0.5587,-0.586,0.0,-0.6135,-0.6744,-0.7039,-0.7107,-0.7107,-0.7107,-0.7283,-0.8828,-1.0247,-1.1182,0.0,0.0,0.0,0.0,0.0,0.0,0.0,0.3552,0.345,0.3332,0.31,0.2937,0.2861,0.2712,0.2588,0.0,0.0,0.0,0.0,0.0,0.0,0.0,0.2276,0.2381,0.2365,0.2301,0.0,0.0,0.0,0.1776,0.1531,0.0,0.0,0.1527,0.1479,0.1496,0.1609,0.1609,0.1634,0.1706,0.1775,0.1803,0.1803,0.0,0.0,0.0,0.0,0.0,0.1238,0.1471,0.091,0.006,-0.0304,-0.128,-0.2271,-0.2323,-0.2792,-0.3289,-0.3175,-0.3883,-0.441,-0.3412,-0.3703,-0.3884,-0.2606,0.0,0.0,0.0,-0.1823,-0.2167,-0.2382,0.0,0.0,0.0,0.0,0.0,0.0,0.0,0.0,0.0,0.0,0.0,0.0,0.0,0.0,0.0,0.0,0.0,-0.5739,-0.606,-0.6329,-0.6526,-0.6713,-0.677,-0.6675,-0.713,-0.716,-0.6787,-0.6528,-0.6376,-0.6308,-0.5849,-0.5644,-0.5662,-0.5785,0.0,-0.6359,-0.6731,-0.6888,-0.6858,-0.7026,-0.7865,-0.9043,-0.9625,-1.0445,-1.1193,0.0,0.0,0.0,0.0,0.0,0.0,0.0,0.3711,0.3541,0.35,0.3323,0.3136,0.2996,0.2889,0.2768,0.0,0.0,0.0,0.0,0.0,0.0,0.0,0.0,0.0,0.0,0.0,0.0,0.0,0.0,0.0,0.0,0.0,0.0,0.0,0.0,0.0,0.1634,0.1634,0.17,0.0,0.0,0.0,0.0,0.0,0.0,0.0,0.0,0.0,0.1372,0.1442,0.1216,0.083,0.0262,-0.0732,-0.1706,-0.1764,-0.2101,-0.2455,-0.2279,-0.2781,-0.3152,-0.2366,-0.2668,-0.2922,-0.1777,-0.1585,0.0,0.0,-0.1307,-0.1695,-0.1812,0.0,-0.2388,0.0,0.0,0.0,0.0,0.0,0.0,0.0,0.0,0.0,0.0,0.0,0.0,0.0,0.0,0.0,-0.5816,-0.5918,-0.609,-0.6291,-0.6595,-0.6829,-0.6959,-0.7271,-0.7424,-0.7348,-0.6937,-0.681,-0.6906,-0.602,-0.5808,-0.6101,-0.6035,0.0,0.0,-0.687,-0.6833,-0.6742,-0.6834,-0.8112,-0.9977,-1.0515,-1.0705,-1.0777,0.0,0.0,0.0,0.0,0.0,0.0,0.0,0.3825,0.3701,0.3517,0.3475,0.3417,0.3281,0.3041,0.2861,0.0,0.0,0.0,0.0,0.0,0.0,0.0,0.0,0.0,0.0,0.0,0.0,0.0,0.0,0.0,0.0,0.0,0.0,0.0,0.0,0.0,0.0,0.1785,0.0,0.0,0.0,0.0,0.0,0.0,0.0,0.0,0.0,0.0,0.0,0.0,0.0,0.1061,0.099,0.0169,-0.0832,-0.0956,0.0,0.0,-0.2237,-0.2408,-0.2533,-0.213,-0.1998,-0.1859,-0.1436,0.0,0.0,-0.1094,-0.1129,-0.1339,-0.188,-0.1904,-0.2035,0.0,0.0,-0.2698,0.0,0.0,0.0,0.0,0.0,0.0,0.0,0.0,0.0,0.0,0.0,0.0,0.0,-0.6005,-0.6123,-0.6636,-0.6407,-0.6458,-0.6827,-0.6904,-0.6848,-0.6611,-0.6791,-0.6836,-0.6706,-0.6013,-0.6207,-0.7055,-0.675,0.0,0.0,-0.7165,-0.7155,-0.7069,-0.6364,-0.6639,-0.7702,-0.9882,-1.0705,-1.0705,0.0,0.0,0.0,0.0,0.0,0.0,0.3727,0.384,0.3763,0.3686,0.3574,0.3475,0.342,0.3255,0.3106,0.2992,0.0,0.0,0.0,0.0,0.0,0.0,0.0,0.0,0.0,0.0,0.0,0.0,0.0,0.0,0.0,0.0,0.0,0.0,0.0,0.0,0.0,0.0,0.0,0.0,0.0,0.0,0.0,0.0,0.0,0.0,0.0,0.0,0.0,0.0,0.0,0.0,0.1109,0.0708,0.0,0.0,-0.068,-0.0971,-0.0914,-0.1244,-0.1503,-0.0953,-0.1283,-0.1587,-0.071,0.0,-0.0776,-0.0482,-0.0648,-0.0947,-0.1171,-0.1381,-0.1573,-0.1819,-0.196,0.0,0.0,0.0,0.0,0.0,0.0,0.0,0.0,0.0,0.0,0.0,0.0,0.0,0.0,-0.5972,-0.6135,-0.6286,-0.6222,-0.63,-0.6569,-0.6533,-0.6507,-0.6428,-0.6429,-0.6406,-0.642,-0.6536,-0.6826,-0.7218,-0.7653,0.0,0.0,-0.8034,-0.8034,-0.8017,-0.7697,-0.7958,-0.8655,-0.9616,-1.0286,-1.0705,0.0,0.0,0.0,0.0,0.0,0.2425,0.3712,0.3862,0.3824,0.3794,0.367,0.3557,0.35,0.3412,0.3298,0.318,0.3035,0.0,0.0,0.0,0.0,0.0,0.0,0.0,0.0,0.0,0.3175,0.3223,0.3223,0.0,0.0,0.0,0.0,0.0,0.0,0.0,0.0,0.0,0.0,0.0,0.0,0.0,0.0,0.0,0.0,0.0,0.0,0.0,0.0,0.0,0.0,0.0,0.0,0.1235,0.1149,0.0,0.0038,0.0,0.0,-0.0402,-0.0672,-0.0144,-0.0659,-0.1045,0.0,0.0,-0.0384,-0.0067,-0.0269,-0.0538,-0.0672,-0.094,-0.1133,-0.1244,-0.1388,-0.1627,-0.1965,0.0,0.0,0.0,0.0,0.0,0.0,0.0,0.0,0.0,0.0,0.0,0.0,-0.5766,-0.602,-0.6022,-0.5975,-0.6044,-0.6291,-0.6142,-0.6165,-0.6413,-0.6273,-0.6299,-0.6456,-0.6795,-0.7122,-0.7411,0.0,0.0,0.0,-0.86,-0.86,-0.86,-0.86,-0.885,-0.9271,-0.9432,-0.9866,-1.0336,0.0,0.0,0.0,0.0,0.0,0.0,0.3712,0.3906,0.3869,0.3802,0.3808,0.3717,0.3517,0.3505,0.345,0.3315,0.3168,0.0,0.0,0.0,0.0,0.0,0.0,0.0,0.0,0.0,0.3368,0.3506,0.3506,0.3351,0.3089,0.0,0.0,0.0,0.0,0.0,0.0,0.0,0.0,0.0,0.0,0.0,0.0,0.0,0.0,0.0,0.0,0.0,0.0,0.0,0.0,0.0,0.0,0.1783,0.1589,0.0503,0.0096,0.0,0.0,0.0,0.0,0.0,0.0,0.0,0.0,0.0,0.0,0.0,0.0,-0.0134,-0.0605,-0.0706,-0.0791,-0.1052,-0.1223,-0.1379,0.0,0.0,0.0,0.0,0.0,0.0,0.0,0.0,0.0,0.0,0.0,0.0,0.0,-0.5351,-0.5684,-0.6101,-0.558,-0.5539,-0.599,-0.5664,-0.5802,-0.6413,-0.6452,-0.6656,-0.699,-0.6584,-0.6922,0.0,0.0,0.0,0.0,-0.86,-0.86,-0.86,-0.86,-0.86,-0.8684,-0.9271,-0.9497,-0.9523,0.0,0.0,0.0,0.0,0.0,0.0,0.0,0.3977,0.3991,0.3877,0.3832,0.3748,0.3587,0.352,0.345,0.3315,0.3264,0.0,0.0,0.0,0.0,0.0,0.0,0.0,0.0,0.3402,0.3553,0.3765,0.3584,0.3464,0.3372,0.3372,0.3223,0.0,0.0,0.0,0.0,0.0,0.0,0.0,0.0,0.0,0.0,0.0,0.0,0.0,0.0,0.0,0.0,0.0,0.0,0.0,0.0,0.0,0.0,0.1005,0.0663,0.0,0.0321,0.0151,0.0,0.0,0.0,0.0,0.0,0.0,0.0,0.0,0.0,-0.0034,-0.0202,-0.0235,-0.0234,-0.0328,-0.0663,-0.0994,0.0,0.0,0.0,0.0,0.0,0.0,0.0,0.0,0.0,0.0,0.0,0.0,0.0,-0.5009,-0.5515,-0.5877,-0.5736,-0.5739,-0.5943,-0.5546,-0.5485,-0.5715,-0.5688,-0.5549,-0.5305,-0.567,0.0,0.0,0.0,0.0,0.0,-0.86,-0.86,-0.86,-0.86,-0.86,-0.8617,-0.8822,-0.9162,-0.9497,0.0,0.0,0.0,0.0,0.0,0.0,0.0,0.406,0.3991,0.3913,0.3869,0.378,0.362,0.3563,0.3479,0.3315,0.3306,0.0,0.0,0.0,0.0,0.0,0.0,0.0,0.3487,0.3369,0.3501,0.3911,0.3626,0.3506,0.3506,0.3506,0.3421,0.3245,0.3245,0.0,0.0,0.0,0.0,0.0,0.0,0.0,0.234,0.0,0.0,0.0,0.0,0.0,0.0,0.0,0.0,0.0,0.0,0.0,0.0,0.0,0.1325,0.1047,0.0685,0.0388,0.0166,0.0163,0.0062,0.0,0.0,0.0,0.0,0.0,0.0,0.0,0.0,0.0,0.0,0.0,-0.0235,0.0,0.0,0.0,0.0,0.0,0.0,0.0,0.0,0.0,0.0,0.0,0.0,0.0,0.0,0.0,-0.5081,-0.5592,-0.5602,-0.5632,-0.5662,-0.5465,-0.5354,-0.544,-0.5421,-0.5262,-0.5016,-0.5382,0.0,0.0,0.0,0.0,0.0,-0.8269,-0.8365,-0.846,-0.846,-0.8516,-0.86,-0.86,-0.885,-0.9178,0.0,0.0,0.0,0.0,0.0,0.0,0.0,0.4223,0.3927,0.3906,0.3906,0.3825,0.3636,0.3612,0.3533,0.334,0.0,0.0,0.0,0.0,0.0,0.0,0.0,0.0,0.3509,0.3263,0.3406,0.3952,0.3668,0.3527,0.3527,0.3506,0.3506,0.3506,0.3506,0.3485,0.3464,0.3202,0.295,0.2738,0.2996,0.3114,0.0,0.0,0.0,0.0,0.0,0.0,0.0,0.0,0.0,0.0,0.0,0.0,0.0,0.0,0.0,0.0,0.0,0.0719,0.045,0.0,0.0,0.0,0.0,0.0,0.0,0.0,0.0,0.0,0.0,0.0,0.0,0.0,0.0,0.0,0.0,0.0,0.0,0.0,0.0,0.0,0.0,0.0,0.0,0.0,0.0,0.0,0.0,0.0,-0.443,-0.5151,-0.5199,-0.5274,-0.534,-0.5326,-0.5381,-0.5479,-0.5492,-0.5596,-0.57,-0.5546,0.0,0.0,0.0,0.0,0.0,-0.7675,-0.7954,-0.8187,-0.8187,-0.8347,-0.86,-0.86,-0.86,-0.8684,0.0,0.0,0.0,0.0,0.0,0.0,0.0,0.0,0.0,0.0,0.3906,0.3862,0.3757,0.3756,0.3664,0.0,0.0,0.0,0.0,0.0,0.0,0.0,0.0,0.0,0.3818,0.4131,0.4373,0.4507,0.4027,0.3807,0.3807,0.3584,0.3506,0.3506,0.3506,0.3393,0.3202,0.3132,0.3068,0.3006,0.3083,0.3234,0.0,0.0,0.0,0.0,0.4035,0.3709,0.0,0.0,0.0,0.0,0.0,0.0,0.0,0.0,0.2021,0.1769,0.1629,0.0,0.0919,0.0809,0.0654,0.0505,0.0,0.0,0.0,0.0,0.0,0.0,0.0,0.0,0.0,0.0,0.0,0.0,0.0,0.0,0.0,0.0,0.0,0.0,0.0,0.0,0.0,0.0,0.0,0.0,0.0,0.0,-0.3988,-0.3918,-0.4309,-0.494,-0.5756,-0.5026,-0.4798,-0.5121,-0.4869,-0.4763,-0.482,-0.5068,0.0,0.0,0.0,0.0,-0.7148,-0.6915,-0.7295,-0.7966,-0.7966,-0.8223,-0.86,-0.86,-0.86,-0.8628,0.0,0.0,0.0,0.0,0.0,0.0,0.0,0.0,0.0,0.0,0.0,0.0,0.0,0.0,0.0,0.0,0.0,0.0,0.0,0.0,0.0,0.0,0.0,0.4629,0.4368,0.452,0.4742,0.5026,0.4409,0.4156,0.4229,0.4,0.3854,0.3727,0.3727,0.3638,0.3519,0.3519,0.3516,0.3543,0.3781,0.0,0.0,0.0,0.0,0.0,0.4269,0.3953,0.0,0.3278,0.297,0.269,0.0,0.0,0.0,0.0,0.2047,0.1872,0.1823,0.1561,0.1316,0.1238,0.1107,0.0955,0.084,0.0,0.0,0.0,0.0,0.0269,0.0034,-0.0099,-0.013,-0.0033,0.0,0.0,0.0,0.0,0.0,0.0,0.0,0.0,0.0,0.0,0.0,0.0,0.0,0.0,0.0,0.0,-0.3761,-0.3728,-0.3766,-0.4161,-0.4918,-0.4539,-0.4374,-0.4456,-0.4381,-0.4371,-0.4417,-0.4725,-0.5047,0.0,0.0,0.0,-0.6586,-0.6624,-0.6969,-0.7462,-0.7549,-0.7744,-0.8013,-0.8449,-0.86,-0.86,0.0,0.0,0.0,0.0,0.0,0.0,0.0,0.0,0.0,0.0,0.0,0.0,0.0,0.0,0.0,0.0,0.0,0.0,0.0,0.0,0.0,0.0,0.4922,0.4854,0.4905,0.4735,0.4923,0.5464,0.4855,0.4611,0.4712,0.4563,0.4345,0.4059,0.4059,0.4059,0.4059,0.4012,0.4045,0.4166,0.4562,0.0,0.0,0.0,0.0,0.0,0.0,0.0,0.0,0.3465,0.3094,0.2847,0.2737,0.0,0.0,0.0,0.0,0.0,0.1847,0.169,0.16,0.1656,0.1533,0.1394,0.1395,0.0,0.0,0.0,0.0,0.0,0.0066,-0.0193,0.0,0.0,0.0,0.0,0.0,0.0,0.0,0.0,0.0,0.0,0.0,0.0,0.0,0.0,0.0,0.0,0.0,0.0,0.0,-0.3814,-0.3395,-0.3301,-0.3612,-0.3933,-0.4019,-0.3806,-0.4049,-0.4191,-0.4254,-0.4493,-0.4802,0.0,0.0,0.0,-0.6083,-0.6525,-0.6742,-0.6824,-0.6996,-0.7107,-0.7305,-0.8099,-0.8477,-0.86,0.0,0.0,0.0,0.0,0.0,0.0,0.0,0.0,0.0,0.0,0.0,0.0,0.0,0.0,0.0,0.0,0.0,0.0,0.0,0.0,0.0,0.6332,0.6094,0.5631,0.4915,0.5187,0.5482,0.5737,0.5397,0.5261,0.5274,0.5035,0.4707,0.4335,0.4335,0.4335,0.4322,0.4099,0.4255,0.4661,0.4536,0.0,0.0,0.0,0.0,0.0,0.0,0.0,0.0,0.3314,0.3049,0.2714,0.2706,0.0,0.0,0.0,0.0,0.0,0.1847,0.1711,0.1648,0.1887,0.1909,0.1876,0.1735,0.1247,0.0,0.0,0.0,0.0,0.0,0.0,0.0,0.0,0.0,0.0,0.0,0.0,0.0,0.0,0.0,0.0,0.0,0.0,0.0,0.0,0.0,0.0,0.0,0.0,0.0,-0.3068,-0.2925,-0.2838,-0.2774,-0.3053,-0.3428,-0.3883,-0.3938,-0.3978,-0.4066,-0.4435,-0.4883,0.0,0.0,-0.5787,-0.6265,-0.6352,-0.6376,-0.6399,-0.6429,-0.6755,-0.7225,-0.7373,-0.7927,-0.86,0.0,0.0,0.0,0.0,0.0,0.0,0.0,0.0,0.0,0.0,0.0,0.0,0.0,0.0,0.0,0.0,0.0,0.0,0.0,0.0,0.6807,0.6616,0.6483,0.6218,0.5778,0.5842,0.596,0.6113,0.5778,0.5533,0.5388,0.5048,0.5017,0.5204,0.4787,0.4608,0.4602,0.4496,0.4562,0.4814,0.0,0.0,0.0,0.0,0.0,0.0,0.0,0.0,0.0,0.0,0.3163,0.297,0.2779,0.0,0.0,0.0,0.0,0.0,0.1823,0.1852,0.1895,0.1814,0.1701,0.1599,0.1554,0.1283,0.0,0.0,0.0,0.0,0.0,0.0,0.0,0.0,0.0,0.0,0.0,0.0,0.0,0.0,0.0,0.0,0.0,0.0,0.0,0.0,0.0,0.0,0.0,0.0,0.0,0.0,-0.265,-0.257,-0.2556,-0.2562,-0.2838,-0.3356,-0.3423,-0.3621,-0.3892,-0.4192,-0.4536,-0.4877,0.0,-0.5428,-0.5836,-0.6014,-0.6176,-0.6315,-0.6315,-0.646,-0.6725,-0.6725,-0.7196,-0.783,0.0,0.0,0.0,0.0,0.0,0.0,0.0,0.0,0.0,0.0,0.0,0.0,0.0,0.0,0.0,0.0,0.0,0.0,0.0,0.7048,0.6861,0.6616,0.6671,0.6648,0.6516,0.6253,0.6219,0.6406,0.5987,0.5742,0.5656,0.5343,0.5461,0.5875,0.53,0.4996,0.4907,0.4834,0.4847,0.4927,0.0,0.0,0.0,0.0,0.0,0.0,0.0,0.0,0.0,0.0,0.0,0.0,0.0,0.0,0.0,0.2491,0.2172,0.1915,0.1835,0.1927,0.1986,0.1669,0.163,0.1567,0.1349,0.1293,0.0,0.0,0.0,0.0,0.0,0.0,0.0,0.0,0.0,0.0,0.0,0.0,0.0,0.0,0.0,0.0,0.0,0.0,0.0,0.0,0.0,0.0,0.0,0.0,0.0,0.0,-0.2346,-0.2286,-0.2319,-0.2201,-0.2381,-0.2798,-0.2962,-0.3229,-0.3625,-0.3823,-0.4103,-0.4401,-0.4628,-0.5033,-0.5517,-0.5651,-0.5952,-0.6315,-0.6315,-0.6315,-0.6315,-0.6315,-0.6695,-0.7196,0.0,0.0,0.0,0.0,0.0,0.0,0.0,0.0,0.0,0.0,0.0,0.0,0.0,0.0,0.0,0.0,0.0,0.0,0.0,0.718,0.7015,0.6616,0.6888,0.688,0.6495,0.6115,0.6074,0.6406,0.5993,0.6022,0.643,0.6386,0.6196,0.5882,0.586,0.5612,0.523,0.4927,0.4967,0.5224,0.494,0.0,0.0,0.0,0.0,0.0,0.0,0.0,0.0,0.0,0.0,0.0,0.0,0.0,0.337,0.2963,0.2612,0.2275,0.1908,0.1725,0.1642,0.1605,0.2112,0.2377,0.1499,0.1289,0.0,0.0773,0.0,0.0,0.0,0.0,0.0,0.0,0.0,0.0,0.0,0.0,0.0,0.0,0.0,0.0,0.0,0.0,0.0,0.0,0.0,0.0,0.0,0.0,0.0,-0.1874,-0.1862,-0.1817,-0.175,-0.192,-0.2192,-0.254,-0.2726,-0.29,-0.3053,-0.3256,-0.3739,-0.4379,-0.4113,-0.4673,-0.5745,-0.5334,-0.5618,-0.6315,-0.6315,-0.6315,-0.6315,-0.6315,-0.6695,-0.7196,0.0,0.0,0.0,0.0,0.0,0.0,0.0,0.0,0.0,0.0,0.0,0.0,0.0,0.0,0.0,0.0,0.0,0.0,0.0,0.7287,0.708,0.6807,0.7112,0.7181,0.6925,0.6814,0.6782,0.6776,0.6122,0.6005,0.6423,0.6235,0.6185,0.6244,0.5765,0.5435,0.5302,0.5164,0.5177,0.5302,0.5157,0.5177,0.0,0.0,0.0,0.0,0.0,0.0,0.0,0.0,0.4377,0.4285,0.3848,0.3614,0.3387,0.2764,0.2327,0.1993,0.1842,0.1877,0.1889,0.1502,0.2061,0.2398,0.1206,0.0916,0.0804,0.0372,0.0138,0.0,0.0,0.0,0.0,0.0,0.0,0.0,0.0,0.0,0.0,0.0,0.0,0.0,0.0,0.0,0.0,0.0,0.0,0.0,0.0,0.0,0.0,-0.15,-0.1449,-0.1496,-0.1645,-0.1667,-0.1825,-0.2074,-0.2681,-0.3074,-0.3267,-0.3574,-0.3807,-0.39,-0.4064,-0.4388,-0.475,-0.4897,-0.5199,-0.5603,-0.6104,-0.6315,-0.6315,-0.6315,-0.6429,-0.6695,0.0,0.0,0.0,0.0,0.0,0.0,0.0,0.0,0.0,0.0,0.0,0.0,0.0,0.0,0.0,0.0,0.0,0.0,0.762,0.7439,0.7191,0.6911,0.7296,0.7543,0.7554,0.7463,0.7311,0.7038,0.6491,0.6338,0.6606,0.652,0.6548,0.6661,0.5975,0.5617,0.5491,0.534,0.5309,0.5309,0.5309,0.5309,0.0,0.0,0.0,0.0,0.0,0.0,0.0,0.0,0.4685,0.446,0.3933,0.3666,0.336,0.2681,0.2227,0.1924,0.1887,0.2016,0.2119,0.1757,0.2195,0.2414,0.1341,0.0981,0.0757,0.0313,0.0107,0.0,0.0,0.0,0.0,0.0,0.0,0.0,0.0,0.0,0.0,0.0,0.0,0.0,0.0,0.0,0.0,0.0,0.0,0.0,0.0,0.0,0.0,0.0,-0.1029,-0.1118,-0.1316,-0.138,-0.1469,-0.1585,-0.2369,-0.2882,-0.3103,-0.3521,-0.3644,-0.3548,-0.3777,-0.3977,-0.4168,-0.422,-0.4282,-0.448,-0.5443,-0.6029,-0.6315,-0.6315,-0.6315,-0.6376,0.0,0.0,0.0,0.0,0.0,0.0,0.0,0.0,0.0,0.0,0.0,0.0,0.0,0.0,0.0,0.0,0.0,0.0,0.762,0.7605,0.7392,0.6911,0.7464,0.7953,0.8286,0.79,0.7524,0.71,0.71,0.71,0.7109,0.7501,0.7471,0.7089,0.6691,0.6275,0.5882,0.546,0.5316,0.5309,0.5309,0.5309,0.5309,0.0,0.0,0.0,0.0,0.0,0.0,0.0,0.4883,0.4402,0.4388,0.3989,0.3393,0.2856,0.2452,0.2168,0.204,0.2097,0.2244,0.2445,0.0,0.0,0.2111,0.1643,0.1198,0.0766,0.0328,0.0,0.0,0.0,0.0,0.0,0.0,0.0,0.0,0.0,0.0,0.0,0.0,0.0,0.0,0.0,0.0,0.0,0.0,0.0,0.0,0.0,0.0,0.0,-0.0607,-0.063,-0.0698,-0.1029,-0.1163,-0.1096,-0.1694,-0.2128,-0.2408,-0.2882,-0.3195,-0.336,-0.3043,-0.3427,-0.4193,-0.3195,-0.2799,-0.2945,-0.4276,-0.5404,-0.6284,-0.6284,-0.6315,-0.6315,0.0,0.0,0.0,0.0,0.0,0.0,0.0,0.0,0.0,0.0,0.0,0.0,0.0,0.0,0.0,0.0,0.0,0.0,0.7812,0.75,0.7256,0.7114,0.7374,0.7623,0.7876,0.8269,0.7958,0.6894,0.7022,0.71,0.7109,0.7215,0.7207,0.7089,0.6691,0.6275,0.5882,0.5765,0.5554,0.5309,0.5309,0.5309,0.5309,0.0,0.0,0.0,0.0,0.0,0.0,0.0,0.0,0.0,0.4251,0.3824,0.3388,0.2869,0.2461,0.2168,0.204,0.2097,0.0,0.2264,0.0,0.0,0.0,0.2071,0.0,0.0,0.0651,0.0498,0.0,0.0,0.0,0.0,0.0,0.0,0.0,0.0,0.0,0.0,0.0,0.0,0.0,0.0,0.0,0.0,0.0,0.0,0.0,0.0,0.0,0.0,-0.045,-0.0517,-0.063,-0.0673,-0.074,-0.0832,-0.1237,-0.1573,-0.1852,-0.2578,-0.2737,-0.251,-0.289,-0.3035,-0.3013,-0.2815,-0.3008,-0.3511,-0.4434,-0.4966,-0.5347,-0.6029,-0.6315,-0.6315,0.0,0.0,0.0,0.0,0.0,0.0,0.0,0.0,0.0,0.0,0.8891,0.8869,0.0,0.0,0.0,0.0,0.0,0.0,0.0,0.7635,0.7394,0.7195,0.7504,0.7791,0.8004,0.8699,0.8563,0.7593,0.7585,0.7482,0.7326,0.7348,0.7344,0.7305,0.676,0.6366,0.6121,0.5797,0.5522,0.5309,0.5309,0.5309,0.5302,0.0,0.0,0.0,0.0,0.0,0.0,0.0,0.0,0.0,0.3889,0.3594,0.3266,0.2826,0.2626,0.2553,0.2532,0.2535,0.0,0.2631,0.2669,0.2706,0.2675,0.0,0.0,0.0,0.0,0.0,0.0,0.0,0.0,0.0,0.0,0.0,0.0,0.0,0.0,0.0,0.0,0.0,0.0,0.0,0.0,0.0,0.0,0.0,0.0,0.0,0.0,0.0,-0.0405,-0.045,-0.0517,-0.0472,-0.0495,-0.0585,-0.083,-0.1052,-0.1277,-0.2037,-0.2239,-0.2008,-0.261,-0.2698,-0.2425,-0.2572,-0.306,-0.3737,-0.4194,-0.4549,-0.487,-0.5467,-0.5718,-0.5749,0.0,0.0,0.0,0.0,0.0,0.0,0.0,0.0,0.0,0.0,0.8891,0.8863,0.0,0.0,0.0,0.0,0.0,0.0,0.0,0.787,0.7665,0.7294,0.7854,0.8297,0.8537,0.9147,0.9262,0.8844,0.8477,0.8119,0.7754,0.7725,0.7695,0.7666,0.6948,0.6579,0.651,0.5736,0.5394,0.5363,0.5304,0.529,0.5263,0.4926,0.0,0.0,0.0,0.0,0.0,0.0,0.0,0.0,0.3511,0.3363,0.3119,0.2816,0.2941,0.3183,0.3239,0.0,0.0,0.3216,0.297,0.0,0.0,0.0,0.0,0.0,0.0,0.0,0.0,0.0,0.0,0.0,0.0,0.0,0.0,0.0,0.0,0.0,0.0,0.0,0.0,0.0,0.0,0.0,0.0,0.0,0.0,0.0,0.0,0.0,-0.0405,-0.0405,-0.0405,-0.0405,-0.0405,0.0,-0.0517,-0.0607,-0.0698,-0.143,-0.1759,-0.1825,-0.225,-0.2381,-0.2333,-0.2446,-0.296,-0.3705,-0.3705,-0.4096,-0.4716,-0.478,-0.4812,-0.4934,0.0,0.0,0.0,0.0,0.0,0.0,0.0,0.0,0.0,0.0,0.0,0.0,0.0,0.0,0.0,0.0,0.0,0.0,0.0,0.7561,0.7511,0.7893,0.8528,0.8917,0.897,0.9516,0.9607,0.9262,0.8617,0.8262,0.8176,0.7841,0.7695,0.7695,0.751,0.7255,0.6943,0.6442,0.6067,0.5737,0.5354,0.522,0.5185,0.4912,0.4679,0.0,0.0,0.0,0.0,0.0,0.0,0.0,0.3586,0.3644,0.3706,0.317,0.3395,0.3651,0.3,0.297,0.0,0.0,0.2779,0.0,0.0,0.0,0.0,0.0,0.0,0.0,0.0,0.0,0.0,0.0,0.0,0.0,0.0,0.0,0.0,0.0,0.0,0.0,0.0,0.0,0.0,0.0,0.0,0.0,0.0,0.0,0.0,-0.0405,-0.0405,-0.0405,-0.0405,-0.0405,-0.0405,0.0,-0.0427,-0.0472,-0.0562,-0.1096,-0.1493,-0.1803,-0.1847,-0.2092,-0.2446,-0.2376,-0.2877,-0.3705,-0.3705,-0.3803,-0.3999,-0.4581,-0.4812,-0.4844,0.0,0.0,0.0,0.0,0.0,0.0,0.0,0.0,0.0,0.0,0.0,0.0,0.0,0.0,0.0,0.0,0.0,0.0,0.0,0.0,0.8635,0.8951,0.921,0.9369,0.9491,0.9755,0.9828,0.9633,0.9119,0.8674,0.829,0.7889,0.7695,0.7695,0.75,0.7305,0.7061,0.6477,0.609,0.5843,0.5249,0.5079,0.5147,0.476,0.461,0.4544,0.4135,0.0,0.0,0.0,0.0,0.0,0.0,0.0,0.3732,0.3583,0.3758,0.3936,0.3606,0.0,0.0,0.309,0.0,0.0,0.0,0.0,0.0,0.0,0.0,0.0,0.0,0.0,0.0,0.0,0.0,0.0,0.0,0.0,0.0,0.0,0.0,0.0,0.0,0.0,0.0,0.0,0.0,0.0,0.0,0.0023,0.0023,0.0071,-0.0069,-0.0157,-0.0157,-0.0315,-0.0405,-0.0405,-0.0405,-0.0472,-0.0607,-0.0918,-0.1183,-0.1427,-0.1405,-0.1582,-0.1825,-0.1759,-0.2502,-0.3705,-0.3705,-0.3705,-0.3723,-0.3804,-0.4252,-0.4812,0.0,0.0,0.0,0.0,0.0,0.0,0.0,0.0,0.0,0.0,0.0,0.0,0.0,0.0,0.0,0.0,0.0,0.0,0.0,0.0,0.0,0.9857,0.9724,0.9732,0.9893,0.9905,0.9943,1.0044,0.9591,0.9102,0.851,0.8108,0.788,0.7812,0.7551,0.7335,0.7159,0.6421,0.6023,0.5825,0.5209,0.5056,0.5147,0.4736,0.4656,0.4694,0.4238,0.4023,0.3901,0.3711,0.0,0.0,0.0,0.0,0.3758,0.3951,0.4066,0.4148,0.4186,0.0,0.3946,0.3474,0.0,0.0,0.0,0.0,0.0,0.0,0.0,0.0,0.0,0.0,0.0,0.0,0.0,0.0,0.0,0.0,0.0,0.0,0.0,0.0,0.0,0.0,0.0,0.0,0.0,0.0,0.0589,0.0544,0.0542,0.059,0.0302,0.016,0.0187,-0.0205,-0.0367,-0.0309,-0.0371,-0.0479,-0.0652,-0.0784,-0.0894,-0.1027,-0.1072,-0.1094,-0.1094,-0.1094,-0.1944,-0.3286,-0.3584,-0.362,-0.3454,-0.3084,-0.3583,-0.4496,0.0,0.0,0.0,0.0,0.0,0.0,0.0,0.0,0.0,0.0,1.1011,0.0,0.0,0.0,0.0,0.0,0.0,0.0,0.0,0.0,0.0,0.9644,0.9787,0.9881,0.9905,0.9905,1.0131,1.0581,0.945,0.9068,0.9407,0.8999,0.8643,0.8311,0.8597,0.8313,0.7608,0.7128,0.6499,0.5802,0.57,0.5484,0.5216,0.5258,0.5002,0.4602,0.4417,0.4234,0.4103,0.4228,0.4289,0.0,0.0,0.0,0.4542,0.4133,0.4329,0.4505,0.0,0.0,0.357,0.0,0.0,0.0,0.0,0.0,0.0,0.0,0.0,0.0,0.0,0.0,0.0,0.0,0.0,0.0,0.0,0.0,0.0,0.0,0.0,0.0,0.0,0.0,0.0,0.0,0.0,0.0,0.0521,0.0783,0.0813,0.0613,0.0451,0.0408,0.0544,-0.0096,-0.0222,0.0115,-0.0236,-0.0409,-0.045,-0.0517,-0.0739,-0.1094,-0.1094,-0.1094,-0.1094,-0.1094,-0.1237,-0.1587,-0.3116,-0.3269,-0.2731,-0.3345,-0.3352,-0.324,0.0,0.0,0.0,0.0,0.0,0.0,0.0,0.0,0.0,0.0,0.0,1.1879,0.0,0.0,0.0,0.0,0.0,0.0,0.0,0.0,0.0,1.0559,1.0494,1.0373,1.0185,0.9995,1.0018,1.0257,0.9734,0.9482,0.9475,0.9372,0.9,0.8411,0.832,0.8213,0.8047,0.7383,0.6875,0.647,0.5817,0.5595,0.5549,0.5208,0.5012,0.4912,0.4692,0.4563,0.4487,0.4428,0.4402,0.4436,0.4568,0.0,0.0,0.0,0.4409,0.0,0.4,0.3782,0.3728,0.0,0.0,0.0,0.0,0.0,0.0,0.0,0.0,0.0,0.0,0.0,0.0,0.0,0.0,0.0,0.0,0.0,0.0,0.0,0.0,0.0,0.0,0.0,0.0,0.0,0.0,0.1076,0.1052,0.1174,0.1225,0.1219,0.1042,0.0986,0.1049,0.0727,0.041,0.0154,0.0051,-0.017,-0.045,-0.0495,-0.0651,-0.0942,-0.0962,-0.1027,-0.1094,-0.1094,-0.1389,-0.1862,-0.2137,-0.2628,-0.3152,-0.3049,-0.3159,-0.3383,0.0,0.0,0.0,0.0,0.0,0.0,0.0,0.0,0.0,0.0,0.0,0.0,0.0,0.0,0.0,0.0,0.0,0.0,0.0,0.0,0.0,1.1219,1.1059,1.0809,1.0469,1.0237,1.0182,1.0332,1.0004,0.9753,0.9583,0.9373,0.9003,0.8517,0.8175,0.8115,0.8174,0.7529,0.7129,0.6852,0.6013,0.5765,0.5856,0.529,0.515,0.5202,0.5002,0.4918,0.4891,0.4706,0.4629,0.4663,0.4854,0.4796,0.0,0.0,0.0,0.0,0.0,0.0,0.413,0.0,0.0,0.0,0.0,0.0,0.0,0.0,0.0,0.0,0.0,0.0,0.0,0.0,0.0,0.0,0.0,0.0,0.0,0.0,0.0,0.0,0.0,0.0,0.0,0.0,0.0,0.1487,0.1474,0.1491,0.1565,0.1757,0.155,0.1449,0.1472,0.1327,0.0921,0.0286,0.0248,0.0024,-0.0347,-0.0431,-0.0562,-0.0721,-0.083,-0.0938,-0.1027,-0.1072,-0.1462,-0.2012,-0.1358,-0.1899,-0.2968,-0.2511,-0.2754,-0.334,0.0,0.0,0.0,0.0,0.0,0.0,0.0,0.0,0.0,0.0,0.0,0.0,1.263,1.2578,1.2463,1.221,1.2205,0.0,0.0,0.0,0.0,1.092,1.1093,0.0,1.0699,1.0684,1.0947,1.15,1.0116,0.9682,1.0135,0.8937,0.8544,0.889,0.8925,0.8496,0.7725,0.7686,0.718,0.6426,0.6437,0.6211,0.5908,0.5861,0.5619,0.5289,0.5289,0.5282,0.5269,0.5262,0.5269,0.5269,0.5282,0.5275,0.5184,0.0,0.0,0.0,0.0,0.4655,0.0,0.0,0.0,0.0,0.0,0.0,0.0,0.0,0.0,0.0,0.0,0.0,0.0,0.0,0.0,0.0,0.0,0.0,0.0,0.0,0.0,0.0,0.0,0.0,0.0,0.0,0.0,0.1604,0.1406,0.1648,0.1809,0.1873,0.1687,0.1611,0.1674,0.1315,0.1009,0.0746,0.026,0.0025,0.005,-0.0255,-0.045,-0.0517,-0.0721,-0.0808,-0.0825,-0.0961,-0.1078,-0.1154,-0.1121,-0.1152,-0.1281,-0.1746,-0.205,-0.2347,0.0,0.0,0.0,0.0,0.0,0.0,0.0,0.0,0.0,0.0,0.0,0.0,0.0,1.3473,1.3392,1.2886,1.2305,0.0,0.0,0.0,0.0,1.2103,1.1968,1.1767,1.1482,1.1269,1.0933,1.0508,0.9988,0.9823,0.9995,0.9317,0.8945,0.88,0.8369,0.8174,0.8125,0.7812,0.7511,0.7202,0.6889,0.6667,0.6521,0.6188,0.0,0.0,0.0,0.0,0.0,0.5649,0.5522,0.534,0.5617,0.5672,0.5614,0.529,0.492,0.0,0.0,0.0,0.0,0.0,0.0,0.0,0.0,0.0,0.0,0.0,0.0,0.0,0.0,0.0,0.0,0.0,0.0,0.0,0.0,0.0,0.0,0.0,0.0,0.0,0.0,0.0,0.0,0.0,0.0,0.0,0.1673,0.1816,0.1905,0.1914,0.1923,0.1879,0.1843,0.1856,0.1614,0.112,0.0968,0.0713,0.0351,0.0049,-0.0141,-0.0247,-0.045,-0.0607,-0.074,-0.0827,-0.0961,-0.1072,-0.0919,-0.1366,-0.2064,-0.1563,-0.1864,-0.2463,0.0,0.0,0.0,0.0,0.0,0.0,0.0,0.0,0.0,1.2823,0.0,0.0,0.0,0.0,1.3894,1.3451,1.2833,1.2478,1.2478,1.2478,1.2611,1.2956,1.2914,1.2621,1.2006,1.1777,1.1174,1.0182,0.9993,0.9905,0.9905,0.9422,0.9062,0.8761,0.8186,0.8027,0.8145,0.8008,0.7949,0.7888,0.0,0.0,0.7069,0.0,0.0,0.0,0.0,0.0,0.0,0.0,0.0,0.0,0.5894,0.6066,0.6021,0.568,0.5466,0.0,0.5043,0.0,0.0,0.0,0.0,0.0,0.0,0.0,0.0,0.0,0.0,0.0,0.0,0.0,0.0,0.0,0.0,0.0,0.0,0.0,0.0,0.0,0.0,0.0,0.0,0.0,0.0,0.0,0.0,0.0,0.1901,0.2047,0.2108,0.2082,0.2093,0.2077,0.2031,0.2133,0.1967,0.1525,0.1431,0.111,0.0652,0.0443,0.0223,0.0022,-0.0162,-0.0368,-0.0607,-0.0672,-0.0782,-0.09,-0.0906,-0.1382,-0.2024,-0.1511,-0.1747,-0.2227,0.0,0.0,0.0,0.0,0.0,0.0,0.0,0.0,1.3219,1.3219,0.0,0.0,0.0,0.0,0.0,1.384,1.3825,1.381,1.381,1.3795,1.3638,1.3324,0.0,0.0,1.2213,1.2171,1.1681,1.0669,1.0169,0.9905,0.9867,0.917,0.8828,0.8834,0.8552,0.8156,0.7773,0.8193,0.8401,0.8325,0.0,0.7586,0.7479,0.0,0.0,0.0,0.6209,0.6209,0.0,0.0,0.0,0.0,0.0,0.6394,0.6397,0.6006,0.6183,0.0,0.0,0.0,0.0,0.0,0.0,0.0,0.0,0.0,0.0,0.0,0.0,0.0,0.0,0.0,0.0,0.0,0.0,0.0,0.0,0.0,0.0,0.0,0.0,0.0,0.0,0.0,0.0,0.0,0.0,0.2334,0.2139,0.2284,0.2408,0.2408,0.2211,0.2183,0.2286,0.2033,0.1936,0.2011,0.1525,0.1209,0.1008,0.0867,0.0625,0.0319,0.0171,-0.0072,-0.0385,-0.0473,-0.0496,-0.0551,-0.1085,-0.1129,-0.0995,-0.1569,-0.1715,-0.1632,0.0,0.0,0.0,0.0,0.0,0.0,1.3061,1.349,1.3859,0.0,0.0,0.0,1.4513,1.4513,1.4513,1.4513,1.4079,1.381,1.381,1.3346,1.3262,1.3638,1.3331,1.2791,1.2004,1.199,1.1375,1.0131,0.9981,0.9905,0.9893,0.9686,0.9668,0.9786,0.9034,0.8701,0.8704,0.8477,0.0,0.7879,0.7614,0.7357,0.0,0.0,0.0,0.0,0.0,0.6473,0.0,0.0,0.6383,0.61,0.0,0.0,0.6037,0.5944,0.5975,0.0,0.5435,0.0,0.0,0.0,0.0,0.0,0.0,0.0,0.0,0.0,0.0,0.0,0.0,0.0,0.0,0.0,0.0,0.0,0.0,0.0,0.0,0.0,0.0,0.0,0.0,0.0,0.0,0.0,0.3366,0.3012,0.2569,0.2485,0.2441,0.2408,0.2377,0.2347,0.2286,0.2276,0.221,0.2081,0.1886,0.1709,0.1494,0.122,0.1117,0.1134,0.0673,0.0307,0.0,-0.0306,-0.0495,-0.0577,-0.0681,-0.0943,-0.125,-0.1188,-0.1413,-0.1777,0.0,0.0,0.0,0.0,0.0,1.3912,1.3458,1.3974,1.4415,0.0,0.0,0.0,1.5229,1.5229,1.5229,1.5229,1.4857,1.4513,1.4244,1.384,1.3675,1.381,1.3421,1.2795,1.1911,1.1897,1.1237,0.9905,0.9905,1.0018,1.0218,1.0084,1.0213,1.0493,0.9775,0.931,0.9095,0.0,0.0,0.0,0.7857,0.0,0.0,0.7243,0.6966,0.0,0.0,0.0,0.6456,0.6716,0.6779,0.0,0.0,0.0,0.0,0.0,0.0,0.0,0.0,0.0,0.0,0.0,0.0,0.0,0.0,0.5295,0.0,0.0,0.0,0.0,0.0,0.0,0.0,0.0,0.0,0.0,0.0,0.0,0.0,0.0,0.0,0.0,0.0,0.0,0.0,0.4145,0.3886,0.3565,0.327,0.2808,0.2639,0.2768,0.2543,0.238,0.2347,0.2314,0.2214,0.2117,0.2047,0.1943,0.1752,0.1604,0.1522,0.1479,0.1087,0.08,0.0528,0.0026,-0.0333,-0.0563,-0.0634,-0.0875,-0.1125,-0.0996,-0.1218,-0.1605,0.0,0.0,0.0,1.2742,1.3107,1.3575,1.4175,1.4637,1.4995,0.0,1.5515,1.5694,1.5694,1.5694,1.5694,1.5694,1.5694,1.5409,1.4722,1.4618,1.4303,1.372,1.363,1.3015,1.1864,1.1799,1.1236,1.0045,1.0019,1.027,1.0781,1.0448,1.0558,1.1051,1.0467,0.0,0.9145,0.0,0.0,0.8308,0.8203,0.8061,0.0,0.0,0.6905,0.0,0.6566,0.6418,0.6263,0.6651,0.7097,0.0,0.0,0.0,0.0,0.0,0.7314,0.0,0.0,0.0,0.0,0.0,0.0,0.0,0.5599,0.5424,0.5269,0.0,0.0,0.0,0.0,0.0,0.0,0.0,0.0,0.0,0.0,0.0,0.0,0.0,0.0,0.0,0.0,0.484,0.4599,0.459,0.4242,0.4058,0.4058,0.327,0.3006,0.336,0.2742,0.2447,0.2474,0.2247,0.2114,0.2117,0.2117,0.1993,0.1835,0.1955,0.1831,0.1552,0.1473,0.1314,0.1087,0.0457,-0.0057,-0.0479,-0.0758,-0.0847,-0.0825,-0.0932,-0.1112,-0.1286,0.0,0.0,1.272,1.2786,1.375,1.4517,1.4679,1.5212,1.5604,1.5689,1.5287,1.4992,1.4992,1.4992,1.4992,1.4992,1.4992,1.4707,1.4049,1.3481,1.313,1.3011,1.2478,1.1962,1.1427,1.1206,1.1044,1.0938,1.0695,1.086,1.1412,1.0862,1.092,1.1417,1.0144,0.9534,0.0,0.0,0.0,0.7832,0.7819,0.0,0.7247,0.7049,0.6727,0.6356,0.63,0.6243,0.6263,0.0,0.6881,0.6975,0.0,0.0,0.0,0.0,0.0,0.0,0.0,0.0,0.0,0.0,0.0,0.0,0.6306,0.6272,0.6169,0.0,0.0,0.0,0.0,0.0,0.0,0.0,0.0,0.0,0.0,0.0,0.0,0.0,0.0,0.0,0.0,0.4769,0.4799,0.5061,0.4654,0.4403,0.4403,0.3988,0.3798,0.3858,0.3364,0.3068,0.2973,0.2543,0.2245,0.2117,0.2117,0.207,0.2046,0.2007,0.1999,0.1977,0.1812,0.1536,0.1263,0.1068,0.0535,-0.0211,-0.0485,-0.0716,-0.0877,-0.0904,-0.1037,-0.1234,0.0,1.2576,1.3011,1.3685,1.4333,1.4902,1.5259,1.5589,1.5679,1.5364,1.4707,1.4303,1.4303,1.4303,1.4303,1.4303,1.4303,1.4019,1.3346,1.2996,1.2651,1.2336,1.1969,1.1807,1.1794,1.1472,1.1437,1.1691,1.135,1.1437,1.1989,1.1425,1.136,1.1645,1.0554,0.9864,0.0,0.0,0.8336,0.7976,0.7783,0.0,0.7289,0.7226,0.6959,0.6592,0.6482,0.6327,0.6181,0.6308,0.6787,0.0,0.0,0.719,0.7373,0.0,0.7255,0.7344,0.0,0.0,0.0,0.7107,0.0,0.0,0.0,0.6628,0.6458,0.0,0.0,0.0,0.0,0.0,0.0,0.0,0.0,0.0,0.0,0.0,0.0,0.0,0.0,0.0,0.0,0.4389,0.4679,0.497,0.4941,0.4884,0.4884,0.4505,0.4312,0.4312,0.3784,0.3458,0.3392,0.29,0.2573,0.2441,0.2281,0.215,0.2114,0.2055,0.2061,0.2081,0.1988,0.183,0.1642,0.144,0.1152,0.0769,-0.0031,-0.0423,-0.0594,-0.0816,-0.1064,-0.1264,1.2906,0.0,1.3535,1.4603,1.4902,1.5184,1.5724,1.5799,1.5514,1.4707,1.4139,1.3765,1.363,1.3735,1.375,1.363,1.3615,1.3376,1.2846,1.2681,1.2463,1.2209,1.1939,1.1993,1.2376,1.201,1.1952,1.2241,1.189,1.1956,1.2391,1.1726,1.1486,1.156,1.078,1.0129,0.0,0.0,0.0,0.8262,0.0,0.7786,0.753,0.7457,0.7267,0.7049,0.6951,0.6768,0.6514,0.6419,0.0,0.7899,0.7484,0.7555,0.0,0.0,0.0,0.0,0.0,0.0,0.0,0.0,0.0,0.7221,0.0,0.0,0.0,0.6652,0.0,0.0,0.0,0.0,0.0,0.0,0.0,0.0,0.0,0.0,0.0,0.0,0.0,0.0,0.0,0.4032,0.4442,0.4677,0.4943,0.5137,0.519,0.484,0.4676,0.473,0.4172,0.3876,0.3844,0.3323,0.2999,0.2867,0.2547,0.2317,0.215,0.2183,0.2183,0.2117,0.2183,0.2147,0.2014,0.1742,0.1709,0.1744,0.0469,-0.0035,-0.0147,-0.0595,-0.0885,-0.1102,1.3675,1.4154,1.4618,1.4767,1.5304,1.5709,1.5784,1.5799,1.5364,1.4079,1.3855,1.357,1.2996,1.3436,0.0,1.2981,0.0,0.0,1.2801,0.0,1.2403,1.3501,1.2433,1.2104,1.2739,1.2415,1.2317,1.2469,1.2241,1.2204,1.2391,1.1295,1.0791,1.08,0.9946,0.0,0.0,0.0,0.8606,0.0,0.8631,0.8319,0.0,0.728,0.7386,0.77,0.768,0.787,0.8128,0.0,0.8443,0.8799,0.0,0.8269,0.0,0.0,0.0,0.0,0.0,0.0,0.0,0.0,0.7666,0.0,0.0,0.0,0.755,0.7559,0.0,0.0,0.0,0.0,0.0,0.0,0.0,0.0,0.0,0.0,0.0,0.0,0.0,0.0,0.0,0.0,0.4245,0.4256,0.4413,0.4616,0.4847,0.4795,0.492,0.5207,0.4762,0.4468,0.4398,0.3876,0.3425,0.3072,0.2838,0.2573,0.2286,0.2517,0.2447,0.2117,0.2483,0.2417,0.2083,0.2047,0.2047,0.1981,0.0974,0.05,0.027,-0.0075,-0.024,-0.0442,1.4378,1.4603,0.0,1.5319,1.5619,1.5679,1.5289,1.4569,1.3865,1.3286,1.2882,1.2538,0.0,0.0,0.0,0.0,0.0,1.2801,0.0,0.0,1.2448,1.2643,0.0,0.0,0.0,1.2429,1.2357,1.2623,1.2257,1.2023,1.1914,1.1082,1.061,1.0387,0.9689,0.0,0.9035,0.0,0.0,0.0,0.0,0.0,0.0,0.8169,0.8337,0.846,0.8243,0.8748,0.9402,0.0,0.8652,0.0,0.0,0.0,0.0,0.0,0.0,0.0,0.0,0.0,0.0,0.0,0.0,0.0,0.0,0.0,0.7695,0.0,0.0,0.0,0.0,0.0,0.0,0.0,0.0,0.0,0.0,0.0,0.0,0.0,0.0,0.0,0.0,0.0,0.0,0.0,0.0,0.4635,0.4685,0.4906,0.5112,0.5302,0.5081,0.4947,0.4915,0.443,0.4011,0.3723,0.3229,0.2838,0.2577,0.2414,0.2411,0.2507,0.2646,0.248,0.2117,0.235,0.2281,0.2014,0.1611,0.1231,0.0869,0.0365,-0.0043,-0.0403,1.4528,0.0,0.0,0.0,0.0,0.0,1.4588,1.3525,1.2801,1.2801,0.0,0.0,1.182,1.2134,0.0,0.0,0.0,1.2606,0.0,0.0,1.2269,0.0,0.0,0.0,0.0,0.0,1.2377,1.243,1.2128,1.1747,1.1337,1.0731,1.0358,1.0097,0.0,0.9372,0.9325,0.0,0.0,0.9083,0.9477,0.9404,0.9082,0.915,0.918,0.9155,0.8988,0.9524,1.0147,0.9224,0.9097,0.0,0.9219,0.0,0.0,0.0,0.0,0.0,0.8633,0.0,0.0,0.0,0.0,0.0,0.0,0.0,0.0,0.0,0.0,0.0,0.0,0.0,0.0,0.0,0.0,0.0,0.0,0.0,0.0,0.0,0.0,0.0,0.0,0.0,0.0,0.0,0.0,0.0,0.447,0.4746,0.5047,0.5267,0.523,0.5239,0.5239,0.4884,0.4558,0.4269,0.3691,0.3266,0.2999,0.2639,0.2606,0.2798,0.2838,0.2643,0.2284,0.2679,0.258,0.2181,0.2245,0.1955,0.1442,0.0923,0.0508,0.0172,1.384,1.384,0.0,0.0,0.0,0.0,0.0,0.0,0.0,0.0,0.0,0.0,0.0,0.0,0.0,0.0,0.0,1.2104,1.2771,0.0,1.1709,0.0,0.0,1.2104,0.0,0.0,0.0,1.1732,1.1862,1.1495,1.0719,1.0194,0.9931,0.9905,0.954,0.9873,1.0613,1.0302,1.0457,1.0943,1.1339,1.1218,1.0742,0.0,0.9573,0.9631,1.0088,0.0,0.0,1.0244,1.0244,0.0,0.0,0.0,0.0,0.0,0.0,0.0,0.0,0.0,0.0,0.8467,0.0,0.0,0.0,0.0,0.7695,0.0,0.0,0.0,0.0,0.0,0.7413,0.6553,0.0,0.0,0.0,0.0,0.0,0.0,0.0,0.0,0.0,0.0,0.0,0.0,0.0,0.0,0.4084,0.4192,0.4527,0.519,0.5277,0.5309,0.5309,0.5207,0.4947,0.4494,0.4274,0.3951,0.3565,0.3499,0.3229,0.2831,0.3126,0.3068,0.2712,0.3043,0.2977,0.2679,0.2805,0.2543,0.2022,0.169,0.1665,0.1787,0.0,0.0,0.0,0.0,0.0,0.0,0.0,1.2951,0.0,0.0,0.0,0.0,0.0,0.0,1.4944,0.0,0.0,1.418,1.351,1.3047,0.0,0.0,0.0,1.191,0.0,0.0,0.0,0.0,0.0,1.0865,1.0169,0.9993,0.9905,0.988,0.0,0.9776,0.0,0.0,0.0,0.0,0.0,1.1341,1.1448,0.0,0.0,1.0078,1.0225,1.0283,0.0,1.0283,1.0283,1.0254,1.0107,1.0059,1.0039,0.9893,0.9853,0.0,0.0,0.0,0.9281,0.8896,0.0,0.0,0.0,0.0,0.0,0.0,0.0,0.0,0.0,0.0,0.7119,0.6504,0.6309,0.5967,0.0,0.0,0.0,0.0,0.0,0.0,0.0,0.0,0.0,0.0,0.338,0.0,0.0,0.4527,0.5111,0.5656,0.5688,0.5703,0.5703,0.5358,0.5081,0.4826,0.4494,0.4205,0.3983,0.3686,0.3616,0.3714,0.3756,0.3695,0.3565,0.363,0.3401,0.2977,0.2547,0.2247,0.2083,0.1878,0.1855,0.1835,1.2433,0.0,0.0,0.0,0.0,0.0,0.0,0.0,0.0,0.0,1.4614,0.0,1.5507,0.0,1.6024,0.0,1.5589,1.4989,1.3885,1.3585,0.0,1.2179,1.2171,0.0,0.0,0.0,0.0,0.0,0.0,1.1162,1.0726,1.0521,1.0352,1.0155,0.0,0.9994,1.0704,0.0,1.0978,0.0,0.0,1.1936,0.0,0.0,1.1085,1.1005,0.0,1.0518,1.0724,1.0381,1.042,1.0547,1.0342,1.0283,1.0283,1.0283,1.0283,1.0225,0.9941,0.9863,0.0,0.9336,0.9228,0.0,0.8506,0.0,0.0,0.0,0.0,0.0,0.0,0.0,0.7178,0.6729,0.6426,0.6094,0.0,0.5302,0.0,0.0,0.0,0.0,0.0,0.0,0.0,0.3222,0.3318,0.0,0.0,0.0,0.5414,0.5852,0.6035,0.6037,0.5913,0.5578,0.5302,0.5055,0.4756,0.4558,0.4436,0.4043,0.3978,0.4172,0.4081,0.4021,0.3993,0.4053,0.3826,0.3405,0.3039,0.2577,0.2083,0.1947,0.1911,0.1811,0.0,0.0,0.0,0.0,1.2418,0.0,0.0,0.0,1.4722,0.0,1.5286,1.5847,1.5334,1.6241,1.6637,1.6008,1.5379,0.0,1.3959,1.3286,0.0,0.0,1.2801,1.3077,1.369,0.0,0.0,0.0,0.0,0.0,1.2104,1.1601,1.1121,1.0631,1.0131,0.0,1.155,1.155,1.2146,1.3141,1.3252,1.2992,1.2563,1.2499,1.251,1.2404,1.0915,1.09,1.1459,1.0635,1.0693,1.0954,1.0449,1.0283,1.0283,1.0283,1.0283,1.0332,1.0312,1.0283,1.0146,0.9729,0.0,0.0,0.0,0.0,0.8252,0.0,0.0,0.0,0.0,0.0,0.0,0.7168,0.708,0.6914,0.6475,0.0,0.0,0.0,0.0,0.0,0.0,0.0,0.3719,0.327,0.3233,0.3427,0.0,0.0,0.5435,0.5815,0.6279,0.6336,0.5975,0.5866,0.5617,0.5239,0.5081,0.4985,0.4884,0.4576,0.4312,0.4135,0.4135,0.4081,0.4058,0.4318,0.4215,0.3956,0.4183,0.3397,0.2147,0.1981,0.1911,0.1845,1.3301,1.3301,1.3301,0.0,1.3436,1.354,0.0,0.0,0.0,0.0,1.8302,1.94,1.9241,1.9513,1.9226,1.8059,1.779,0.0,0.0,0.0,0.0,1.2876,1.2801,1.2666,1.2328,1.2448,0.0,1.1808,0.0,0.0,1.0859,1.0869,1.059,1.0106,0.0,0.0,1.0919,1.0919,1.1375,1.2145,1.2864,1.3373,0.0,0.0,1.278,1.3498,1.1845,1.123,1.1279,1.1494,1.1094,1.0478,1.0332,1.0283,1.0283,1.0283,1.0283,1.0371,1.0801,1.0283,0.9707,1.0039,0.9639,0.9023,0.0,0.0,0.0,0.0,0.0,0.0,0.0,0.0,0.0,0.7119,0.6807,0.6543,0.0,0.0,0.0,0.0,0.0,0.0,0.0,0.0,0.3856,0.3721,0.3722,0.3779,0.0,0.0,0.0,0.6251,0.6702,0.6901,0.6781,0.6435,0.6052,0.5655,0.5515,0.5264,0.496,0.4826,0.4756,0.4692,0.4634,0.4543,0.4441,0.4505,0.4479,0.4323,0.4086,0.3565,0.2845,0.2247,0.1914,0.1742,1.4184,0.0,0.0,1.4722,0.0,0.0,1.5158,0.0,0.0,1.7699,1.898,0.0,1.9516,1.9931,1.9959,1.9196,1.8612,0.0,0.0,0.0,0.0,1.4165,1.3835,1.375,1.3934,1.3045,0.0,1.2834,0.0,0.0,1.1619,1.1589,1.1289,1.0828,0.0,1.0809,0.0,1.1332,1.1944,1.2812,1.3338,0.0,0.0,1.3103,1.3064,1.3237,1.2254,1.179,1.1558,1.1543,1.1143,1.0615,1.0361,1.0283,1.0283,1.0283,1.0283,1.0352,1.0674,1.0557,1.0215,0.9678,0.9189,0.8799,0.8682,0.8538,0.8342,0.0,0.0,0.0,0.0,0.0,0.0,0.0,0.0,0.0,0.0,0.0,0.0,0.0,0.0,0.0,0.0,0.0,0.3745,0.3887,0.4058,0.4166,0.0,0.0,0.0,0.6416,0.6841,0.7109,0.7109,0.6648,0.6291,0.6106,0.5967,0.5789,0.5571,0.5295,0.5137,0.5106,0.4902,0.4742,0.4672,0.4634,0.457,0.4511,0.4183,0.3858,0.3434,0.294,0.2477,0.2111,0.0,0.0,0.0,0.0,0.0,0.0,0.0,1.723,0.0,1.8187,0.0,1.8918,1.8331,1.9134,1.9707,1.969,0.0,1.7637,1.6891,1.6338,1.5903,1.5559,1.5052,1.5291,1.6308,1.3979,0.0,0.0,0.0,0.0,1.3221,1.2886,1.248,0.0,0.0,0.0,0.0,1.2178,1.2956,0.0,1.3946,1.3754,1.3454,1.3753,1.3309,1.2508,1.236,1.2266,1.2112,1.125,1.1103,1.1091,1.0488,1.04,1.0469,1.0312,1.0283,1.0303,1.042,1.0871,1.092,0.9414,0.876,0.8564,0.8857,0.8594,0.8291,0.8291,0.7998,0.7695,0.0,0.0,0.0,0.0,0.0,0.0,0.0,0.0,0.0,0.0,0.0,0.0,0.0,0.0,0.3749,0.4044,0.4375,0.0,0.0,0.0,0.0,0.6426,0.6906,0.0,0.7118,0.0,0.6526,0.6488,0.6427,0.6336,0.6244,0.5797,0.5515,0.5446,0.5055,0.487,0.487,0.4704,0.4602,0.457,0.4409,0.4183,0.3956,0.3798,0.3335,0.2808,0.0,0.0,0.0,0.0,0.0,1.8797,1.9127,2.0097,2.0694,2.0246,2.0889,2.1061,2.0292,2.0023,1.9806,1.9698,1.948,0.0,0.0,0.0,0.0,1.4244,1.4558,1.4648,1.4333,1.4904,1.5069,0.0,0.0,0.0,1.3272,1.3046,0.0,0.0,0.0,0.0,1.1656,1.2178,0.0,1.2743,1.3195,1.3611,1.3902,1.3452,1.32,1.3091,1.2592,1.2328,1.2197,1.1667,1.1631,1.167,1.0615,1.0812,1.1243,1.0488,1.0283,1.0479,1.1185,1.041,0.9766,1.1084,0.9629,0.7988,0.8398,0.8154,0.7812,0.7812,0.7754,0.7695,0.7695,0.0,0.0,0.0,0.0,0.0,0.0,0.0,0.0,0.0,0.0,0.0,0.0,0.0,0.0,0.0,0.0,0.0,0.0,0.0,0.0,0.0,0.7173,0.0,0.0,0.0,0.7116,0.6413,0.6665,0.6565,0.6129,0.5983,0.5897,0.5866,0.5484,0.5295,0.5264,0.4896,0.4704,0.4602,0.457,0.4479,0.4388,0.4355,0.3988,0.3458,0.0,0.0,0.0,0.0,0.0,0.0,0.0,2.1554,0.0,1.9992,2.0071,2.0045,1.9329,1.9339,1.9368,1.9273,1.8987,1.8402,1.7568,1.7294,1.6473,1.4902,1.5169,0.0,1.4993,1.5359,1.5183,1.4436,0.0,0.0,1.355,0.0,0.0,1.2855,0.0,1.2178,0.0,0.0,0.0,1.2835,1.3098,1.3348,1.3586,1.3276,1.318,1.318,1.2644,1.2419,1.2318,1.2075,1.1778,1.1387,1.0882,1.0835,1.0889,1.0429,1.0283,1.041,1.0832,1.0293,0.9756,1.0146,0.9199,0.8213,0.8381,0.8037,0.7763,0.8018,0.7861,0.7695,0.7695,0.7695,0.0,0.0,0.0,0.0,0.0,0.0,0.0,0.0,0.0,0.0,0.0,0.0,0.0,0.0,0.0,0.0,0.0,0.0,0.0,0.0,0.0,0.0,0.0,0.0,0.0,0.7017,0.7145,0.7065,0.6755,0.6443,0.6321,0.6291,0.589,0.5609,0.5421,0.5017,0.48,0.4704,0.4634,0.457,0.4543,0.4523,0.4318,0.3983,0.0,2.1141,0.0,0.0,2.1904,0.0,2.173,2.2246,2.188,1.9604,1.9045,1.8736,1.8342,1.856,1.876,1.8854,1.8521,1.7985,1.7233,1.6819,1.6307,1.5634,1.5622,1.5787,1.6026,1.5753,1.5359,0.0,0.0,0.0,0.0,0.0,0.0,0.0,0.0,0.0,0.0,0.0,1.2797,1.3198,1.3198,1.3198,1.3198,1.3198,1.3198,1.3163,1.2791,1.2615,1.2579,1.2551,1.1925,1.1141,1.1236,1.094,1.0542,1.0593,1.0467,1.0283,1.0283,1.039,1.0248,0.9214,0.8869,0.8768,0.8558,0.8105,0.7793,0.8174,0.7969,0.7695,0.7695,0.7695,0.0,0.0,0.0,0.0,0.0,0.0,0.0,0.0,0.0,0.0,0.0,0.0,0.0,0.0,0.0,0.0,0.0,0.0,0.0,0.0,0.0,0.7018,0.7569,0.0,0.7305,0.0,0.751,0.749,0.7411,0.6975,0.6786,0.6755,0.6329,0.5928,0.5585,0.5169,0.4985,0.4902,0.473,0.4666,0.464,0.4581,0.4517,0.442,0.0,0.0,0.0,0.0,0.0,0.0,0.0,2.2246,2.2211,2.0815,1.9708,1.9212,1.9565,1.8741,1.8309,1.8698,1.9215,1.8753,1.6886,1.6445,1.5833,1.4947,1.5081,1.5388,1.583,1.6308,1.6814,0.0,0.0,0.0,0.0,0.0,0.0,0.0,0.0,0.0,0.0,1.3148,1.3148,1.3198,1.3198,1.3198,1.3198,1.3198,1.3198,1.3198,1.3163,1.3129,1.3141,1.3144,1.2425,1.159,1.1693,1.1367,1.1058,1.1531,1.1029,1.0283,1.0283,1.0725,1.1025,1.0338,0.9825,0.9404,0.9021,0.8311,0.7705,0.7754,0.7725,0.7695,0.7695,0.7695,0.7695,0.0,0.0,0.0,0.0,0.0,0.0,0.0,0.0,0.0,0.0,0.0,0.0,0.0,0.0,0.0,0.0,0.0,0.0,0.7021,0.0,0.7462,0.7148,0.7471,0.7442,0.7077,0.7403,0.7559,0.749,0.7381,0.7322,0.7292,0.6786,0.6321,0.5928,0.5585,0.539,0.5327,0.4979,0.4832,0.4774,0.478,0.478,0.4748,0.0,0.0,0.0,0.0,0.0,0.0,0.0,2.2431,2.1771,2.0894,2.0356,1.9906,1.9418,1.8617,1.8074,1.803,1.8278,1.7824,1.6414,1.6586,1.6334,1.5426,1.5476,1.5477,1.5389,1.6247,1.6514,0.0,0.0,0.0,0.0,0.0,0.0,0.0,0.0,1.3198,1.3198,1.3198,1.3198,1.3198,1.3198,1.3198,1.3198,1.3198,1.3198,1.3198,1.3198,1.3163,1.3129,1.3198,1.272,1.2138,1.221,1.2054,1.1836,1.1431,1.1468,1.1505,1.0867,1.1132,1.1476,1.0927,1.0407,0.9839,0.9224,0.8541,0.7976,0.7754,0.7695,0.7695,0.7695,0.7695,0.7695,0.0,0.0,0.0,0.0,0.0,0.0,0.0,0.0,0.0,0.0,0.0,0.0,0.0,0.0,0.0,0.0,0.0,0.0,0.71,0.0,0.7376,0.7471,0.7637,0.7598,0.7373,0.7471,0.7519,0.744,0.7342,0.7273,0.7273,0.6867,0.6595,0.6321,0.6006,0.5665,0.539,0.5264,0.5049,0.4812,0.4812,0.4812,0.4812,2.5854,0.0,2.5121,0.0,2.4956,2.4134,2.399,2.3148,2.2264,2.1431,2.1156,2.0628,1.9711,1.8838,1.8285,1.8238,1.7767,1.715,1.6327,1.6384,1.6247,1.5829,1.5668,0.0,1.5329,1.6054,1.6097,1.5377,1.5961,0.0,0.0,0.0,0.0,0.0,1.3357,1.3198,1.3198,1.3198,1.3198,1.3198,1.3198,1.3198,1.3198,1.3198,1.3198,1.3198,1.3198,1.3163,1.3141,1.3163,1.2978,1.272,1.272,1.2615,1.2389,1.1788,1.1945,1.2174,1.1616,1.1689,1.1877,1.1408,1.1013,1.0516,0.9861,0.9182,0.8534,0.7977,0.787,0.7841,0.7725,0.7783,0.7841,0.7725,0.0,0.0,0.0,0.0,0.0,0.0,0.0,0.7617,0.785,0.0,0.0,0.0,0.0,0.0,0.0,0.0,0.0,0.0,0.0,0.0,0.0,0.7695,0.7695,0.7701,0.7681,0.7609,0.7558,0.7418,0.7412,0.7458,0.7279,0.7112,0.7017,0.669,0.6336,0.6004,0.5906,0.559,0.5228,0.5228,0.5028,0.4812,2.6452,2.6048,2.5809,2.6467,2.6033,2.5375,2.4686,2.4582,2.4088,2.2826,2.2103,2.1481,2.0826,1.9649,1.9119,1.9626,1.8216,1.7139,1.6724,1.5587,1.5179,0.0,0.0,1.5329,1.577,1.5799,1.5906,1.6102,0.0,0.0,1.6074,0.0,1.4019,1.3198,1.3198,1.3198,1.3198,1.3198,1.3198,1.3198,1.3198,1.3198,1.3198,1.3198,1.3198,1.3198,1.3198,1.3198,1.3198,1.3198,1.3198,1.3198,1.3198,1.2873,1.2579,1.3047,1.2544,1.192,1.2354,1.2437,1.2294,1.1872,1.1745,1.1578,1.1183,1.0314,0.9351,0.846,0.828,0.8176,0.7783,0.8033,0.8176,0.7754,0.0,0.0,0.0,0.0,0.0,0.0,0.7602,0.743,0.822,0.0,0.0,0.0,0.0,0.0,0.0,0.0,0.0,0.7676,0.7695,0.0,0.7695,0.7695,0.781,0.8004,0.8004,0.7972,0.7895,0.7808,0.7903,0.8096,0.8096,0.8096,0.8061,0.7736,0.7542,0.7427,0.7098,0.6656,0.6173,0.6173,0.5584,0.4812,2.8008,2.8158,2.7949,2.6797,2.6782,2.6572,2.5465,2.456,2.3868,2.3418,2.2385,2.1773,2.1893,1.9836,1.8368,0.0,1.8218,1.764,0.0,1.6337,1.6232,1.5829,1.5668,1.5639,1.5799,1.5799,1.5845,1.5891,0.0,0.0,0.0,1.4456,1.3868,1.3198,1.3198,1.3198,1.3198,1.3198,1.3198,1.3198,1.3198,1.3198,1.3198,1.3198,1.3198,1.3198,1.3198,1.3198,1.3198,1.3198,1.3198,1.3198,1.3198,1.3094,1.2943,1.2768,1.272,1.2805,1.2973,1.3011,1.2994,1.3277,1.2773,1.2066,1.1678,1.0856,1.0018,0.9333,0.9175,0.9047,0.8549,0.854,0.8523,0.8176,0.8298,0.0,0.0,0.0,0.0,0.0,0.7826,0.7721,0.0,0.7826,0.0,0.0,0.0,0.0,0.0,0.0,0.0,0.0,0.7695,0.0,0.7695,0.7695,0.7734,0.78,0.7751,0.767,0.7567,0.7427,0.743,0.7494,0.7494,0.7494,0.7494,0.736,0.7138,0.6795,0.6658,0.6224,0.5621,0.5333,0.5073,0.485,2.9011,2.9295,2.9101,2.7604,2.7694,2.7485,2.6078,2.5272,2.4652,2.4256,2.3388,2.2732,2.2414,2.074,0.0,1.8192,1.847,1.8072,1.6515,1.6795,1.6757,1.6228,1.6159,1.6144,1.6144,0.0,0.0,1.5905,1.5905,1.5365,1.4278,1.4246,1.3868,1.3198,1.3198,1.3198,1.3198,1.3198,1.3198,1.3198,1.3198,1.3198,1.3198,1.3198,1.3198,1.3198,1.3198,1.3198,1.3198,1.3198,1.3198,1.3198,1.3198,1.3198,1.3129,1.2838,1.2978,1.3204,1.324,1.3201,1.3251,1.3659,1.3198,1.2556,1.2103,1.1506,1.077,0.9942,0.9793,0.9603,0.8889,0.8899,0.891,0.8551,0.8662,0.8734,0.8523,0.0,0.0,0.0,0.0,0.0,0.0,0.8354,0.0,0.0,0.0,0.0,0.0,0.0,0.0,0.7705,0.7695,0.0,0.7695,0.7695,0.7744,0.7799,0.7738,0.7732,0.7765,0.7537,0.7484,0.7621,0.7567,0.7535,0.7535,0.7535,0.7405,0.7198,0.7156,0.6997,0.6734,0.6455,0.5793,0.5001,2.94,2.9549,0.0,0.0,2.8562,0.0,2.6636,2.6482,2.6198,2.5197,2.4864,2.4197,2.2784,2.2249,2.1268,1.9382,0.0,0.0,0.0,1.7079,1.7015,1.6952,1.6831,1.6786,1.6786,1.6174,1.5935,1.6134,1.6102,1.5417,1.4053,1.4324,1.4052,1.3301,1.3317,1.3304,1.3267,1.327,1.3235,1.3198,1.3198,1.3198,1.3198,1.3198,1.3198,1.3198,1.3198,1.3198,1.3198,1.3198,1.3198,1.3198,1.3198,1.3198,1.3198,1.3198,1.3198,1.321,1.3248,1.3201,1.3141,1.3248,1.3201,1.3004,1.2559,1.2181,1.1583,1.0487,1.0266,0.999,0.9018,0.9151,0.9289,0.8899,0.8871,0.8871,0.8844,0.0,0.0,0.0,0.0,0.0,0.0,0.9035,0.8816,0.0,0.0,0.0,0.0,0.0,0.8265,0.7715,0.7695,0.7695,0.7695,0.7695,0.78,0.7966,0.7912,0.807,0.839,0.799,0.7994,0.8279,0.8166,0.8096,0.807,0.8105,0.8201,0.8366,0.8323,0.8526,0.8862,0.8862,0.7424,0.534,0.0,0.0,2.9205,2.8023,2.8248,2.8293,2.7445,2.6786,2.6123,2.554,2.5148,2.4902,2.4872,2.3862,2.301,2.2555,2.0756,1.9128,1.7797,1.8074,1.8037,1.7533,1.7468,1.7458,1.7458,1.6816,1.6517,1.6542,1.6245,1.592,1.557,1.4612,1.4181,1.4208,1.4578,1.4422,1.3894,1.3884,1.3609,1.3198,1.3198,1.3198,1.3198,1.3198,1.3198,1.3198,1.3198,1.3198,1.3198,1.3198,1.3198,1.3198,1.3198,1.3198,1.3198,1.3198,1.3198,1.3286,1.3783,1.3546,1.3298,1.376,1.3546,1.3138,1.3035,1.293,1.2675,1.1994,1.1492,1.1006,1.0342,0.9941,0.9619,0.9316,0.9475,0.9555,0.9289,0.9262,0.0,0.0,0.9035,0.8953,0.9354,0.9035,0.8926,0.0,0.0,0.0,0.0,0.9445,0.9182,0.7754,0.7695,0.7695,0.7695,0.7695,0.7715,0.7782,0.7712,0.7862,0.8261,0.8102,0.8088,0.8169,0.8326,0.8221,0.7891,0.8026,0.7991,0.785,0.7584,0.7416,0.7345,0.7555,0.7244,0.6708,2.9056,2.934,2.925,2.8218,2.8353,2.8368,2.773,2.722,2.6557,2.5719,2.5226,2.5242,2.5839,2.4896,2.4059,2.364,2.1647,1.9963,1.8946,1.8716,1.8797,1.9134,1.8802,1.8612,1.8612,1.7354,1.6712,1.6712,1.648,1.6276,1.6056,1.4842,1.4342,1.4452,1.4892,1.4686,1.398,1.3778,1.3509,1.3198,1.3198,1.3198,1.3198,1.3198,1.3198,1.3198,1.3198,1.3198,1.3198,1.3198,1.3198,1.3198,1.3198,1.3198,1.3198,1.3198,1.3198,1.3261,1.3596,1.3458,1.3273,1.3609,1.3446,1.3198,1.3198,1.3198,1.3048,1.2464,1.1915,1.1353,1.075,1.0216,0.9802,0.9633,0.979,0.9841,0.9672,0.9646,0.0,0.9646,0.9449,0.9479,0.9948,0.9809,0.9769,0.9973,0.0,0.0,0.947,1.0186,0.9979,0.8605,0.8555,0.8506,0.8338,0.7911,0.7695,0.7695,0.7656,0.7773,0.7965,0.8096,0.815,0.816,0.8276,0.8294,0.8233,0.8026,0.7998,0.8009,0.7821,0.7755,0.7835,0.7965,0.8026,0.7894,2.9175,2.928,2.9101,2.8547,2.8442,2.8248,2.7715,2.7505,2.6931,2.5674,2.5315,2.5377,2.5856,2.5422,2.4717,2.3684,2.2233,2.1025,2.0203,1.9405,1.9598,2.0944,2.0152,1.9735,1.9839,1.8071,1.71,1.701,1.71,1.6942,1.6474,1.5545,1.5026,1.4906,1.5065,1.4731,1.4032,1.3548,1.3273,1.3198,1.3198,1.3198,1.3198,1.3198,1.3198,1.3198,1.3198,1.3198,1.3198,1.3198,1.3198,1.3198,1.3198,1.3198,1.3198,1.3198,1.3198,1.3198,1.3198,1.3198,1.3198,1.3198,1.3198,1.3198,1.3198,1.3198,1.306,1.2543,1.1964,1.1407,1.0862,1.0291,0.9931,1.0018,0.9956,0.9931,1.0018,0.0,1.0018,1.0018,1.0106,1.0345,1.0781,1.0819,1.0819,1.0819,1.1282,1.1213,1.0442,1.0894,1.0844,1.0064,0.9822,0.9544,0.9156,0.8377,0.793,0.7841,0.7812,0.7851,0.795,0.8174,0.8299,0.8277,0.8249,0.845,0.8709,0.8117,0.8102,0.839,0.8468,0.8686,0.9016,0.9016,0.9016,0.8802,2.791,2.7925,2.791,2.779,2.779,2.7694,2.764,2.6995,2.6171,2.5242,2.5691,2.5586,2.4163,2.4911,2.4986,2.3714,2.3355,2.2521,2.0965,2.0703,2.0896,2.1545,2.0356,1.9959,2.0543,1.969,1.8957,1.8403,1.8957,1.8907,1.8287,1.7956,1.7596,1.7143,1.64,1.5588,1.4732,1.4189,1.3659,1.3198,1.3198,1.3198,1.3198,1.3198,1.3198,1.3198,1.3198,1.3198,1.3198,1.3198,1.3198,1.3198,1.3198,1.3198,1.3198,1.3198,1.3198,1.3198,1.3198,1.3198,1.3198,1.3198,1.3198,1.3198,1.3198,1.3198,1.3173,1.3085,1.2239,1.1502,1.1445,1.0553,0.9977,1.0493,1.0207,1.0069,1.0506,0.0,1.0568,1.0568,1.1023,1.1362,1.1437,1.1348,1.1348,1.145,1.1422,1.1405,1.139,1.1821,1.2049,1.195,1.092,1.0055,0.9447,0.9359,0.904,0.8449,0.829,0.85,0.9029,0.8818,0.8694,0.8715,0.8862,0.8777,0.8543,0.836,0.8317,0.8368,0.8742,0.8947,0.9016,0.9016,0.9016,0.8802,2.7625,2.7625,2.7625,2.7625,2.8015,2.8113,2.7685,2.728,2.6876,2.6471,2.5511,2.5061,2.5674,2.5659,2.5644,2.5734,2.4433,2.3565,2.349,2.2158,2.1769,2.2682,2.1455,2.0797,2.0857,2.0094,1.954,1.9226,1.8837,1.8837,1.9226,1.854,1.8195,1.8085,1.711,1.5952,1.4704,1.4279,1.3882,1.3581,1.3581,1.3425,1.3232,1.3391,1.3357,1.3198,1.3198,1.3198,1.3198,1.3198,1.3198,1.3198,1.3198,1.3198,1.3198,1.3198,1.3198,1.3198,1.3198,1.3198,1.3198,1.3198,1.3198,1.3198,1.3198,1.3198,1.3198,1.3198,1.2559,1.1908,1.1638,1.0881,1.0378,1.0656,1.0257,0.0,0.0,1.0894,1.0806,1.1161,1.1425,1.1701,1.2002,1.1964,1.1952,1.2027,1.2227,1.2264,1.204,1.2522,1.2789,1.2789,1.1706,1.0595,0.9414,0.9462,0.9204,0.86,0.8505,0.8624,0.8938,0.9019,0.9075,0.9086,0.9098,0.9148,0.9169,0.8773,0.8882,0.927,0.9253,0.9142,0.9016,0.9016,0.9016,0.8862,2.7625,2.7625,2.7625,2.7625,2.8263,2.8667,2.8248,2.8008,2.785,2.7655,2.5794,2.5061,2.6482,2.6303,2.6318,2.6965,2.5465,2.4822,2.5555,2.3819,2.3011,2.358,2.2652,2.1874,2.1306,2.0692,2.0303,2.0154,1.9031,1.9061,2.0139,1.9,1.8561,1.8752,1.7514,1.6218,1.4886,1.4378,1.4032,1.3835,1.3835,1.3581,1.3232,1.348,1.3425,1.3198,1.3198,1.3198,1.3198,1.3198,1.3198,1.3198,1.3198,1.3198,1.3198,1.3198,1.3198,1.3198,1.3198,1.3198,1.3198,1.3198,1.3198,1.3198,1.3198,1.3198,1.3198,1.3198,1.276,1.2278,1.1864,1.1312,1.0931,1.1069,0.0,0.0,0.0,1.15,1.1445,1.1914,1.2203,1.2517,1.2944,1.2835,1.276,1.2793,1.3035,1.301,1.263,1.2973,1.3067,1.2874,1.2307,1.126,0.9583,0.9909,0.9702,0.899,0.8962,0.8962,0.9001,0.9182,0.9244,0.9244,0.9145,0.9355,0.9734,0.9161,0.9339,0.9939,0.9747,0.9422,0.9071,0.9067,0.9096,0.8993,2.7625,2.7625,2.7625,2.7625,2.8158,2.8936,2.9894,2.9325,2.8487,2.773,2.7445,2.6408,2.4133,2.6004,2.6861,2.5332,2.6501,2.6797,2.5674,2.5809,2.5226,2.367,2.3505,2.3071,2.2218,2.2368,2.2158,2.1545,2.1006,2.1021,2.1515,2.0213,1.9579,1.9519,1.7772,1.6594,1.5841,1.4731,1.4046,1.3702,1.3702,1.3514,1.3198,1.3232,1.3232,1.3198,1.3198,1.3198,1.3198,1.3198,1.3198,1.3198,1.3198,1.3198,1.3198,1.3198,1.3198,1.3198,1.3198,1.3198,1.3198,1.3198,1.3198,1.3198,1.3198,1.3198,1.3198,1.3198,1.276,1.2391,1.2366,1.1902,1.1688,1.2203,0.0,0.0,1.2266,1.2722,1.3035,1.3073,1.4011,1.4676,1.4727,1.4163,1.3826,1.3972,1.3438,1.3116,1.3135,1.3116,1.2824,1.2205,1.2716,1.214,1.0416,1.1536,1.1443,1.0159,0.9986,1.0003,1.0147,0.9445,0.9111,0.9111,0.9111,0.934,0.9694,0.939,0.9382,0.9574,0.999,0.9797,0.9288,0.9333,0.9377,0.9345,2.7625,2.7625,2.7625,2.7625,2.8697,2.9385,2.8682,2.9684,3.0118,2.8966,2.8816,2.7799,2.5136,2.6482,2.713,2.5916,2.692,2.7365,2.6856,2.6516,2.5511,2.367,2.3595,2.3445,2.3116,2.2817,2.2604,2.2308,2.1306,2.1321,2.2278,2.0946,2.0505,2.0727,1.8859,1.7602,1.683,1.5329,1.4578,1.4438,1.4401,1.4176,1.3894,1.3894,1.3894,1.3828,1.3369,1.3323,1.3493,1.3267,1.3198,1.3198,1.3198,1.3471,1.381,1.4149,1.4011,1.381,1.4161,1.3747,1.3198,1.3198,1.3198,1.3198,1.3198,1.3198,1.3198,1.3198,1.3035,1.2885,1.2885,1.2722,1.2793,1.338,0.0,1.2918,1.381,1.3822,1.386,1.4212,1.4626,1.4916,1.4916,1.4375,1.4048,1.4085,1.386,1.3561,1.3223,1.3141,1.2846,1.2287,1.2808,1.2407,1.0996,1.1462,1.14,1.0858,1.0786,1.0786,1.0834,1.0159,0.9864,0.9897,0.9454,0.9364,0.9536,0.966,0.995,1.027,1.0267,1.0355,1.05,1.0668,1.0235,0.9646,2.7625,2.7625,2.7625,2.7625,2.8816,2.9445,2.8368,2.9744,3.0746,3.0253,2.9699,2.8562,2.6452,2.723,2.7485,2.6501,2.7145,2.7625,2.7625,2.6861,2.5674,2.4088,2.4029,2.4029,2.4029,2.334,2.2966,2.2966,2.1665,2.159,2.2694,2.1335,2.0789,2.0861,1.9298,1.8089,1.7131,1.5688,1.5013,1.489,1.4842,1.4624,1.4351,1.4319,1.4319,1.4241,1.3728,1.3695,1.3848,1.3493,1.3484,1.3636,1.3531,1.386,1.4449,1.4942,1.4752,1.4462,1.4942,1.4436,1.3711,1.3711,1.3622,1.3534,1.3709,1.3609,1.3534,1.3709,1.3711,1.3711,1.3711,1.3711,1.3873,1.4286,1.3998,1.4011,1.4802,1.4739,1.4739,1.513,1.5279,1.5392,1.5392,1.4928,1.4601,1.4601,1.4437,1.4173,1.3772,1.349,1.3181,1.2876,1.2867,1.2527,1.1868,1.1868,1.1751,1.1497,1.1497,1.1497,1.1441,1.0706,1.0391,1.0355,0.9728,0.9557,0.9721,1.0008,1.0307,1.0607,1.0806,1.0766,1.0694,1.1297,1.0839,1.0011,2.7625,2.7625,2.7625,2.7625,2.8344,2.9026,2.949,2.9564,3.0043,3.1345,2.9968,2.8599,2.773,2.8188,2.8053,2.6722,2.72,2.7625,2.7625,2.6961,2.6108,2.5077,2.5017,2.5002,2.5002,2.4073,2.3595,2.3595,2.2323,2.2039,2.2694,2.1335,2.0348,1.9675,1.8917,1.787,1.6589,1.5832,1.5269,1.4921,1.4921,1.469,1.4406,1.4351,1.4351,1.4406,1.4319,1.43,1.4268,1.3848,1.4119,1.4543,1.4207,1.4475,1.4993,1.5385,1.5247,1.498,1.5398,1.5209,1.4928,1.4916,1.45,1.4236,1.479,1.4488,1.4249,1.479,1.4916,1.4916,1.4916,1.4916,1.4916,1.4916,1.4928,1.4928,1.4928,1.5354,1.5706,1.5706,1.6183,1.6522,1.6522,1.6019,1.5693,1.5693,1.5178,1.4916,1.4916,1.425,1.3927,1.3877,1.2871,1.256,1.3107,1.3107,1.2799,1.2214,1.2214,1.2136,1.1988,1.0966,1.0477,1.0367,0.9861,0.9867,1.0317,1.0362,1.0403,1.0515,1.1653,1.0979,0.958,1.0977,1.1086,1.0521,2.7625,2.7625,2.7625,2.7625,2.8188,2.8562,2.8269,2.8981,2.9609,2.9669,2.9086,2.8592,2.8323,2.8472,2.8442,2.8038,2.8188,2.8083,2.7655,2.738,2.7141,2.6861,2.5899,2.5196,2.4747,2.4462,2.3864,2.2951,2.2577,2.2488,2.2694,2.1335,2.0842,2.1021,1.9385,1.8444,1.7978,1.6782,1.6185,1.6093,1.5983,1.5614,1.5117,1.5276,1.5223,1.5037,1.4998,1.5117,1.5305,1.5449,1.5403,1.5278,1.562,1.6021,1.6451,1.6981,1.6768,1.6518,1.7096,1.6907,1.6239,1.5182,1.479,1.4702,1.4865,1.479,1.4714,1.4878,1.4916,1.5029,1.5379,1.5442,1.558,1.5969,1.6019,1.6019,1.6019,1.617,1.6271,1.6271,1.6421,1.6522,1.6522,1.6019,1.5693,1.5693,1.5178,1.504,1.5429,1.4927,1.4413,1.4061,1.3735,1.3647,1.381,1.3386,1.3253,1.3394,1.3394,1.3358,1.3286,1.2091,1.1633,1.169,1.0712,1.0326,1.0326,0.9941,0.998,1.0327,1.0926,1.1002,1.0752,1.0908,1.1056,1.126,2.7619,2.7625,2.7625,2.7625,2.7919,2.8053,2.7634,2.8314,2.8816,2.8861,2.8712,2.8697,2.8966,2.8996,2.8996,2.8996,2.8996,2.8697,2.8023,2.7979,2.7859,2.7625,2.6811,2.6078,2.542,2.5151,2.4507,2.3445,2.3445,2.3176,2.2709,2.2113,2.1799,2.1635,2.0154,1.9346,1.9016,1.762,1.7022,1.7005,1.6924,1.6642,1.6287,1.638,1.634,1.6191,1.6165,1.6227,1.6384,1.6515,1.6368,1.626,1.6836,1.7142,1.7421,1.7963,1.7801,1.7584,1.8389,1.8258,1.7708,1.6754,1.6008,1.5517,1.5517,1.5517,1.5593,1.586,1.6045,1.622,1.6346,1.6547,1.6722,1.6835,1.7036,1.7187,1.7187,1.6999,1.6861,1.6861,1.666,1.6522,1.6522,1.6421,1.6358,1.6358,1.6057,1.5919,1.6019,1.5492,1.5079,1.4739,1.4525,1.4412,1.4412,1.4262,1.4225,1.43,1.4088,1.3951,1.384,1.267,1.214,1.2093,1.1118,1.0501,1.0177,0.9698,0.965,0.9944,1.0196,1.0517,1.087,1.0904,1.0763,1.0699,2.7784,2.767,2.764,2.77,2.7715,2.7715,2.7715,2.7715,2.7949,2.8742,2.8712,2.8876,2.9579,2.9669,2.9684,2.9744,2.9699,2.9385,2.8727,2.8637,2.8323,2.7745,2.7595,2.723,2.6692,2.6033,2.5345,2.4582,2.4642,2.4044,2.2813,2.3325,2.2921,2.1665,2.1006,2.0333,1.96,1.8343,1.7739,1.7706,1.7673,1.7644,1.7599,1.7541,1.756,1.7566,1.7541,1.7504,1.747,1.7257,1.7227,1.7425,1.7889,1.8029,1.8139,1.8686,1.8551,1.8464,1.9479,1.9463,1.9205,1.9159,1.797,1.6766,1.6716,1.6703,1.6823,1.7428,1.7937,1.8129,1.7614,1.7978,1.8166,1.7614,1.7953,1.8254,1.8216,1.7765,1.7451,1.7451,1.6986,1.6672,1.6672,1.7149,1.7451,1.7451,1.7413,1.7149,1.6622,1.607,1.5743,1.5693,1.5255,1.5004,1.5054,1.5517,1.5517,1.5054,1.45,1.4162,1.4026,1.2989,1.2332,1.1974,1.1238,1.065,1.0155,0.9717,0.9511,0.9511,0.9511,0.9769,1.0223,1.0919,1.0396,0.9533,2.8412,2.7934,2.779,2.8278,2.8368,2.8368,2.8368,2.8368,2.8442,2.8637,2.8622,2.9041,3.0178,3.0298,3.0522,3.1061,3.0612,3.0043,2.94,2.8891,2.8532,2.8382,2.7365,2.6976,2.735,2.6722,2.5809,2.4582,2.5151,2.4702,2.34,2.3535,2.2921,2.1665,2.1006,2.0333,1.963,1.8837,1.8493,1.8459,1.8406,1.806,1.7644,1.8144,1.8007,1.7589,1.814,1.8318,1.8288,1.8374,1.8708,1.8987,1.8574,1.9034,1.9713,1.9792,2.0043,2.0401,2.0762,2.0796,2.0661,2.0324,1.9661,1.8988,1.8533,1.8137,1.8004,1.852,1.8729,1.8819,1.8694,1.9095,1.9284,1.8756,1.8769,1.8694,1.8267,1.8103,1.8028,1.8028,1.7915,1.784,1.784,1.7953,1.8028,1.8028,1.7626,1.7325,1.72,1.666,1.6132,1.5706,1.558,1.5731,1.6158,1.6283,1.6283,1.6158,1.5605,1.5341,1.5264,1.41,1.3341,1.2864,1.1715,1.1697,1.2346,1.055,0.9762,0.9658,0.9607,0.961,0.9762,1.0772,1.1143,1.119,2.8173,2.8083,2.8068,2.8113,2.8382,2.8607,2.8607,2.8323,2.8233,2.8562,2.8308,2.8607,2.9924,3.0058,3.0462,3.1392,3.121,3.0717,3.0058,2.943,2.8786,2.8128,2.744,2.7066,2.7096,2.7066,2.6572,2.5555,2.6228,2.5869,2.4552,2.4552,2.4044,2.3056,2.2084,2.1455,2.109,2.0079,1.966,1.963,1.928,1.8902,1.8634,1.8971,1.8847,1.8594,1.8936,1.9277,1.9493,1.925,1.9765,2.0351,1.9715,2.0065,2.0688,2.0707,2.0982,2.1355,2.1617,2.1741,2.165,2.1435,2.117,2.061,1.9278,1.8759,1.8641,1.8951,1.9204,1.9321,1.907,1.9673,1.9949,1.9108,1.9472,1.961,1.9045,1.8756,1.8593,1.8593,1.8367,1.8304,1.8581,1.8593,1.8593,1.8593,1.8329,1.8053,1.779,1.7488,1.7074,1.6522,1.6497,1.6509,1.6522,1.6522,1.666,1.6923,1.6635,1.622,1.5668,1.4788,1.3938,1.316,1.2519,1.2593,1.311,1.1946,1.1098,1.0476,0.9948,0.9698,0.9729,1.0401,1.1075,1.1491,2.7859,2.8113,2.8323,2.803,2.8293,2.8637,2.8742,2.8188,2.7949,2.8532,2.8098,2.8263,2.9594,2.9849,3.0298,3.1168,3.1345,3.1106,3.0537,2.9924,2.9086,2.8015,2.7745,2.737,2.6767,2.7186,2.7141,2.6587,2.7141,2.6722,2.5435,2.5435,2.5091,2.4403,2.3206,2.2724,2.2607,2.1395,2.0887,2.0827,2.0258,2.0034,2.0019,1.9856,1.9871,2.0019,1.9856,2.0244,2.0759,2.0184,2.0605,2.1325,2.0828,2.1001,2.1389,2.1513,2.1713,2.1944,2.2324,2.2505,2.2577,2.2591,2.2597,2.2072,2.0261,1.9642,1.9472,1.9673,2.0067,2.0281,1.994,2.0623,2.0952,1.9874,2.0507,2.0863,2.0037,1.9674,1.9371,1.9171,1.8756,1.8704,1.9207,1.9208,1.9158,1.9158,1.9033,1.8832,1.8367,1.8254,1.8003,1.7539,1.7526,1.7338,1.6948,1.6861,1.7099,1.7664,1.7564,1.6936,1.5819,1.5266,1.4425,1.3373,1.3248,1.3198,1.3198,1.3198,1.2606,1.1635,1.0778,1.0191,0.9826,1.0064,1.0828,1.1572,2.8472,2.8053,2.8053,2.9116,2.8906,2.8801,2.937,2.8891,2.8502,2.8592,2.8517,2.8951,3.0238,3.0911,3.0989,3.0462,3.0552,3.0612,3.0507,2.9924,2.9505,2.9325,2.8203,2.758,2.749,2.6976,2.6677,2.6587,2.6677,2.6048,2.4716,2.4716,2.4403,2.3699,2.2996,2.2724,2.2664,2.1874,2.156,2.156,2.1455,2.1425,2.1365,2.0759,2.0932,2.135,2.0744,2.1006,2.1545,2.1455,2.1466,2.1465,2.1376,2.1736,2.2142,2.2188,2.2542,2.2921,2.2963,2.3431,2.3853,2.3699,2.3865,2.3929,2.3497,2.2194,2.1381,2.2402,2.2697,2.2906,2.335,2.3558,2.338,2.2657,2.2731,2.2308,2.0797,2.0964,2.0875,1.9812,1.9635,1.9813,2.0343,1.9953,1.9698,1.9698,1.9284,1.8945,1.892,1.8468,1.8179,1.8091,1.8091,1.8292,1.8632,1.8216,1.8254,1.8794,1.8317,1.7501,1.6384,1.5831,1.5065,1.4112,1.3473,1.3198,1.3198,1.3198,1.311,1.2926,1.281,1.157,0.988,0.9863,1.1178,1.2871,2.8023,2.8397,2.8652,2.8487,2.9131,2.952,2.9101,2.8786,2.8607,2.8607,2.8263,2.8382,2.934,3.0043,3.0432,3.0387,3.0133,2.9983,2.9983,2.9385,2.9026,2.9026,2.8098,2.7395,2.7036,2.6737,2.6228,2.5495,2.6228,2.6108,2.5166,2.4761,2.4418,2.4148,2.349,2.3191,2.3146,2.2517,2.2248,2.2218,2.1844,2.1695,2.1665,2.138,2.144,2.1665,2.1365,2.168,2.2188,2.1814,2.2092,2.2545,2.2256,2.2557,2.2992,2.2992,2.3185,2.3452,2.3807,2.4117,2.4366,2.4658,2.4824,2.4823,2.4702,2.4034,2.3412,2.3305,2.3284,2.3326,2.3593,2.4182,2.4239,2.2915,2.3306,2.3263,2.1843,2.1576,2.116,2.0322,2.0295,2.0359,2.0586,2.0105,1.9901,2.0207,1.9737,1.956,1.9861,1.9383,1.9105,1.9076,1.8801,1.8763,1.9021,1.8459,1.8459,1.9008,1.8395,1.7524,1.6509,1.6523,1.5834,1.4626,1.4475,1.4187,1.3774,1.3373,1.3198,1.3073,1.1833,1.1023,1.0458,1.003,1.0493,1.149]}]]